     2.11           OBSERVATION DATA    G (GPS)             RINEX VERSION / TYPE
teqc 2010Oct21 OPUS Account 20111030 16:49:16UTC            PGM / RUN BY / DATE
D 1523                                                      MARKER NAME
1182                                                        MARKER NUMBER
CSMIDDLETON NGS                                             OBSERVER / AGENCY
0440103897 TRIMBLE 5700 1.04                                REC # / TYPE / VERS
12299603 TRM41249.00 NONE                                   ANT # / TYPE
  -747585.9900 -5507640.8504  3118240.2257                  APPROX POSITION XYZ
        2.0000        0.0000        0.0000                  ANTENNA: DELTA H/E/N
     1     1                                                WAVELENGTH FACT L1/2
     5    L1    L2    C1    P1    P2                        # / TYPES OF OBSERV
    15                                                      LEAP SECONDS
  2011     9    30     0     0   30.0000000     GPS         TIME OF FIRST OBS
                                                            END OF HEADER
 11  9 30  0  0 30.0000000  0  9G25G29G12G15G02G05G30G21G26
 -41774605.31558 -32537707.30756  21749348.1804                   21749349.0824
 -32524364.81958 -25330860.68756  21546246.1564                   21546245.2074
 -50787507.32657 -39560822.23855  22373401.0944                   22373400.6764
 -11229332.98456  -8736109.60154  23417047.9454                   23417049.2424
 -65622343.21157 -51094811.00355  22058175.7814                   22058172.3554
 -54343293.13458 -42331573.16656  20705128.9534                   20705127.1884
 -22530080.43257 -17542364.60755  22686014.1884                   22686014.9884
  -2401446.20056  -1862220.90252  24918214.1094                   24918213.6914
 -22183200.06957 -17278676.23455  22557377.2194                   22557377.0234
 11  9 30  0  1  0.0000000  0  9G25G29G12G15G02G05G30G21G26
 -41818431.57348 -32571857.62346  21741008.4534                   21741009.3794
 -32681669.08048 -25453435.37346  21516312.3134                   21516311.6524
 -50786141.71147 -39559758.15845  22373660.9064                   22373660.9304
 -11410900.10047  -8877590.16444  23382496.7424                   23382498.3324
 -65661241.15147 -51125121.07545  22050773.1884                   22050770.6054
 -54376302.90948 -42357295.07346  20698847.5314                   20698845.8054
 -22621871.27047 -17613889.90645  22668547.1884                   22668547.2344
  -2544014.43946  -1973312.94543  24891083.1954                   24891084.1214
 -22352360.06347 -17410489.08645  22525187.6254                   22525187.2274
 11  9 30  0  1 30.0000000  0  9G25G29G12G15G02G05G30G21G26
 -41861762.61348 -32605622.07646  21732762.7894                   21732764.0554
 -32838742.12648 -25575829.90046  21486421.8364                   21486421.4144
 -50784527.68647 -39558500.49945  22373968.0394                   22373968.0124
 -11592409.79846  -9019026.06844  23347956.5084                   23347958.0394
 -65700030.62347 -51155346.62545  22043392.6884                   22043389.0274
 -54408898.38748 -42382694.14547  20692644.8594                   20692642.9304
 -22713074.80547 -17684957.53145  22651191.1644                   22651191.6174
  -2686570.73946  -2084395.62943  24863956.2734                   24863957.2584
 -22521212.77747 -17542062.49245  22493055.6564                   22493054.8204
 11  9 30  0  2  0.0000000  0  9G25G29G12G15G02G05G30G21G26
 -41904601.21948 -32639002.82246  21724610.7814                   21724612.2464
 -32995582.19848 -25698042.89646  21456576.2584                   21456575.3984
 -50782668.75447 -39557052.00345  22374322.6804                   22374321.6414
 -11773859.23646  -9160414.95744  23313426.9224                   23313429.3164
 -65738712.29947 -51185488.17545  22036031.3364                   22036028.1134
 -54441082.35648 -42407772.55746  20686520.5554                   20686519.2234
 -22803692.14347 -17755568.38545  22633947.0944                   22633947.7194
  -2829115.75346  -2195469.52743  24836829.9924                   24836830.9264
 -22689755.18147 -17673394.11845  22460982.3364                   22460982.5234
 11  9 30  0  2 30.0000000  0  9G25G29G12G15G02G05G30G21G26
 -40371525.66748 -31444398.50946  22016345.7424                   22016346.5314
 -31576759.60248 -24592466.78846  21726569.4454                   21726568.0164
 -49205145.32747 -38327812.98745  22674514.6414                   22674514.3914
 -10379817.27946  -8074148.28544  23578704.8054                   23578705.8054
 -64201862.06447 -49987942.52145  22328483.9534                   22328481.0594
 -52897433.53348 -41204929.31546  20980266.9064                   20980265.0594
 -21318298.27347 -16598118.58945  22916608.4534                   22916607.7544
  -1396223.07946  -1078929.62942  25109500.7814                   25109502.2934
 -21282555.26447 -16576874.56845  22728763.4694                   22728763.6994
 11  9 30  0  3  0.0000000  0  9G25G29G12G15G02G05G30G21G26
 -40413382.77848 -31477014.45046  22008380.2424                   22008381.8834
 -31733124.11148 -24714309.23546  21696814.3364                   21696813.6024
 -49202802.10047 -38325987.12845  22674960.6954                   22674960.8324
 -10561134.72046  -8215434.33044  23544200.8594                   23544202.2154
 -64240324.42347 -50017913.17845  22321165.2114                   22321161.6844
 -52928798.52548 -41229369.56646  20974298.2584                   20974296.6374
 -21407741.61747 -16667814.63845  22899587.5784                   22899588.2424
  -1538744.65946  -1189985.28843  25082378.8914                   25082380.7234
 -21450462.61447 -16707711.34145  22696811.7424                   22696812.2854
 11  9 30  0  3 30.0000000  0  9G25G29G12G15G02G05G30G21G26
 -40454750.61248 -31509249.12846  22000508.2424                   22000510.6724
 -31889244.97248 -24835961.79146  21667104.9224                   21667103.8284
 -49200219.28947 -38323974.56745  22675452.3834                   22675452.0824
 -10742379.75747  -8356663.96944  23509711.1804                   23509712.0514
 -64278674.63247 -50047796.45245  22313867.1254                   22313864.3954
 -52959755.77948 -41253492.08946  20968407.8524                   20968406.1884
 -21496596.88647 -16737052.47645  22882678.8134                   22882679.7074
  -1681253.19846  -1301030.72243  25055261.3834                   25055262.0944
 -21618045.35747 -16838295.17545  22664922.1954                   22664921.5004
 11  9 30  0  4  0.0000000  0  9G25G29G12G15G02G05G30G21G26
 -40495632.17148 -31541104.90446  21992728.3914                   21992730.3134
 -32045120.69948 -24957423.33946  21637443.2424                   21637441.8324
 -49197401.42047 -38321778.83845  22675988.4454                   22675987.9144
 -10923550.20547  -8497835.49444  23475234.8204                   23475236.4844
 -64316913.36248 -50077592.84745  22306590.8284                   22306587.0394
 -52990308.24848 -41277299.18946  20962593.6724                   20962591.7854
 -21584865.50147 -16805833.19445  22865881.8134                   22865882.2464
  -1823750.04646  -1412067.05143  25028144.5004                   25028145.4534
 -21785300.29347 -16968623.56145  22633094.3914                   22633093.5204
 11  9 30  0  4 30.0000000  0  9G25G29G12G15G02G05G30G21G26
 -40536033.92948 -31572586.80746  21985040.8524                   21985042.2734
 -32200753.74948 -25078695.81446  21607827.0474                   21607826.3324
 -49194355.18447 -38319405.17245  22676568.2114                   22676567.8874
 -11104647.36047  -8638949.90444  23440773.6254                   23440775.0274
 -64355044.58347 -50107305.46645  22299334.6414                   22299331.1724
 -53020461.80548 -41300795.46446  20956856.0784                   20956854.0314
 -21672552.30747 -16874160.53945  22849196.2664                   22849195.7504
  -1966240.03446  -1523098.05343  25001029.5164                   25001031.6294
 -21952228.06747 -17098697.03245  22601328.9694                   22601328.4694
 11  9 30  0  5  0.0000000  0  9G25G29G12G15G02G05G30G21G26
 -40575955.88248 -31603694.83146  21977443.9924                   21977445.5634
 -32356139.43348 -25199775.51346  21578257.7344                   21578256.8754
 -49191081.64547 -38316854.37545  22677191.0004                   22677190.9534
 -11285665.81947  -8780003.02144  23406326.2344                   23406327.3524
 -64393065.94447 -50136932.49245  22292099.4224                   22292096.4064
 -53050217.87048 -41323981.99546  20951193.1484                   20951191.5314
 -21759655.69447 -16942033.28945  22832621.0944                   22832620.4614
  -2108721.35346  -1634122.30843  24973916.5234                   24973916.4384
 -22118822.72447 -17228510.91945  22569627.4614                   22569626.7814
 11  9 30  0  5 30.0000000  0  9G25G29G12G15G02G05G30G21G26
 -40615401.43448 -31634431.63246  21969937.0634                   21969938.6214
 -32511276.22848 -25320661.27246  21548736.8754                   21548735.3594
 -49187585.05147 -38314129.78645  22677856.6724                   22677855.8874
 -11466603.74847  -8920993.37144  23371894.4144                   23371895.8484
 -64430978.20348 -50166474.49245  22284884.8054                   22284881.6724
 -53079579.31948 -41346861.03246  20945605.6564                   20945604.4344
 -21846177.40947 -17009452.82545  22816155.7504                   22816156.4494
  -2251195.62846  -1745141.10143  24946804.4614                   24946803.3634
 -22285081.62947 -17358063.21145  22537988.8834                   22537988.1564
 11  9 30  0  6  0.0000000  0  9G25G29G12G15G02G05G30G21G26
 -40654373.68048 -31664799.62246  21962521.3204                   21962523.0314
 -32666162.72048 -25441352.00146  21519262.5554                   21519260.8984
 -49183869.30247 -38311234.41945  22678563.2664                   22678563.1174
 -11647458.86646  -9061919.18144  23337479.4924                   23337480.4064
 -64468781.91947 -50195931.92645  22277690.6024                   22277687.7114
 -53108549.20448 -41369434.94446  20940093.2894                   20940091.3714
 -21932118.88547 -17076420.21845  22799802.0704                   22799801.9534
  -2393664.07346  -1856155.27043  24919693.6954                   24919692.9064
 -22451002.18147 -17487351.82245  22506415.2734                   22506414.6484
 11  9 30  0  6 30.0000000  0  9G25G29G12G15G02G05G30G21G26
 -40692873.03848 -31694799.13346  21955194.8674                   21955196.5664
 -32820794.77948 -25561844.45246  21489836.9384                   21489835.5044
 -49179935.40447 -38308169.07945  22679311.9694                   22679311.1644
 -11828226.33447  -9202776.74944  23303080.0784                   23303081.4844
 -64506474.74348 -50225302.91845  22270518.0864                   22270514.9774
 -53137127.94148 -41391704.07946  20934654.9534                   20934652.7974
 -22017479.03047 -17142934.63145  22783558.6954                   22783558.6414
  -2536125.59246  -1967164.10943  24892583.5474                   24892583.5594
 -22616578.65947 -17616372.32945  22474906.7034                   22474906.4184
 11  9 30  0  7  0.0000000  0  9G25G29G12G15G02G05G30G21G26
 -40730902.87048 -31724432.78346  21947958.2504                   21947959.5944
 -32975170.92048 -25682137.50946  21460459.7894                   21460459.0704
 -49175787.28047 -38304936.79545  22680100.9534                   22680100.9654
 -12008904.00147  -9343564.29244  23268698.7584                   23268699.2664
 -64544057.87548 -50254588.44445  22263366.4844                   22263363.4104
 -53165319.01948 -41413671.14046  20929290.2114                   20929288.3634
 -22102259.57547 -17208997.41445  22767425.5164                   22767425.4694
  -2678581.38246  -2078168.52443  24865475.1884                   24865474.8954
 -22781808.42947 -17745122.67245  22443464.7664                   22443464.2194
 11  9 30  0  7 30.0000000  0  9G25G29G12G15G02G05G30G21G26
 -40768464.06548 -31753701.25246  21940810.5234                   21940812.1134
 -33129287.53748 -25802228.32646  21431132.4534                   21431131.4574
 -49171426.58747 -38301538.89245  22680931.0864                   22680931.0784
 -12189486.93947  -9484278.08944  23234334.3984                   23234334.4654
 -64581529.38747 -50283787.00145  22256235.4844                   22256232.2424
 -53193123.19148 -41435336.71146  20923998.8754                   20923997.4734
 -22186459.72647 -17274607.97045  22751402.5234                   22751402.5514
  -2821030.50646  -2189167.71943  24838368.5394                   24838368.4574
 -22946686.46547 -17873598.94945  22412088.8524                   22412089.0594
 11  9 30  0  8  0.0000000  0  9G25G29G12G15G02G05G30G21G26
 -40805561.59548 -31782608.42246  21933751.1644                   21933752.6994
 -33283144.63648 -25922116.92346  21401855.0704                   21401853.3984
 -49166859.29047 -38297979.96345  22681800.5554                   22681800.3714
 -12369975.43647  -9624918.25144  23199988.0784                   23199989.2234
 -64618891.75347 -50312900.53045  22249125.7734                   22249123.0474
 -53220545.42748 -41456704.67246  20918780.7114                   20918778.5274
 -22270083.02047 -17339769.02345  22735489.3594                   22735489.9574
  -2963476.42946  -2300164.43543  24811261.3594                   24811261.6094
 -23111211.57847 -18001800.19845  22380780.5634                   22380780.5354
 11  9 30  0  8 30.0000000  0  9G25G29G12G15G02G05G30G21G26
 -40842198.43348 -31811156.62346  21926779.5394                   21926781.1024
 -33436740.44048 -26041801.89946  21372626.2504                   21372625.2034
 -49162088.90647 -38294262.83645  22682708.3364                   22682708.0164
 -12550366.88547  -9765482.81944  23165660.5864                   23165661.1484
 -64656144.76947 -50341928.84945  22242036.8054                   22242033.8134
 -53247588.86548 -41477777.47146  20913634.7664                   20913633.0394
 -22353130.73747 -17404481.54445  22719686.5554                   22719686.8524
  -3105919.74846  -2411159.05243  24784155.5394                   24784155.1764
 -23275380.77947 -18129724.12745  22349540.5084                   22349539.9414
 11  9 30  0  9  0.0000000  0  9G25G29G12G15G02G05G30G21G26
 -40878375.89548 -31839346.86546  21919894.8834                   21919896.4924
 -33590071.63248 -26161280.71046  21343448.1094                   21343447.1844
 -49157117.18347 -38290388.78745  22683654.5164                   22683653.6174
 -12730657.02547  -9905968.44044  23131352.1024                   23131352.7934
 -64693287.45748 -50370871.20645  22234968.7734                   22234965.8484
 -53274254.34248 -41498555.73946  20908560.1804                   20908558.2974
 -22435602.64447 -17468745.41045  22703992.4144                   22703993.4574
  -3248359.81146  -2522151.23243  24757050.6094                   24757048.8834
 -23439189.43547 -18257367.12145  22318368.1174                   22318368.4774
 11  9 30  0  9 30.0000000  0  9G25G29G12G15G02G05G30G21G26
 -40914096.39648 -31867181.03046  21913097.8754                   21913098.6684
 -33743135.96348 -26280551.54846  21314320.6644                   21314319.8714
 -49151947.53547 -38286360.50745  22684638.1094                   22684637.1484
 -12910842.95347 -10046372.88544  23097063.7344                   23097064.6954
 -64730319.52347 -50399727.34545  22227922.0474                   22227918.1954
 -53300544.76748 -41519041.78346  20903557.5394                   20903555.4964
 -22517499.63247 -17532561.28845  22688408.0314                   22688408.4454
  -3390797.54146  -2633141.54243  24729944.3364                   24729945.0004
 -23602633.89747 -18384726.33445  22287265.8984                   22287266.2504
 11  9 30  0 10  0.0000000  0  9G25G29G12G15G02G05G30G21G26
 -40949363.92448 -31894662.24946  21906386.5864                   21906387.8164
 -33895932.52748 -26399613.74146  21285244.6484                   21285243.2154
 -49146584.25447 -38282181.37545  22685659.0474                   22685658.1094
 -13090922.84847 -10186694.68044  23062796.1334                   23062797.2734
 -64767242.16247 -50428498.22645  22220895.5394                   22220892.4774
 -53326463.98747 -41539238.57046  20898625.5704                   20898623.5204
 -22598824.13047 -17595931.03744  22672932.1954                   22672932.5204
  -3533234.55746  -2744131.31843  24702839.0784                   24702839.8014
 -23765712.00347 -18511800.07045  22256233.4774                   22256233.1804
 11  9 30  0 10 30.0000000  0  9G25G29G12G15G02G05G30G21G26
 -40984180.59248 -31921792.12746  21899761.2974                   21899763.0984
 -34048458.68148 -26518465.23246  21256219.7894                   21256219.0704
 -49141030.54047 -38277853.83345  22686715.9694                   22686715.2544
 -13270893.44347 -10326931.34044  23028549.0234                   23028549.0904
 -64804054.98047 -50457183.52245  22213890.3524                   22213887.5314
 -53352013.96747 -41559147.63446  20893763.0314                   20893761.1174
 -22679576.75647 -17658855.18145  22657566.0084                   22657566.0084
  -3675671.29046  -2855120.85543  24675734.3524                   24675734.9534
 -23928419.93247 -18638585.35445  22225271.0944                   22225270.5984
 11  9 30  0 11  0.0000000  0  9G25G29G12G15G02G05G30G21G26
 -41018548.56548 -31948572.39046  21893221.2194                   21893222.6254
 -34200711.80248 -26637103.97546  21227247.0704                   21227245.7114
 -49135288.97147 -38273379.92745  22687807.9224                   22687807.3714
 -13450751.32547 -10467080.14245  22994322.8134                   22994322.9844
 -64840757.12647 -50485782.58745  22206906.5314                   22206903.1484
 -53377196.78448 -41578770.60746  20888970.9384                   20888969.1684
 -22759758.16347 -17721334.19345  22642307.8834                   22642307.9964
  -3818107.83946  -2966110.28043  24648629.3204                   24648629.8364
 -24090753.55547 -18765078.95945  22194379.7504                   22194379.2664
 11  9 30  0 11 30.0000000  0  9G25G29G12G15G02G05G30G21G26
 -41052471.24348 -31975005.66246  21886765.9774                   21886767.7774
 -34352690.28147 -26755528.70946  21198326.3834                   21198325.3524
 -49129363.46047 -38268762.67645  22688935.7504                   22688935.6054
 -13630494.18847 -10607139.35445  22960118.5784                   22960119.2774
 -64877349.29047 -50514295.94745  22199943.2114                   22199939.8834
 -53402015.92148 -41598110.19746  20884247.8674                   20884246.0234
 -22839370.24047 -17783369.56345  22627158.6884                   22627158.1174
  -3960545.98546  -3077100.92943  24621524.6094                   24621525.0084
 -24252710.39047 -18891278.97845  22163560.7734                   22163560.4734
 11  9 30  0 12  0.0000000  0  9G25G29G12G15G02G05G30G21G26
 -39510530.79048 -30773493.64746  22180187.4304                   22180188.8244
 -32928967.57448 -25646134.34046  21469251.8594                   21469250.2544
 -47547837.83947 -37036405.10145  22989890.0164                   22989889.9844
 -12234693.88947  -9519502.59844  23225730.1564                   23225730.4454
 -63338410.79847 -49315123.10145  22492793.3834                   22492790.0594
 -51851053.36048 -40389567.93646  21179386.5634                   21179384.4884
 -21342992.08547 -16617360.62745  22911909.0314                   22911909.7664
  -2527561.16346  -1960489.31943  24894212.9224                   24894212.7504
 -22838862.14847 -17789578.96045  22432606.9384                   22432606.2074
 11  9 30  0 12 30.0000000  0 10G25G29G12G15G02G05G30G21G26G18
 -39543574.17448 -30799241.74946  22173899.5004                   22173900.9614
 -33080393.63648 -25764128.61246  21440436.3834                   21440434.8954
 -47541557.20647 -37031511.13345  22991084.8914                   22991084.6024
 -12414201.57347  -9659378.51345  23191570.6564                   23191571.9344
 -63374786.10247 -49343467.48845  22485871.0554                   22485867.9694
 -51875155.67948 -40408348.94546  21174799.7974                   21174798.3204
 -21421472.27747 -16678513.99345  22896975.1024                   22896975.3244
  -2670006.23146  -2071485.41343  24867106.1724                   24867104.9654
 -23000058.43147 -17915186.34945  22401932.0704                   22401931.6094
   2896799.38855   2272835.82452  24794027.6174                   24794030.9534
 11  9 30  0 13  0.0000000  0 10G25G29G12G15G02G05G30G21G26G18
 -39576182.77747 -30824651.08146  22167694.1484                   22167695.5864
 -33231541.05547 -25881905.79246  21411673.8204                   21411672.4924
 -47535104.89047 -37026483.38945  22992313.1954                   22992312.9224
 -12593588.28247  -9799160.18145  23157434.8284                   23157435.1374
 -63411053.33047 -49371727.65445  22478969.9844                   22478966.6484
 -51898904.38848 -40426854.42646  21170280.7114                   21170279.2734
 -21499389.15547 -16739228.43845  22882147.8674                   22882148.2974
  -2812456.89646  -2182485.85743  24839998.6024                   24839998.1954
 -23160869.83447 -18040493.82445  22371330.5784                   22371330.2274
   2722093.97146   2136702.30542  24760782.7664                   24760787.0434
 11  9 30  0 13 30.0000000  0 10G25G29G12G15G02G05G30G21G26G18
 -39608357.84948 -30849722.59546  22161571.7974                   22161572.8054
 -33382406.09047 -25999462.91146  21382964.9454                   21382963.8014
 -47528482.72547 -37021323.31645  22993573.6024                   22993572.7384
 -12772849.24247  -9938843.87745  23123322.5634                   23123322.8524
 -63447210.83047 -49399902.31345  22472088.9774                   22472085.7504
 -51922300.52548 -40445085.18446  21165828.6804                   21165827.3874
 -21576742.56447 -16799503.79745  22867427.9844                   22867428.4614
  -2954912.13846  -2293489.81243  24812889.8594                   24812890.5634
 -23321291.94647 -18165497.97745  22340803.1414                   22340802.7854
   2547557.31946   2000700.23343  24727569.1254                   24727573.1414
 11  9 30  0 14  0.0000000  0 10G25G29G12G15G02G05G30G21G26G18
 -39640096.24447 -30874453.83446  22155532.1414                   22155534.4264
 -33532980.71247 -26116793.75146  21354311.6954                   21354310.8794
 -47521688.09247 -37016028.84245  22994866.0864                   22994866.6884
 -12951975.98147 -10078422.96945  23089235.2664                   23089235.9414
 -63483252.96647 -49427987.08545  22465230.7584                   22465227.0704
 -51945340.86348 -40463038.69046  21161444.2424                   21161442.7544
 -21653527.86047 -16859336.47945  22852816.3524                   22852816.4574
  -3097367.01946  -2404493.47343  24785782.7424                   24785781.4304
 -23481315.16547 -18290191.29845  22310351.5084                   22310351.4844
   2373195.91046   1864834.69843  24694388.7504                   24694391.6954
 11  9 30  0 14 30.0000000  0 10G25G29G12G15G02G05G30G21G26G18
 -39671397.83647 -30898844.71646  22149575.6954                   22149577.4924
 -33683260.01348 -26233894.46246  21325714.5864                   21325713.2344
 -47514720.87747 -37010599.91245  22996192.4614                   22996192.3554
 -13130962.77746 -10217893.02945  23055175.2584                   23055175.7034
 -63519176.56447 -49455979.48245  22458394.5084                   22458390.6994
 -51968025.23248 -40480714.81746  21157127.6564                   21157125.5824
 -21729743.55347 -16918725.32745  22838313.3914                   22838313.3204
  -3239819.15346  -2515495.04943  24758674.0084                   24758674.0514
 -23640933.55347 -18414569.15845  22279977.0474                   22279976.4844
   2199014.00646   1729109.04843  24661242.4924                   24661246.0044
 11  9 30  0 15  0.0000000  0 10G25G29G12G15G02G05G30G21G26G18
 -39702263.34148 -30922895.77046  22143702.3284                   22143703.5704
 -33833239.45348 -26350761.51246  21297174.4384                   21297173.2114
 -47507582.98347 -37005037.94845  22997550.1884                   22997550.3204
 -13309804.78947 -10357250.24744  23021142.5004                   23021142.7584
 -63554979.28947 -49483877.70045  22451581.9384                   22451578.7154
 -51990353.91548 -40498113.79246  21152878.3444                   21152876.8554
 -21805388.78547 -16977669.65745  22823918.2034                   22823918.1844
  -3382267.19446  -2626493.42043  24731567.8134                   24731567.6804
 -23800141.42747 -18538627.14145  22249680.9224                   22249680.9694
   2025015.08546   1593525.89343  24628131.1254                   24628134.8874
 11  9 30  0 15 30.0000000  0 10G25G29G12G15G02G05G30G21G26G18
 -39732694.78947 -30946608.61646  22137910.8674                   22137912.7114
 -33982916.48647 -26467392.93046  21268691.6644                   21268690.5704
 -47500276.61147 -36999344.74345  22998941.1564                   22998941.2544
 -13488497.71547 -10496491.32745  22987138.1954                   22987138.1564
 -63590660.63447 -49511681.31045  22444791.6724                   22444788.3324
 -52012328.85148 -40515237.12046  21148696.7584                   21148694.9224
 -21880464.35647 -17036170.09544  22809631.4454                   22809631.9144
  -3524710.96046  -2737488.41943  24704460.5314                   24704461.0634
 -23958934.69147 -18662362.08645  22219463.4694                   22219462.9844
   1851200.27446   1458086.22343  24595055.1024                   24595058.3754
 11  9 30  0 16  0.0000000  0 10G25G29G12G15G02G05G30G21G26G18
 -39762693.20448 -30969984.02846  22132202.6094                   22132204.1254
 -34132286.82348 -26583785.35746  21240267.5944                   21240266.0944
 -47492802.50347 -36993520.80445  23000363.5084                   23000363.3674
 -13667037.34647 -10635612.93345  22953164.0634                   22953163.1414
 -63626218.44747 -49539388.66345  22438025.2894                   22438022.7424
 -52033950.94448 -40532085.49646  21144582.6484                   21144580.5434
 -21954969.79547 -17094226.29045  22795453.9454                   22795453.7624
  -3667149.26346  -2848479.19443  24677355.3524                   24677355.5234
 -24117308.35147 -18785770.04045  22189325.9534                   22189324.9264
   1677573.03046   1322792.78443  24562013.9924                   24562017.6294
 11  9 30  0 16 30.0000000  0 10G25G29G12G15G02G05G30G21G26G18
 -39792262.27047 -30993024.85246  22126576.2194                   22126576.9694
 -34281349.12548 -26699937.76546  21211901.6564                   21211901.0354
 -47485165.81047 -36987570.18345  23001816.8054                   23001816.7734
 -13845421.45447 -10774613.34845  22919217.9304                   22919217.2114
 -63661653.53747 -49567000.40145  22431281.7274                   22431279.5784
 -52055223.63548 -40548661.62746  21140534.2894                   21140532.4024
 -22028907.37947 -17151840.00544  22781383.5784                   22781383.8204
  -3809583.61646  -2959466.82344  24650251.7734                   24650251.7504
 -24275259.90047 -18908849.09645  22159268.7424                   22159268.3594
   1504133.25146   1187645.23243  24529009.8984                   24529013.1954
 11  9 30  0 17  0.0000000  0 10G25G29G12G15G02G05G30G21G26G18
 -39821404.90048 -31015733.39146  22121030.4694                   22121031.7194
 -34430101.51148 -26815848.65446  21183595.4694                   21183593.9574
 -47477369.59047 -36981495.24145  23003300.3204                   23003299.6374
 -14023647.29347 -10913490.44245  22885302.3444                   22885302.1414
 -63696965.59747 -49594516.24045  22424562.4064                   22424559.3094
 -52076149.79248 -40564967.71546  21136552.1094                   21136550.6094
 -22102278.58447 -17209012.36144  22767421.3364                   22767422.0354
  -3952014.62846  -3070451.89943  24623146.3594                   24623147.1484
 -24432786.12347 -19031596.71945  22129292.3054                   22129291.6334
   1330881.89246   1052644.65642  24496040.4924                   24496043.6954
 11  9 30  0 17 30.0000000  0 10G25G29G12G15G02G05G30G21G26G18
 -39850126.99548 -31038114.23746  22115564.9064                   22115565.8444
 -34578544.56448 -26931518.51946  21155347.2734                   21155346.1764
 -47469420.27247 -36975301.01045  23004812.9384                   23004813.0864
 -14201714.98947 -11052244.32345  22851416.9454                   22851416.6334
 -63732157.92647 -49621938.80345  22417865.5704                   22417861.7734
 -52096734.88248 -40581008.04746  21132635.0084                   21132632.8674
 -22175087.98947 -17265746.93945  22753565.9224                   22753567.6804
  -4094446.17146  -3181437.43143  24596043.0234                   24596044.5824
 -24589886.67047 -19154012.63545  22099397.1334                   22099396.2894
   1157817.39946    917789.60443  24463106.5944                   24463110.7504
 11  9 30  0 18  0.0000000  0 10G25G29G12G15G02G05G30G21G26G18
 -39878430.73648 -31060169.06746  22110178.8364                   22110180.0944
 -34726675.49148 -27046945.14546  21127159.0784                   21127157.7854
 -47461320.38947 -36968989.45545  23006354.4384                   23006354.1294
 -14379620.78347 -11190872.00645  22817562.5004                   22817562.3554
 -63767229.43747 -49649267.21545  22411191.1884                   22411187.8714
 -52116980.53048 -40596783.87046  21128782.3204                   21128780.2584
 -22247336.51147 -17322044.48645  22739818.3364                   22739818.6294
  -4236877.97946  -3292423.09543  24568938.9614                   24568939.0704
 -24746557.66047 -19276093.85445  22069583.4064                   22069582.5864
    984941.53246    783081.45342  24430208.9924                   24430212.7704
 11  9 30  0 18 30.0000000  0 10G25G29G12G15G02G05G30G21G26G18
 -39906319.57448 -31081900.62545  22104871.6484                   22104872.7734
 -34874493.20548 -27162127.71846  21099029.8444                   21099028.6374
 -47453073.46147 -36962563.31045  23007924.0314                   23007923.7854
 -14557362.50847 -11329371.88045  22783739.3284                   22783739.1334
 -63802180.55347 -49676501.82245  22404540.7894                   22404537.4064
 -52136890.59848 -40612298.19946  21124993.2034                   21124991.7234
 -22319026.07347 -17377906.47644  22726175.7424                   22726176.7194
  -4379311.71046  -3403410.26343  24541834.1954                   24541835.1884
 -24902796.24947 -19397838.14145  22039852.1254                   22039851.6884
    812254.52646    648520.56642  24397347.7504                   24397350.5554
 11  9 30  0 19  0.0000000  0 10G25G29G12G15G02G05G30G21G26G18
 -39933796.92847 -31103311.51645  22099642.6094                   22099643.8284
 -35021995.62348 -27277064.60946  21070961.5234                   21070959.8674
 -47444683.41747 -36956025.66045  23009520.7274                   23009520.2624
 -14734937.76547 -11467742.04345  22749947.8594                   22749947.6954
 -63837011.83347 -49703643.03945  22397911.9844                   22397909.6454
 -52156468.09548 -40627553.37746  21121267.8524                   21121266.0824
 -22390158.82147 -17433334.59245  22712640.1414                   22712640.5634
  -4521748.24546  -3514399.71543  24514729.7584                   24514730.0234
 -25058599.72847 -19519243.36545  22010203.7734                   22010203.1724
    639756.88046    514107.12542  24364522.1334                   24364524.8984
 11  9 30  0 19 30.0000000  0 10G25G29G12G15G02G05G30G21G26G18
 -39960865.19547 -31124403.66145  22094491.7034                   22094493.1214
 -35169180.31148 -27391753.91446  21042953.3134                   21042951.4224
 -47436153.19947 -36949378.78444  23011143.6564                   23011143.2934
 -14912343.09647 -11605979.78745  22716188.1644                   22716189.2074
 -63871722.42547 -49730690.20345  22391307.2114                   22391303.9574
 -52175715.01848 -40642550.96746  21117605.6724                   21117603.3714
 -22460735.87947 -17488329.69145  22699209.1884                   22699210.0634
  -4664187.58046  -3625391.27443  24487624.5234                   24487624.3874
 -25213964.20347 -19640306.52745  21980639.2504                   21980638.2774
    467450.36146    379842.67843  24331733.5004                   24331735.6764
 11  9 30  0 20  0.0000000  0 10G25G29G12G15G02G05G30G21G26G18
 -39987527.98448 -31145179.83645  22089417.9064                   22089419.5234
 -35316045.35748 -27506194.16046  21015005.3674                   21015004.3834
 -47427486.13547 -36942625.27445  23012792.4454                   23012792.6214
 -15089576.30547 -11744083.43545  22682462.1954                   22682461.8054
 -63906313.03947 -49757643.90645  22384725.0084                   22384721.5514
 -52194634.66348 -40657293.51346  21114005.0704                   21114002.9144
 -22530759.29947 -17542893.37644  22685884.8594                   22685884.6334
  -4806631.30246  -3736386.29443  24460518.0944                   24460517.7464
 -25368887.38947 -19761025.81145  21951157.8204                   21951157.5274
    295335.34246    245727.36343  24298980.6024                   24298984.1214
 11  9 30  0 20 30.0000000  0 10G25G29G12G15G02G05G30G21G26G18
 -40013789.82047 -31165643.59345  22084420.8364                   22084421.5234
 -35462590.44548 -27620385.08746  20987118.9384                   20987117.2704
 -47418687.72747 -36935769.41444  23014467.7504                   23014467.4844
 -15266636.19447 -11882052.00945  22648768.8134                   22648768.3204
 -63940784.91747 -49784505.07545  22378165.0084                   22378162.1094
 -52213231.09948 -40671784.23146  21110466.4534                   21110464.5084
 -22600232.49347 -17597028.31445  22672664.4614                   22672664.6844
  -4949081.30046  -3847386.13643  24433411.3054                   24433411.1564
 -25523367.50348 -19881399.84245  21921761.4384                   21921760.5594
    123411.18546    111760.82543  24266265.6094                   24266266.9654
 11  9 30  0 21  0.0000000  0 10G25G29G12G15G02G05G30G21G26G18
 -40039654.01147 -31185797.47745  22079498.7814                   22079500.5704
 -35608813.87848 -27734325.37946  20959293.3674                   20959292.3364
 -47409761.63147 -36928814.08245  23016165.7194                   23016166.3014
 -15443520.21047 -12019883.55945  22615108.3204                   22615107.9804
 -63975138.43647 -49811274.02645  22371627.4694                   22371624.5904
 -52231507.45148 -40686025.51646  21106988.3524                   21106986.7584
 -22669157.48547 -17650736.07345  22659548.1644                   22659548.8954
  -5091538.74546  -3958391.80143  24406302.1724                   24406301.6644
 -25677401.87447 -20001426.55845  21892449.7274                   21892448.4964
    -48321.39846    -22056.49543  24233584.6484                   24233586.9614
 11  9 30  0 21 30.0000000  0 10G25G29G12G15G02G05G30G21G26G18
 -38489702.82047 -29978043.30945  22374444.2734                   22374446.0434
 -34179288.64148 -26620409.56646  21231322.9304                   21231321.8054
 -45825291.05747 -35694161.73744  23317681.3284                   23317681.2974
 -14044799.59147 -10929971.24745  22881276.2814                   22881276.1564
 -62433952.17447 -48610349.64845  22664905.3054                   22664902.4694
 -50674046.10148 -39472419.24546  21403363.4694                   21403360.9614
 -21162113.80247 -16476416.30044  22946329.0394                   22946329.0514
  -3658579.68546  -2841800.22343  24678984.9694                   24678985.1294
 -24255561.92647 -18893499.24345  22163016.7894                   22163016.2274
   1355563.99046   1071880.50343  24500735.1414                   24500737.1454
 11  9 30  0 22  0.0000000  0 10G25G29G12G15G02G05G30G21G26G18
 -38514780.76547 -29997584.54046  22369672.2504                   22369673.6294
 -34324862.07448 -26733843.37846  21203621.0784                   21203620.2234
 -45816118.61747 -35687014.46044  23319426.1174                   23319426.0004
 -14221322.63847 -11067521.53145  22847684.9454                   22847684.8364
 -62468068.30347 -48636933.63145  22658413.2734                   22658410.1134
 -50691690.59948 -39486168.17646  21400005.6094                   21400003.6374
 -21229947.61147 -16529273.79944  22933420.4064                   22933421.4024
  -3801053.58646  -2952818.64643  24651873.1954                   24651872.7384
 -24408694.63947 -19012823.32645  22133876.4774                   22133875.5274
   1184217.40446    938363.94443  24468129.6484                   24468130.2814
 11  9 30  0 22 30.0000000  0 10G25G29G12G15G02G05G30G21G26G18
 -38539472.12647 -30016824.56245  22364973.5004                   22364975.2384
 -34470109.52148 -26847023.17446  21175981.5784                   21175979.9064
 -45806830.25847 -35679776.83645  23321193.6644                   23321193.5944
 -14397663.03647 -11204929.48945  22814128.8754                   22814127.8054
 -62502067.81947 -48663426.74145  22651943.7504                   22651940.4574
 -50709025.12548 -39499675.57346  21396707.2664                   21396705.1914
 -21297240.37747 -16581709.71244  22920614.9694                   22920615.2344
  -3943538.31046  -3063845.43643  24624759.2274                   24624758.4844
 -24561374.04047 -19131794.20845  22104822.3754                   22104821.0864
   1013063.12746    804997.24543  24435559.0944                   24435561.2974
 11  9 30  0 23  0.0000000  0 10G25G29G12G15G02G05G30G21G26G18
 -38563778.75547 -30035764.79345  22360348.0394                   22360349.7194
 -34615027.57148 -26959946.29246  21148404.5864                   21148403.5394
 -45797428.23947 -35672450.65645  23322982.8914                   23322982.8674
 -14573816.82547 -11342192.06445  22780607.5784                   22780606.2624
 -62535949.45247 -48689827.98245  22645496.6564                   22645492.8094
 -50726051.41548 -39512942.79046  21393467.0004                   21393465.0204
 -21363992.75947 -16633724.55545  22907912.3284                   22907912.7234
  -4086035.00256  -3174881.82653  24597642.3364                   24597642.0864
 -24713595.70347 -19250408.40645  22075855.7584                   22075854.1254
    842103.09546    671782.01243  24403025.3834                   24403028.5904
 11  9 30  0 23 30.0000000  0 10G25G29G12G15G02G05G30G21G26G18
 -38587704.97947 -30054408.59645  22355795.1884                   22355796.5904
 -34759615.38648 -27072612.08046  21120890.3054                   21120888.6914
 -45787916.56547 -35665039.03745  23324793.1414                   23324793.1954
 -14749782.50947 -11479308.04945  22747121.8364                   22747120.9494
 -62569714.27147 -48716138.20545  22639070.9304                   22639067.7774
 -50742772.72348 -39525972.34846  21390285.2504                   21390283.0394
 -21430207.89247 -16685320.73944  22895312.4454                   22895312.9224
  -4228544.33646  -3285927.88643  24570523.6564                   24570523.3324
 -24865357.77048 -19368664.46445  22046975.8674                   22046974.8954
    671337.39746    538718.05043  24370529.9384                   24370532.9224
 11  9 30  0 24  0.0000000  0 10G25G29G12G15G02G05G30G21G26G18
 -38611252.98647 -30072757.70845  22351314.0474                   22351315.2584
 -34903869.95047 -27185018.19146  21093439.5084                   21093438.8674
 -45778298.19147 -35657544.27145  23326624.0554                   23326623.0204
 -14925555.93547 -11616274.22945  22713673.2974                   22713672.5004
 -62603361.12347 -48742356.50945  22632668.6414                   22632664.9454
 -50759191.52348 -39538766.19546  21387160.8674                   21387159.1374
 -21495886.77547 -16736499.08845  22882814.2034                   22882814.0824
  -4371066.18046  -3396983.68543  24543403.1884                   24543402.5904
 -25016656.36047 -19486559.38145  22018184.7034                   22018183.4144
    500767.61746    405806.89943  24338071.7194                   24338074.3794
 11  9 30  0 24 30.0000000  0 10G25G29G12G15G02G05G30G21G26G18
 -38634425.69947 -30090814.37045  22346904.9454                   22346906.1414
 -35047788.89547 -27297162.76946  21066052.8284                   21066051.3634
 -45768575.78147 -35649968.42144  23328473.9614                   23328474.2664
 -15101134.34647 -11753088.44045  22680262.1884                   22680261.5664
 -62636889.83947 -48768482.73145  22626287.9694                   22626284.1454
 -50775310.42448 -39551326.35346  21384093.3444                   21384091.3674
 -21561030.97647 -16787260.77445  22870417.4224                   22870417.8674
  -4513600.93846  -3508049.55043  24516279.1484                   24516279.9494
 -25167488.20647 -19604090.60045  21989482.3984                   21989481.1644
    330394.92546    273049.24343  24305651.1564                   24305652.3554
 11  9 30  0 25  0.0000000  0 10G25G29G12G15G02G05G30G21G26G18
 -38657226.31247 -30108581.09445  22342565.9064                   22342567.2544
 -35191370.58347 -27409044.54146  21038730.0634                   21038728.3404
 -45758753.03347 -35642314.38244  23330343.1254                   23330343.1884
 -15276514.91347 -11889748.48345  22646888.4924                   22646888.1174
 -62670300.43747 -48794516.94945  22619930.2034                   22619926.8984
 -50791132.01948 -39563654.85746  21381082.8054                   21381080.7854
 -21625642.61647 -16837607.48345  22858122.4224                   22858122.3634
  -4656149.42946  -3619126.14343  24489153.2114                   24489152.7584
 -25317850.22148 -19721255.72345  21960869.0864                   21960867.5744
    160219.97946    140445.75743  24273266.8444                   24273268.4884
 11  9 30  0 25 30.0000000  0 10G25G29G12G15G02G05G30G21G26G18
 -38679658.03247 -30126060.36845  22338297.2274                   22338298.8914
 -35334612.77847 -27520661.77846  21011471.8284                   21011470.1174
 -45748833.13747 -35634584.67244  23332230.6254                   23332231.0314
 -15451694.88447 -12026252.24945  22613552.4304                   22613551.6994
 -62703592.82147 -48820459.04245  22613594.6884                   22613591.7424
 -50806658.85748 -39575753.67046  21378127.8674                   21378125.9144
 -21689723.70347 -16887540.79845  22845928.2504                   22845928.3524
  -4798711.86546  -3730213.65743  24462023.6804                   24462023.4024
 -25467739.48247 -19838052.46745  21932346.4844                   21932344.7274
     -9756.12546      7997.19043  24240921.4454                   24240922.2774
 11  9 30  0 26  0.0000000  0 10G25G29G12G15G02G05G30G21G26G18
 -38701723.53547 -30143254.29745  22334098.1884                   22334100.6094
 -35477513.09148 -27632012.61246  20984278.6334                   20984276.8244
 -45738819.07147 -35626781.57344  23334136.5164                   23334136.4144
 -15626670.97947 -12162597.12245  22580255.5634                   22580254.3134
 -62736766.56447 -48846308.68045  22607281.3204                   22607278.9144
 -50821893.43948 -39587624.74946  21375229.0394                   21375227.0044
 -21753275.75647 -16937061.88544  22833834.8134                   22833834.6884
  -4941289.66946  -3841313.08143  24434892.1334                   24434890.4224
 -25617152.54347 -19954478.14145  21903913.9534                   21903912.6914
   -179532.44646   -124295.68243  24208613.2974                   24208615.3094
 11  9 30  0 26 30.0000000  0 10G25G29G12G15G02G05G30G21G26G18
 -38723425.53647 -30160164.96645  22329968.3914                   22329970.0044
 -35620068.70948 -27743094.85046  20957150.9844                   20957148.9454
 -45728713.58047 -35618907.22344  23336059.3674                   23336058.8484
 -15801439.79047 -12298780.47645  22546997.5084                   22546997.1134
 -62769821.26847 -48872065.57745  22600991.8284                   22600987.8874
 -50836838.00348 -39599269.85246  21372384.9384                   21372383.2544
 -21816300.28747 -16986171.88044  22821841.6804                   22821841.8524
  -5083882.52146  -3952424.25543  24407757.8834                   24407756.9184
 -25766086.01447 -20070530.11145  21875573.0784                   21875571.1994
   -349107.56346   -256431.83643  24176344.3594                   24176344.6564
 11  9 30  0 27  0.0000000  0 10G25G29G12G15G02G05G30G21G26G18
 -38744766.31047 -30176794.15045  22325907.6644                   22325909.4264
 -35762277.04848 -27853906.47946  20930090.0004                   20930087.7974
 -45718519.05547 -35610963.49944  23337999.3444                   23337999.5084
 -15975997.94347 -12434799.68145  22513780.4774                   22513779.9574
 -62802755.83947 -48897728.85245  22594724.1484                   22594720.8714
 -50851494.51848 -39610690.49346  21369595.4454                   21369593.8524
 -21878798.46247 -17034871.73144  22809948.1174                   22809949.0274
  -5226490.20746  -4063547.03243  24380620.3674                   24380619.6134
 -25914535.96747 -20186205.30545  21847323.4694                   21847322.3594
   -518479.76846   -388409.83643  24144114.5084                   24144113.4804
 11  9 30  0 27 30.0000000  0 10G25G29G12G15G02G05G30G21G26G18
 -38765749.45647 -30193144.67245  22321914.6954                   22321916.4304
 -35904136.43848 -27964446.20346  20903094.8914                   20903092.9064
 -45708239.46147 -35602953.49044  23339955.4454                   23339955.2584
 -16150342.75947 -12570652.66645  22480603.4454                   22480602.2734
 -62835570.35247 -48923298.56145  22588480.3134                   22588476.0394
 -50865866.09048 -39621889.11946  21366861.1094                   21366859.4844
 -21940772.77947 -17083163.38644  22798155.6954                   22798154.8674
  -5369113.82646  -4174682.16443  24353480.2664                   24353479.1684
 -26062499.80947 -20301501.72145  21819166.8444                   21819165.6484
   -687648.34146   -520229.13343  24111922.1884                   24111922.5474
 11  9 30  0 28  0.0000000  0 10G25G29G12G15G02G05G30G21G26G18
 -38786378.12947 -30209218.98045  22317989.4454                   22317990.7464
 -36045644.65048 -28074712.28646  20876166.7734                   20876164.8284
 -45697877.98046 -35594879.68544  23341927.1254                   23341927.3364
 -16324471.45447 -12706337.24845  22447467.6884                   22447466.9264
 -62868264.69047 -48948774.63045  22582258.3834                   22582254.9574
 -50879955.23148 -39632867.67046  21364180.1644                   21364177.4694
 -22002225.18047 -17131048.36044  22786461.1094                   22786461.3834
  -5511753.82846  -4285830.09643  24326336.5004                   24326335.7304
 -26209974.83347 -20416417.24645  21791102.9224                   21791101.8794
   -856612.95346   -651889.53543  24079768.7974                   24079768.3984
 11  9 30  0 28 30.0000000  0 10G25G29G12G15G02G05G30G21G26G18
 -38806656.28347 -30225020.16545  22314130.7664                   22314131.8954
 -36186800.42748 -28184703.74246  20849305.6644                   20849303.6454
 -45687438.61046 -35586745.19744  23343914.0474                   23343914.1684
 -16498381.60247 -12841851.51645  22414373.4694                   22414372.9024
 -62900839.69747 -48974157.74145  22576060.0394                   22576056.4694
 -50893765.48148 -39643628.88546  21361552.0864                   21361549.5314
 -22063158.60647 -17178528.91044  22774865.1334                   22774866.2304
  -5654411.78646  -4396992.08643  24299190.0394                   24299187.9224
 -26356958.51447 -20530949.90545  21763133.0944                   21763131.5744
  -1025373.34046   -783390.78543  24047653.8204                   24047653.8674
 11  9 30  0 29  0.0000000  0 10G25G29G12G15G02G05G30G21G26G18
 -38826588.27647 -30240551.61345  22310337.2034                   22310339.0664
 -36327603.00348 -28294419.98446  20822511.5474                   20822510.1414
 -45676925.65946 -35578553.31444  23345914.5634                   23345914.1484
 -16672072.01347 -12977194.59345  22381321.5634                   22381321.0004
 -62933296.38247 -48999448.62245  22569883.4384                   22569879.5904
 -50907300.81648 -39654175.88546  21358976.4224                   21358974.1024
 -22123576.22747 -17225607.55044  22763368.0944                   22763369.4264
  -5797089.38246  -4508169.29844  24272039.1414                   24272037.5664
 -26503449.06347 -20645098.30045  21735256.8594                   21735255.5984
  -1193929.70646   -914733.11343  24015579.2274                   24015578.6684
 11  9 30  0 29 30.0000000  0 10G25G29G12G15G02G05G30G21G26G18
 -38846175.62847 -30255814.50145  22306610.4384                   22306612.5554
 -36468048.80348 -28403858.21246  20795785.7274                   20795784.2384
 -45666340.96846 -35570305.60444  23347928.5314                   23347928.9064
 -16845538.03547 -13112362.79345  22348311.4924                   22348310.3754
 -62965633.08547 -49024646.00745  22563730.1334                   22563725.6414
 -50920562.23448 -39664509.44346  21356452.7344                   21356450.7664
 -22183478.62347 -17272284.74644  22751969.6334                   22751969.6254
  -5939785.45946  -4619361.00743  24244884.7894                   24244883.8404
 -26649442.03647 -20758858.97445  21707475.5944                   21707474.2344
  -1362279.96346  -1045914.83443  23983543.1484                   23983542.8134
 11  9 30  0 30  0.0000000  0 10G25G29G12G15G02G05G30G21G26G18
 -38865419.47347 -30270809.71945  22302948.1644                   22302950.0984
 -36608133.57248 -28513015.12646  20769128.4774                   20769126.7154
 -45655685.65346 -35562002.82744  23349956.1174                   23349956.5314
 -17018774.78347 -13247352.36445  22315346.1174                   22315345.3134
 -62997847.72347 -49049748.29245  22557599.5234                   22557595.3594
 -50933550.55548 -39674630.19246  21353981.0784                   21353979.0514
 -22242865.76347 -17318560.41944  22740668.7894                   22740669.0904
  -6082499.08046  -4730566.36043  24217726.0784                   24217725.4384
 -26794932.37747 -20872227.96945  21679789.4384                   21679787.9024
  -1530420.78646  -1176933.39143  23951546.5314                   23951545.5864
 11  9 30  0 30 30.0000000  0 10G25G29G12G15G02G05G30G21G26G18
 -37308903.70447 -29057940.29545  22599143.6174                   22599144.8404
 -35172431.71448 -27394286.36146  21042333.7034                   21042331.6054
 -44069544.85346 -34326049.04144  23651788.8134                   23651788.9804
 -15616354.81447 -12154557.47145  22582217.6564                   22582216.4654
 -61454520.25347 -47847155.41945  22851284.9384                   22851281.3634
 -49370849.08848 -38456940.72446  21651353.2194                   21651351.0354
 -20726319.22247 -16136835.82445  23029258.1414                   23029258.0234
  -4649807.08546  -3614182.90443  24490358.4144                   24490358.0554
 -25364493.86647 -19757600.48545  21951992.3284                   21951990.8014
   -122927.48246    -80185.13243  24219383.1644                   24219383.4884
 11  9 30  0 31  0.0000000  0 10G25G29G12G15G02G05G30G21G26G18
 -37327472.11047 -29072409.20045  22595610.0474                   22595611.6174
 -35311790.32648 -27502877.44146  21015814.3984                   21015812.6134
 -44058759.92746 -34317645.27444  23653841.3914                   23653841.1524
 -15789126.31147 -12289184.51545  22549339.8594                   22549339.0594
 -61486491.90647 -47872068.38745  22845200.7974                   22845197.7074
 -49383300.43048 -38466643.04646  21648983.8134                   21648982.1174
 -20784684.34047 -16182315.12244  23018151.5634                   23018151.4694
  -4792558.77546  -3725417.90443  24463193.7194                   24463193.6844
 -25508972.43447 -19870181.10945  21924499.0474                   21924498.0594
   -290649.46946   -210877.32543  24187466.6174                   24187466.5004
 11  9 30  0 31 30.0000000  0 10G25G29G12G15G02G05G30G21G26G18
 -37345706.99547 -29086618.21745  22592139.4924                   22592141.9614
 -35450781.83848 -27611182.46347  20989365.1414                   20989363.3794
 -44047914.65446 -34309194.48844  23655905.1174                   23655905.1254
 -15961660.34747 -12423626.52045  22516507.6334                   22516506.7114
 -61518341.51947 -47896886.21045  22839139.7424                   22839136.5084
 -49395487.14348 -38476139.16646  21646664.9534                   21646662.8324
 -20842541.02747 -16227398.23044  23007141.9534                   23007141.8364
  -4935329.81646  -3836667.96444  24436025.5554                   24436025.5474
 -25652940.19547 -19982363.70845  21897102.5164                   21897101.3634
   -458160.40446   -341405.01743  24155590.4384                   24155589.8014
 11  9 30  0 32  0.0000000  0 10G25G29G12G15G02G05G30G21G26G18
 -37363611.68647 -29100569.93945  22588732.9694                   22588734.9844
 -35589404.43448 -27719200.02346  20962985.9924                   20962984.3134
 -44037012.19046 -34300699.13544  23657979.5704                   23657979.7194
 -16133954.14847 -12557881.34045  22483721.1884                   22483720.3754
 -61550068.55547 -47921608.55945  22833102.8984                   22833099.2344
 -49407411.64248 -38485430.96946  21644395.8444                   21644394.1414
 -20899891.74447 -16272087.10744  22996228.2194                   22996228.5274
  -5078120.78546  -3947933.55343  24408853.3674                   24408852.5514
 -25796394.14947 -20094145.90345  21869804.9064                   21869803.5744
   -625459.34146   -471767.54743  24123754.5394                   24123754.3404
 11  9 30  0 32 30.0000000  0 10G25G29G12G15G02G05G30G21G26G18
 -37381190.14147 -29114267.45945  22585387.3914                   22585389.0354
 -35727656.99748 -27826929.25147  20936677.4614                   20936676.2624
 -44026056.41447 -34292162.26244  23660065.0394                   23660064.5164
 -16306005.32947 -12691947.10445  22450981.1954                   22450980.0354
 -61581673.76547 -47946235.93745  22827088.8674                   22827084.5354
 -49419077.04948 -38494520.87346  21642175.5944                   21642174.3164
 -20956739.17947 -16316383.79844  22985410.3204                   22985410.5204
  -5220933.13046  -4059215.80943  24381677.6484                   24381676.2624
 -25939332.46447 -20205526.34745  21842603.9534                   21842602.7624
   -792546.22746   -601964.89543  24091958.3754                   24091958.7664
 11  9 30  0 33  0.0000000  0 10G25G29G12G15G02G05G30G21G26G18
 -37398445.94747 -29127713.55645  22582104.0004                   22582105.3284
 -35865537.60448 -27934368.64547  20910439.7274                   20910437.7464
 -44015051.04946 -34283586.72644  23662159.4844                   23662158.7074
 -16477811.52347 -12825821.96745  22418287.5084                   22418286.1414
 -61613157.64847 -47970768.80845  22821097.2974                   22821093.8404
 -49430487.05648 -38503411.77346  21640004.4924                   21640002.1914
 -21013086.20447 -16360290.56244  22974688.1414                   22974687.8524
  -5363767.88046  -4170515.46043  24354497.1334                   24354495.1484
 -26081752.39047 -20316502.82945  21815502.5704                   21815501.1134
   -959420.82346   -731996.82543  24060202.8204                   24060202.3674
 11  9 30  0 33 30.0000000  0 10G25G29G12G15G02G05G30G21G26G18
 -37415381.72447 -29140910.28345  22578881.0864                   22578883.7464
 -36003043.75348 -28041516.26146  20884272.9304                   20884271.1724
 -44003998.61846 -34274974.50644  23664262.7894                   23664262.5474
 -16649369.44547 -12959503.36545  22385641.1174                   22385640.0124
 -61644519.41747 -47995206.49945  22815129.0314                   22815125.9224
 -49441643.71748 -38512105.25746  21637881.7274                   21637879.6134
 -21068934.30347 -16403808.55844  22964060.1954                   22964060.5234
  -5506624.74446  -4281832.38943  24327311.2894                   24327310.4024
 -26223650.82247 -20427072.95145  21788500.5004                   21788498.9414
  -1126081.63846   -861862.06843  24028488.6484                   24028487.4614
 11  9 30  0 34  0.0000000  0 10G25G29G12G15G02G05G30G21G26G18
 -37432001.29747 -29153860.61545  22575718.4694                   22575720.2734
 -36140174.46548 -28148371.32146  20858178.0944                   20858176.0944
 -43992902.74746 -34266328.43444  23666372.9774                   23666374.1604
 -16820676.59447 -13092989.33645  22353041.9384                   22353040.6484
 -61675759.36347 -48019549.27545  22809184.0704                   22809181.0904
 -49452549.90448 -38520603.56346  21635805.8594                   21635804.2974
 -21124286.41747 -16446940.05644  22953527.0474                   22953526.6644
  -5649504.87046  -4393167.37543  24300121.7814                   24300120.8404
 -26365025.27947 -20537234.78345  21761597.8134                   21761595.9494
  -1292528.60146   -991560.83143  23996814.7584                   23996813.1604
 11  9 30  0 34 30.0000000  0 10G25G29G12G15G02G05G30G21G26G18
 -37448309.83847 -29166568.57845  22572614.8754                   22572616.5744
 -36276929.04648 -28254933.27947  20832154.4224                   20832152.5704
 -43981768.66946 -34257652.61644  23668492.3754                   23668492.8094
 -16991732.17747 -13226279.32345  22320491.2664                   22320489.3524
 -61706878.95147 -48043798.28345  22803262.0084                   22803259.0824
 -49463210.29248 -38528910.34746  21633777.3134                   21633775.0634
 -21179146.74347 -16489688.32244  22943087.8914                   22943087.9224
  -5792410.98146  -4504522.67143  24272928.1094                   24272927.2154
 -26505874.84347 -20646987.62845  21734794.5704                   21734792.7424
  -1458762.86746  -1121093.78043  23965181.6094                   23965180.5594
 11  9 30  0 35  0.0000000  0 10G25G29G12G15G02G05G30G21G26G18
 -37464309.52647 -29179035.87945  22569570.4694                   22569572.4454
 -36413304.05948 -28361199.48746  20806202.6254                   20806201.1764
 -43970598.69546 -34248948.76244  23670618.0084                   23670618.3594
 -17162532.37047 -13359370.27845  22287988.6644                   22287987.3364
 -61737877.55447 -48067952.99045  22797363.8204                   22797360.4804
 -49473626.27048 -38537026.66046  21631795.2814                   21631793.3634
 -21233516.53047 -16532054.39044  22932741.2194                   22932741.1374
  -5935342.50247  -4615897.70543  24245728.7974                   24245729.0784
 -26646196.04047 -20756328.73945  21708092.3754                   21708090.4804
  -1624782.90046  -1250459.74743  23933587.8054                   23933587.6524
 11  9 30  0 35 30.0000000  0 10G25G29G12G15G02G05G30G21G26G18
 -37480003.80747 -29191265.19345  22566584.3444                   22566586.2074
 -36549298.25148 -28467168.94147  20780324.1414                   20780322.7464
 -43959396.14746 -34240219.56644  23672749.4844                   23672749.6994
 -17333074.48347 -13492260.11145  22255536.0554                   22255534.4104
 -61768754.86147 -48092013.19345  22791488.0784                   22791484.0234
 -49483800.71648 -38544954.78646  21629858.9064                   21629857.4384
 -21287398.30347 -16574040.19044  22922487.9774                   22922487.6804
  -6078300.28146  -4727293.29343  24218524.5314                   24218523.9344
 -26785985.94447 -20865255.86845  21681490.6174                   21681489.5474
  -1790587.76146  -1379658.18243  23902035.9454                   23902035.3404
 11  9 30  0 36  0.0000000  0 10G25G29G12G15G02G05G30G21G26G18
 -37495396.15847 -29203259.25745  22563655.0474                   22563657.3204
 -36684910.03448 -28572840.41046  20754517.8054                   20754516.3634
 -43948164.28646 -34231467.53444  23674887.0084                   23674887.2704
 -17503355.68047 -13624946.65445  22223132.3054                   22223131.1954
 -61799511.01547 -48115978.97945  22785634.7814                   22785630.7854
 -49493736.35048 -38552696.80146  21627968.3364                   21627966.5084
 -21340794.68947 -16615647.73144  22912326.6254                   22912326.8204
  -6221284.95346  -4838709.81143  24191315.4774                   24191314.8484
 -26925242.46747 -20973767.37845  21654991.3914                   21654989.8634
  -1956177.13946  -1508688.57143  23870525.5314                   23870524.6564
 11  9 30  0 36 30.0000000  0 10G25G29G12G15G02G05G30G21G26G18
 -37510489.55347 -29215020.36145  22560783.0084                   22560784.6414
 -36820136.72448 -28678211.81347  20728785.4534                   20728783.9304
 -43936906.17846 -34222695.03944  23677029.7194                   23677030.1174
 -17673372.95047 -13757427.53945  22190779.4924                   22190777.7624
 -61830145.47247 -48139849.92445  22779805.7814                   22779802.0234
 -49503435.98848 -38560254.94246  21626122.4454                   21626120.6454
 -21393707.66047 -16656878.59444  22902257.5394                   22902257.4614
  -6364296.90546  -4950147.56443  24164101.4924                   24164099.7074
 -27063962.25047 -21081860.65145  21628593.8134                   21628592.2814
  -2121550.08046  -1637550.39143  23839055.8284                   23839055.6254
 11  9 30  0 37  0.0000000  0 10G25G29G12G15G02G05G30G21G26G18
 -37525289.74247 -29226552.97845  22557966.5234                   22557968.1724
 -36954978.84048 -28783283.53747  20703125.4614                   20703124.0554
 -43925627.21646 -34213906.31044  23679176.2974                   23679176.8754
 -17843125.83647 -13889702.42245  22158476.0004                   22158474.5704
 -61860660.56647 -48163627.89545  22773998.8674                   22773994.9264
 -49512904.67048 -38567633.11546  21624321.1484                   21624318.6094
 -21446142.04247 -16697736.54044  22892280.4694                   22892279.6884
  -6507339.05746  -5061608.85943  24136881.0864                   24136880.2974
 -27202145.23647 -21189535.63246  21602298.1724                   21602297.1294
  -2286708.12246  -1766244.82843  23807627.3914                   23807626.9304
 11  9 30  0 37 30.0000000  0 10G25G29G12G15G02G05G30G21G26G18
 -37539798.01547 -29237858.15345  22555206.0314                   22555207.4574
 -37089432.37848 -28888052.46447  20677539.5394                   20677537.6644
 -43914328.87546 -34205102.45644  23681327.2974                   23681326.6954
 -18012609.50947 -14021767.50545  22126224.2974                   22126223.4654
 -61891054.19247 -48187311.20745  22768215.1024                   22768211.4884
 -49522142.72748 -38574831.58546  21622563.2194                   21622561.1334
 -21498098.45647 -16738222.05644  22882393.1644                   22882392.9344
  -6650409.56646  -5173092.36043  24109655.9304                   24109654.1454
 -27339786.50747 -21296788.51145  21576106.2734                   21576104.5274
  -2451648.80046  -1894769.82343  23776239.5004                   23776239.3134
 11  9 30  0 38  0.0000000  0 10G25G29G12G15G02G05G30G21G26G18
 -37554017.79747 -29248938.50745  22552499.8204                   22552501.6094
 -37223495.60548 -28992517.25747  20652028.5164                   20652026.4844
 -43903014.06046 -34196285.77444  23683479.9694                   23683480.1254
 -18181821.42147 -14153620.84945  22094024.3204                   22094023.5554
 -61921326.43447 -48210899.93645  22762454.5634                   22762450.8014
 -49531153.21548 -38581852.72746  21620848.2974                   21620846.7034
 -21549579.28347 -16778337.00244  22872597.0864                   22872596.0314
  -6793509.09346  -5284598.30643  24082424.7664                   24082422.8674
 -27476883.80147 -21403617.50645  21550017.2194                   21550015.4694
  -2616371.41446  -2023124.95143  23744893.6094                   23744893.3794
 11  9 30  0 38 30.0000000  0 10G25G29G12G15G02G05G30G21G26G18
 -37567955.15347 -29259798.79945  22549847.4224                   22549849.8094
 -37357169.10648 -29096678.35447  20626591.0864                   20626589.0434
 -43891689.01446 -34187461.18244  23685634.5634                   23685635.0554
 -18350761.26547 -14285262.18145  22061875.8754                   22061875.5664
 -61951479.80747 -48234396.03345  22756716.5314                   22756713.0434
 -49539941.45748 -38588700.67946  21619176.0864                   21619174.0234
 -21600589.84247 -16818085.51044  22862890.0554                   22862888.3754
  -6936641.31346  -5396129.82543  24055188.2814                   24055186.5044
 -27613437.23748 -21510022.72145  21524031.5704                   21524030.6134
  -2780878.04146  -2151311.75843  23713589.0394                   23713587.9184
 11  9 30  0 39  0.0000000  0 10G25G29G12G15G02G05G30G21G26G18
 -37581611.90347 -29270440.45145  22547248.8594                   22547250.5274
 -37490449.62348 -29200533.24747  20601228.7034                   20601226.6804
 -43880355.25046 -34178629.73244  23687791.7894                   23687792.2384
 -18519425.11447 -14416688.46445  22029780.0784                   22029779.0394
 -61981512.55747 -48257798.12345  22751001.0004                   22750997.1454
 -49548508.22948 -38595376.06346  21617545.6954                   21617543.8914
 -21651131.08447 -16857468.26544  22853272.5084                   22853271.1254
  -7079804.95347  -5507685.84343  24027944.0004                   24027943.2274
 -27749442.64548 -21616000.90946  21498151.0864                   21498149.7464
  -2945166.19146  -2279328.37443  23682326.8914                   23682325.1564
 11  9 30  0 39 30.0000000  0 10G25G29G12G15G02G05G30G21G26G18
 -37594990.46447 -29280865.32045  22544703.0394                   22544704.8984
 -37623334.20848 -29304079.61046  20575941.5944                   20575939.2114
 -43869015.09346 -34169793.28044  23689949.0234                   23689949.7584
 -18687808.99147 -14547896.59145  21997737.8204                   21997736.6804
 -62011423.69147 -48281105.48545  22745309.6564                   22745305.9804
 -49556855.50048 -38601880.41246  21615957.2424                   21615955.0164
 -21701204.58647 -16896486.60444  22843743.2424                   22843742.7114
  -7223000.09346  -5619266.28943  24000695.6024                   24000694.5394
 -27884896.55947 -21721549.34846  21472374.8834                   21472373.4574
  -3109235.05246  -2407174.06843  23651104.9384                   23651103.8954
 11  9 30  0 40  0.0000000  0 10G25G29G12G15G02G05G30G21G26G18
 -36032673.62047 -28063475.56645  22842002.0164                   22842003.0704
 -36180396.35248 -28179712.38347  20850523.2274                   20850521.2234
 -42282251.84946 -32933354.50344  23991900.4694                   23991901.5664
 -17280484.39947 -13451279.93045  22265542.5084                   22265541.1764
 -60465792.02847 -47076717.13345  23039433.1094                   23039429.1604
 -47989565.24448 -37380615.25646  21914202.8834                   21914200.1724
 -20175391.12147 -15707541.06244  23134096.5164                   23134095.5084
  -5790801.82746  -4503267.46243  24273232.6884                   24273232.2424
 -26444371.88848 -20599062.52445  21746497.5164                   21746495.8054
  -1697658.15846  -1307243.90243  23919718.8984                   23919717.8164
 11  9 30  0 40 30.0000000  0 10G25G29G12G15G02G05G30G21G26G18
 -36045505.76847 -28073474.67545  22839560.2034                   22839562.1334
 -36312483.30948 -28282637.22347  20825387.9924                   20825385.9654
 -42270908.30246 -32924515.41744  23994059.0944                   23994059.7464
 -17448299.92847 -13582045.16845  22233608.4614                   22233606.8794
 -60495459.68147 -47099834.75545  23033787.6174                   23033783.6024
 -47997481.19448 -37386783.50046  21912696.7814                   21912694.7234
 -20224536.77547 -15745836.37944  23124743.5554                   23124743.2194
  -5934060.48346  -4614897.48843  24245971.6804                   24245970.0704
 -26578715.24548 -20703745.58945  21720932.5474                   21720931.1174
  -1861285.65946  -1434745.74843  23888581.0084                   23888579.8594
 11  9 30  0 41  0.0000000  0 10G25G29G12G15G02G05G30G21G26G18
 -36058069.22147 -28083264.38345  22837169.3364                   22837170.3674
 -36444167.98048 -28385248.59647  20800329.0084                   20800327.3324
 -42259567.03546 -32915678.15544  23996217.1414                   23996217.8014
 -17615826.68947 -13712585.41145  22201729.0084                   22201727.4654
 -60525004.52447 -47122856.67244  23028165.5394                   23028161.5554
 -48005184.92848 -37392786.38846  21911230.4614                   21911227.9414
 -20273221.70947 -15783772.69644  23115479.7034                   23115478.6214
  -6077351.54547  -4726552.66143  24218703.8914                   24218703.5434
 -26712498.97047 -20807992.58345  21695474.1564                   21695473.0554
  -2024691.29646  -1562074.71243  23857486.5634                   23857486.0784
 11  9 30  0 41 30.0000000  0 10G25G29G12G15G02G05G30G21G26G18
 -36070368.88347 -28092848.56745  22834829.2664                   22834830.5274
 -36575450.17548 -28487546.35547  20775346.7974                   20775344.7814
 -42248233.16146 -32906846.64344  23998373.8594                   23998375.5594
 -17783063.31847 -13842899.58045  22169904.9384                   22169903.3484
 -60554428.08847 -47145784.09845  23022566.4224                   23022562.9344
 -48012680.87548 -37398627.37546  21909803.7114                   21909801.3914
 -20321450.31547 -15821353.43344  23106302.0554                   23106302.3984
  -6220676.84647  -4838234.56044  24191430.3054                   24191428.9264
 -26845722.23547 -20911802.84745  21670122.8594                   21670121.0474
  -2187876.12146  -1689231.53343  23826433.3524                   23826432.6764
 11  9 30  0 42  0.0000000  0 10G25G29G12G15G02G05G30G21G26G18
 -36082408.18247 -28102229.83845  22832538.5164                   22832539.3524
 -36706327.97448 -28589528.99347  20750441.7894                   20750439.2304
 -42236909.88946 -32898023.36644  24000529.0084                   24000529.5744
 -17950007.38947 -13972985.80445  22138136.7114                   22138134.8014
 -60583730.63647 -47168617.24145  23016989.7034                   23016986.2194
 -48019971.55548 -37404308.41146  21908416.7274                   21908413.6134
 -20369225.08147 -15858580.52844  23097210.9844                   23097209.3404
  -6364036.94047  -4949943.52043  24164149.5234                   24164148.2624
 -26978382.63348 -21015174.52545  21644878.1804                   21644876.5904
  -2350839.48646  -1816215.84943  23795422.0084                   23795421.5434
 11  9 30  0 42 30.0000000  0 10G25G29G12G15G02G05G30G21G26G18
 -36094189.97347 -28111410.45145  22830295.9144                   22830296.9574
 -36836798.92548 -28691194.62847  20725613.8364                   20725611.5004
 -42225599.21946 -32889209.93944  24002681.6254                   24002682.3364
 -18116655.11247 -14102841.08845  22106424.0394                   22106423.3444
 -60612911.44947 -47191355.50144  23011437.0944                   23011433.2734
 -48027058.98748 -37409831.06746  21907067.8284                   21907065.3134
 -20416548.15447 -15895455.66544  23088205.3524                   23088205.2974
  -6507432.02047  -5061679.76844  24136862.7194                   24136862.1414
 -27110477.18348 -21118105.28246  21619741.8834                   21619740.3874
  -2513580.07746  -1943026.49543  23764453.6334                   23764453.0354
 11  9 30  0 43  0.0000000  0 10G25G29G12G15G02G05G30G21G26G18
 -36105717.43747 -28120392.90145  22828102.2814                   22828104.6604
 -36966860.90447 -28792541.57847  20700863.9384                   20700860.7464
 -42214304.62346 -32880409.02144  24004830.9534                   24004831.2544
 -18283004.09247 -14232463.57045  22074768.8284                   22074767.6174
 -60641969.97547 -47213998.48345  23005907.5314                   23005903.0664
 -48033945.46748 -37415197.14146  21905757.2814                   21905754.9574
 -20463422.03547 -15931980.76944  23079285.3204                   23079285.4414
  -6650862.21247  -5173443.41244  24109568.5164                   24109567.2154
 -27242003.30247 -21220593.10845  21594713.2504                   21594711.5944
  -2676097.33746  -2069663.16244  23733527.5864                   23733527.4924
 11  9 30  0 43 30.0000000  0 10G25G29G12G15G02G05G30G21G26G18
 -36116996.18747 -28129181.54845  22825956.2424                   22825957.3874
 -37096514.31048 -28893570.15846  20676191.3834                   20676188.9614
 -42203031.71047 -32871624.99344  24006976.2734                   24006976.7154
 -18449053.60147 -14361852.73045  22043171.1884                   22043169.5274
 -60670908.65647 -47236548.04444  23000400.8284                   23000397.0474
 -48040636.24248 -37420410.71346  21904484.6094                   21904481.6844
 -20509851.59847 -15968159.65644  23070450.5704                   23070449.2584
  -6794330.41647  -5285236.63444  24082267.1724                   24082266.0274
 -27372961.04647 -21322638.02945  21569792.2814                   21569790.2384
  -2838392.94846  -2196127.12043  23702643.5944                   23702643.5004
 11  9 30  0 44  0.0000000  0 10G25G29G12G15G02G05G30G21G26G18
 -36128028.62747 -28137778.25445  22823856.4224                   22823857.9064
 -37225756.33148 -28994278.20047  20651597.9844                   20651595.3054
 -42191782.11347 -32862859.13544  24009116.5554                   24009117.2934
 -18614799.83347 -14491005.54546  22011630.4064                   22011628.4964
 -60699726.09547 -47259003.18244  22994916.3284                   22994913.1254
 -48047132.58048 -37425472.77346  21903247.7894                   21903245.8204
 -20555838.55147 -16003993.60144  23061699.3754                   23061698.9384
  -6937836.28647  -5397059.21944  24054958.8524                   24054956.9924
 -27503347.05947 -21424237.46145  21544980.8524                   21544979.0084
  -3000465.25446  -2322417.04943  23671803.0704                   23671800.7894
 11  9 30  0 44 30.0000000  0 10G25G29G12G15G02G05G30G21G26G18
 -36138817.62247 -28146185.26845  22821803.5704                   22821805.1334
 -37354584.71248 -29094663.91147  20627082.5234                   20627080.3324
 -42180558.67247 -32854113.67544  24011253.0314                   24011252.9454
 -18780239.73547 -14619919.67345  21980148.4224                   21980146.9844
 -60728421.71947 -47281363.39244  22989456.2814                   22989451.8054
 -48053436.68848 -37430385.04246  21902048.1174                   21902046.0474
 -20601384.97447 -16039484.33144  23053031.1884                   23053031.7154
  -7081379.12547  -5508910.66344  24027643.6804                   24027642.1214
 -27633158.22047 -21525388.95745  21520278.5004                   21520276.6954
  -3162313.47247  -2448532.34443  23641002.8054                   23641002.1764
 11  9 30  0 45  0.0000000  0 10G25G29G12G15G02G05G30G21G26G18
 -36149369.14747 -28154407.24645  22819796.1024                   22819797.4064
 -37483000.33348 -29194727.98447  20602645.8984                   20602643.5314
 -42169366.70947 -32845392.74344  24013382.6094                   24013383.4574
 -18945373.11248 -14748594.94246  21948724.1024                   21948722.6914
 -60756998.09847 -47303630.66544  22984017.9304                   22984014.0084
 -48059553.74648 -37435151.57246  21900884.1484                   21900882.4694
 -20646496.34047 -16074635.99044  23044447.5704                   23044447.1254
  -7224962.40747  -5620793.57244  24000320.5864                   24000318.1454
 -27762394.87248 -21626092.78145  21495686.0314                   21495683.5314
  -3323939.63346  -2574474.60443  23610246.5234                   23610245.8244
 11  9 30  0 45 30.0000000  0 10G25G29G12G15G02G05G30G21G26G18
 -36159686.39847 -28162446.68545  22817832.2584                   22817834.5514
 -37611000.82248 -29294468.59047  20578288.5474                   20578285.7734
 -42158209.63347 -32836698.97944  24015505.7664                   24015506.6094
 -19110196.97048 -14877029.02946  21917358.8364                   21917357.2424
 -60785454.91847 -47325804.79344  22978603.3284                   22978598.9884
 -48065486.18447 -37439774.22746  21899755.0394                   21899752.7074
 -20691174.99747 -16109450.50044  23035945.2734                   23035945.0474
  -7368586.41747  -5732708.24744  23972988.8914                   23972987.9844
 -27891054.55648 -21726347.03645  21471202.5704                   21471200.7034
  -3485342.88446  -2700243.17843  23579532.6174                   23579531.3524
 11  9 30  0 46  0.0000000  0 10G25G29G12G15G02G05G30G21G26G18
 -36169772.42647 -28170305.92445  22815913.1254                   22815915.3634
 -37738584.20648 -29393884.17947  20554010.0704                   20554007.6134
 -42147090.09247 -32828034.48544  24017621.6954                   24017622.4494
 -19274708.19547 -15005219.52346  21886054.2664                   21886052.4884
 -60813791.48547 -47347885.19744  22973210.7894                   22973206.9184
 -48071235.80547 -37444254.42546  21898661.0864                   21898658.8244
 -20735423.51847 -16143929.83444  23027525.6484                   23027524.7034
  -7512251.16247  -5844654.68044  23945651.4304                   23945648.8014
 -28019135.00948 -21826149.94345  21446829.6954                   21446828.5434
  -3646522.49246  -2825837.47143  23548860.1334                   23548858.9344
 11  9 30  0 46 30.0000000  0 10G25G29G12G15G02G05G30G21G26G18
 -36179632.69147 -28177989.24645  22814036.9614                   22814038.4024
 -37865750.57848 -29492974.82047  20529810.7664                   20529808.3404
 -42136013.28046 -32819403.26844  24019729.2274                   24019730.0634
 -19438906.11247 -15133165.86245  21854807.7034                   21854806.5314
 -60842009.99647 -47369873.62744  22967840.9534                   22967836.9344
 -48076807.91147 -37448596.30046  21897600.9384                   21897598.8984
 -20779246.66347 -16178077.68044  23019185.7664                   23019185.5354
  -7655959.37647  -5956634.97244  23918303.7664                   23918302.9414
 -28146635.61048 -21925501.01146  21422567.2034                   21422565.0124
  -3807480.07846  -2951258.72543  23518230.6884                   23518230.7854
 11  9 30  0 47  0.0000000  0 10G25G29G12G15G02G05G30G21G26G18
 -36189270.46547 -28185499.20645  22812203.3054                   22812204.6524
 -37992498.06748 -29591739.05547  20505691.5474                   20505689.1764
 -42124982.16247 -32810807.67444  24021829.2424                   24021829.5594
 -19602788.01848 -15260865.96446  21823622.3284                   21823620.7664
 -60870109.97147 -47391769.70144  22962493.8054                   22962489.5944
 -48082204.64647 -37452801.51946  21896573.6334                   21896570.9184
 -20822647.01147 -16211896.08744  23010926.6414                   23010926.4774
  -7799711.15047  -6068649.27844  23890948.5474                   23890947.2584
 -28273554.10348 -22024398.49245  21398415.6564                   21398413.0044
  -3968214.77046  -3076506.33443  23487644.1804                   23487643.7584
 11  9 30  0 47 30.0000000  0 10G25G29G12G15G02G05G30G21G26G18
 -36198688.63247 -28192838.04845  22810410.5784                   22810412.3524
 -38118824.67648 -29690175.32347  20481652.0864                   20481650.0554
 -42113998.96747 -32802249.39244  24023919.0784                   24023919.7704
 -19766350.92847 -15388317.49046  21792496.6884                   21792495.9304
 -60898090.80847 -47413572.92044  22957169.4844                   22957165.5904
 -48087427.90047 -37456871.55446  21895579.4844                   21895578.0434
 -20865626.95147 -16245386.88444  23002748.6334                   23002748.2034
  -7943506.46047  -6180697.50044  23863585.5704                   23863583.1094
 -28399887.91348 -22122840.38245  21374374.5164                   21374372.8794
  -4128726.05446  -3201579.86643  23457099.8594                   23457098.7664
 11  9 30  0 48  0.0000000  0 10G25G29G12G15G02G05G30G21G26G18
 -36207890.21247 -28200008.14245  22808659.1414                   22808662.2424
 -38244727.90348 -29788281.68547  20457693.4774                   20457691.5514
 -42103066.33747 -32793730.48843  24025999.0164                   24026000.3714
 -19929591.14147 -15515517.56946  21761432.8754                   21761431.8094
 -60925951.94747 -47435282.87444  22951867.1804                   22951863.1174
 -48092480.08547 -37460808.30846  21894618.1414                   21894616.3404
 -20908188.81347 -16278551.92644  22994648.7504                   22994648.8484
  -8087345.59447  -6292779.84344  23836213.9774                   23836210.8874
 -28525634.41448 -22220824.60346  21350445.6414                   21350443.4144
  -4289012.82446  -3326478.48043  23426598.8594                   23426597.2734
 11  9 30  0 48 30.0000000  0 10G25G29G12G15G02G05G30G21G26G18
 -36216878.96647 -28207012.38445  22806949.2974                   22806951.3984
 -38370206.29348 -29886057.01247  20433815.4924                   20433813.7154
 -42092188.13946 -32785254.07643  24028069.5394                   24028070.3674
 -20092506.75848 -15642464.71746  21730431.4844                   21730430.2154
 -60953693.81547 -47456899.90344  22946587.8204                   22946584.1764
 -48097364.14347 -37464614.03846  21893688.4304                   21893686.8554
 -20950335.88247 -16311393.75844  22986628.9224                   22986627.8834
  -8231228.99247  -6404896.68444  23808833.3524                   23808831.7234
 -28650791.92148 -22318349.88945  21326629.3754                   21326626.6764
  -4449075.06846  -3451202.16144  23396139.3674                   23396137.6764
 11  9 30  0 49  0.0000000  0 10G25G29G12G15G02G05G30G21G26G18
 -36225658.08847 -28213853.26845  22805278.5784                   22805280.3484
 -38495258.04248 -29983499.88547  20410019.3594                   20410017.4964
 -42081366.98946 -32776822.08543  24030128.6804                   24030129.6764
 -20255094.78747 -15769156.60345  21699491.9924                   21699490.7974
 -60981316.01647 -47478423.69344  22941331.4774                   22941327.2664
 -48102082.22347 -37468290.43846  21892790.7974                   21892788.5274
 -20992070.70447 -16343914.37244  22978686.9694                   22978686.2194
  -8375157.08647  -6517048.32844  23781444.9454                   23781443.8284
 -28775357.99248 -22415414.32445  21302924.6804                   21302922.2154
  -4608912.07347  -3575750.25243  23365723.3054                   23365721.5824
 11  9 30  0 49 30.0000000  0 10G25G29G12G15G02G05G30G21G26G18
 -34658809.25447 -26992932.11745  23103439.9064                   23103442.1374
 -37044455.56748 -28853004.39947  20686097.5004                   20686095.3634
 -40495184.82947 -31540836.03144  24331969.3594                   24331970.3054
 -18841925.87747 -14667985.93446  21968409.4614                   21968407.2854
 -59433395.86247 -46272252.10844  23235891.3444                   23235887.6804
 -46531215.18447 -36244238.17146  22191716.8594                   22191715.2234
 -19457973.29247 -15148513.72444  23270615.5084                   23270614.9654
  -6943703.99847  -5401630.28144  24053841.3834                   24053839.5514
 -27323905.01948 -21284411.96145  21579127.3284                   21579124.8204
  -3193096.82846  -2472517.44444  23635143.2974                   23635142.4844
 11  9 30  0 50  0.0000000  0 10G25G29G12G15G02G05G30G21G26G18
 -34667175.65747 -26999451.40245  23101847.7734                   23101849.9304
 -37168644.79648 -28949775.17447  20662465.2034                   20662463.2074
 -40484483.44547 -31532497.36644  24334006.2664                   24334006.1334
 -19003846.96447 -14794158.12946  21937596.3284                   21937594.4774
 -59460774.60647 -46293586.19144  23230681.3054                   23230677.6454
 -46535605.16347 -36247658.90646  22190881.3674                   22190879.2774
 -19498888.53446 -15180395.70744  23262829.9774                   23262829.4104
  -7087719.02347  -5513849.65244  24026436.3984                   24026434.2814
 -27447278.36447 -21380546.99045  21555650.0634                   21555647.7544
  -3352478.29946  -2596710.62344  23604814.1174                   23604813.3524
 11  9 30  0 50 30.0000000  0 10G25G29G12G15G02G05G30G21G26G18
 -34675341.13247 -27005814.12645  23100294.1414                   23100295.7424
 -37292400.62048 -29046208.22747  20638915.0394                   20638913.5164
 -40473846.68146 -31524209.10043  24336028.8524                   24336030.6884
 -19165431.01647 -14920067.69046  21906847.5164                   21906845.5664
 -59488031.81647 -46314825.53544  23225494.6024                   23225490.1804
 -46539835.18747 -36250955.00146  22190076.2034                   22190074.5744
 -19539398.61847 -15211961.97744  23255121.0084                   23255120.6174
  -7231778.41147  -5626103.59344  23999022.8054                   23999021.2704
 -27570052.52648 -21476215.10846  21532286.6564                   21532284.9144
  -3511631.96547  -2720726.27644  23574527.9144                   23574527.0984
 11  9 30  0 51  0.0000000  0 10G25G29G12G15G02G05G30G21G26G18
 -34683308.24747 -27012022.28845  23098777.8914                   23098779.5904
 -37415720.29548 -29142301.42147  20615448.2584                   20615446.0354
 -40463276.55446 -31515972.68443  24338041.3284                   24338041.8364
 -19326674.57848 -15045711.92946  21876164.3134                   21876162.5864
 -59515166.46647 -46335969.41244  23220330.9924                   23220326.9414
 -46543907.07947 -36254127.89246  22189301.8984                   22189299.2504
 -19579505.57447 -15243214.13344  23247488.4924                   23247489.0594
  -7375881.59947  -5738391.65644  23971600.3364                   23971598.9804
 -27692224.75948 -21571414.20446  21509038.3364                   21509036.2344
  -3670556.22047  -2844563.22144  23544286.5314                   23544284.3594
 11  9 30  0 51 30.0000000  0 10G25G29G12G15G02G05G30G21G26G18
 -34691080.85647 -27018078.89145  23097298.9144                   23097300.5984
 -37538602.87747 -29238054.03747  20592064.7114                   20592062.4574
 -40452776.68446 -31507791.08943  24340039.8594                   24340040.8794
 -19487575.43948 -15171089.14746  21845545.6564                   21845543.4344
 -59542178.77047 -46357017.94144  23215190.7734                   23215186.2664
 -46547824.05047 -36257180.07446  22188556.2734                   22188554.0554
 -19619212.87147 -15274154.83344  23239933.0164                   23239932.8524
  -7520029.63647  -5850714.67844  23944169.9614                   23944168.0784
 -27813793.45747 -21666143.01346  21485904.5004                   21485902.0784
  -3829251.18347  -2968221.49044  23514087.3984                   23514085.2894
 11  9 30  0 52  0.0000000  0 10G25G29G12G15G02G05G30G21G26G18
 -34698661.52747 -27023985.91045  23095856.4844                   23095858.2974
 -37661045.40348 -29333463.74247  20568764.5554                   20568762.1804
 -40442349.24046 -31499665.87044  24342023.3284                   24342025.0594
 -19648129.86948 -15296196.41646  21814993.6414                   21814991.4574
 -59569067.77847 -46377970.39344  23210074.2974                   23210069.3984
 -46551587.25647 -36260112.42846  22187840.8674                   22187837.9804
 -19658522.39047 -15304785.63344  23232452.8444                   23232452.9024
  -7664221.76847  -5963072.07844  23916731.6414                   23916729.6134
 -27934755.81748 -21760399.33046  21462886.1804                   21462884.0274
  -3987715.58447  -3091700.04943  23483932.1414                   23483930.7384
 11  9 30  0 52 30.0000000  0 10G25G29G12G15G02G05G30G21G26G18
 -34706054.53047 -27029746.71545  23094449.5314                   23094451.3014
 -37783047.21848 -29428530.03947  20545548.3594                   20545546.1914
 -40431998.21046 -31491600.29244  24343992.3364                   24343994.3554
 -19808336.39247 -15421032.59446  21784506.9534                   21784504.8054
 -59595834.48247 -46398827.58144  23204980.2664                   23204976.5124
 -46555200.27547 -36262927.75546  22187152.3444                   22187150.7934
 -19697438.08546 -15335109.54144  23225046.9924                   23225046.9964
  -7808459.42547  -6075464.92544  23889282.7584                   23889281.1804
 -28055111.02247 -21854182.54446  21439983.0704                   21439980.9224
  -4145950.27347  -3214999.69744  23453821.1094                   23453819.7234
 11  9 30  0 53  0.0000000  0 10G25G29G12G15G02G05G30G21G26G18
 -34713262.94047 -27035363.67245  23093077.8444                   23093079.4384
 -37904606.25648 -29523251.31847  20522416.2504                   20522414.0164
 -40421725.69146 -31483595.80743  24345948.3134                   24345949.4614
 -19968191.68848 -15545595.07846  21754087.3204                   21754085.5984
 -59622478.10247 -46419588.85544  23199909.5864                   23199906.0554
 -46558665.00547 -36265627.51246  22186493.5084                   22186491.1844
 -19735962.41347 -15365128.50844  23217715.8134                   23217715.9804
  -7952742.61947  -6187893.24644  23861826.6804                   23861825.2194
 -28174856.40848 -21947490.58346  21417196.1094                   21417193.8794
  -4303954.44547  -3338119.68444  23423753.7344                   23423751.9964
 11  9 30  0 53 30.0000000  0 10G25G29G12G15G02G05G30G21G26G18
 -34720289.93847 -27040839.25445  23091739.5004                   23091742.3444
 -38025720.86748 -29617626.29047  20499368.4844                   20499366.6684
 -40411535.22146 -31475655.30443  24347887.7194                   24347888.3754
 -20127693.47248 -15669882.09346  21723735.1094                   21723732.9574
 -59648998.39047 -46440253.99045  23194863.6094                   23194859.4574
 -46561983.90947 -36268213.68946  22185861.7274                   22185859.7544
 -19774098.22247 -15394844.72644  23210459.9144                   23210458.5864
  -8097071.64447  -6300357.28244  23834361.8524                   23834360.3284
 -28293990.22748 -22040322.07646  21394526.1094                   21394523.6604
  -4461727.13347  -3461059.26544  23393730.6254                   23393729.0394
 11  9 30  0 54  0.0000000  0 10G25G29G12G15G02G05G30G21G26G18
 -34727141.12347 -27046177.85145  23090436.6414                   23090438.9734
 -38146391.39948 -29711655.24147  20476406.2274                   20476403.5664
 -40401431.43147 -31467782.31844  24349810.1644                   24349810.8954
 -20286840.90148 -15793893.01046  21693450.6254                   21693448.5514
 -59675397.44847 -46460824.69044  23189839.8674                   23189835.8554
 -46565161.51047 -36270689.72946  22185257.4064                   22185255.0944
 -19811850.56147 -15424262.12044  23203275.3914                   23203274.2704
  -8241448.63847  -6412858.72344  23806887.8134                   23806885.8674
 -28412512.40447 -22132676.95546  21371971.7894                   21371969.1914
  -4619270.32747  -3583820.05343  23363750.2664                   23363748.8364
 11  9 30  0 54 30.0000000  0 10G25G29G12G15G02G05G30G21G26G18
 -34733818.04247 -27051380.67144  23089166.4064                   23089168.7304
 -38266614.53648 -29805335.57947  20453528.1644                   20453526.0394
 -40391415.86146 -31459978.03544  24351716.7974                   24351717.8014
 -20445629.69548 -15917624.47346  21663233.6094                   21663231.6684
 -59701673.17147 -46481299.24644  23184840.0394                   23184836.0514
 -46568198.63748 -36273056.31846  22184679.2194                   22184676.6214
 -19849220.66347 -15453381.68544  23196164.0704                   23196163.6524
  -8385872.33947  -6525396.56844  23779404.8444                   23779402.2154
 -28530419.61048 -22224552.63946  21349535.0084                   21349533.0864
  -4776582.33946  -3706400.73343  23333815.6094                   23333814.7344
 11  9 30  0 55  0.0000000  0 10G25G29G12G15G02G05G30G21G26G18
 -34740324.02747 -27056450.28245  23087927.9924                   23087929.9734
 -38386388.34448 -29898665.77947  20430736.2194                   20430733.9414
 -40381490.89046 -31452244.39544  24353604.6644                   24353606.4224
 -20604057.12147 -16041074.34346  21633086.0554                   21633083.8794
 -59727825.51647 -46501677.70944  23179863.3674                   23179858.5434
 -46571097.40747 -36275315.09746  22184127.7504                   22184125.3714
 -19886211.38947 -15482205.64344  23189125.1414                   23189123.9104
  -8530343.22947  -6637971.14544  23751912.9614                   23751910.5824
 -28647710.03848 -22315947.72845  21327215.0164                   21327213.1174
  -4933662.13147  -3828800.42144  23303924.4064                   23303922.7154
 11  9 30  0 55 30.0000000  0 10G25G29G12G15G02G05G30G21G26G18
 -34746663.18947 -27061389.90945  23086721.8284                   23086723.8164
 -38505711.88048 -29991645.13947  20408029.4844                   20408027.0824
 -40371660.21246 -31444584.21443  24355476.0864                   24355477.4884
 -20762121.19147 -16164241.07746  21603007.1334                   21603005.1644
 -59753854.93346 -46521960.34744  23174909.0634                   23174905.1804
 -46573860.99648 -36277468.52946  22183601.9694                   22183599.5314
 -19922826.36547 -15510736.82144  23182157.2974                   23182156.6054
  -8674862.17547  -6750583.17844  23724411.6174                   23724410.3404
 -28764382.28947 -22406861.12146  21305013.0864                   21305011.2034
  -5090510.46346  -3951019.73644  23274077.1644                   23274075.5664
 11  9 30  0 56  0.0000000  0 10G25G29G12G15G02G05G30G21G26G18
 -34752839.67147 -27066202.78944  23085546.2974                   23085548.7234
 -38624584.41048 -30084273.06247  20385408.7344                   20385406.4774
 -40361927.82246 -31437000.58243  24357327.7974                   24357328.9534
 -20919820.38547 -16287123.47346  21572997.9454                   21572996.1134
 -59779762.25746 -46542147.89344  23169979.6414                   23169975.5984
 -46576492.54347 -36279519.07146  22183100.8204                   22183099.1454
 -19959069.47547 -15538978.19044  23175260.3754                   23175259.4534
  -8819429.85646  -6863233.23844  23696900.8444                   23696899.5904
 -28880435.43647 -22497292.09346  21282929.0704                   21282927.0594
  -5247127.44947  -4073058.80743  23244272.2894                   23244270.9454
 11  9 30  0 56 30.0000000  0 10G25G29G12G15G02G05G30G21G26G18
 -34758853.91647 -27070889.23544  23084402.0784                   23084403.6954
 -38743001.26248 -30176545.90747  20362874.9224                   20362872.3834
 -40352293.30746 -31429493.25743  24359160.7274                   24359162.2154
 -21077148.85548 -16409717.02146  21543059.1024                   21543057.6094
 -59805544.25346 -46562237.77244  23165073.5394                   23165069.7274
 -46578991.64447 -36281466.41946  22182625.2424                   22182622.9454
 -19994940.60347 -15566929.74044  23168434.3834                   23168433.0744
  -8964043.57647  -6975919.14144  23669382.7814                   23669380.6174
 -28995864.85647 -22587237.05946  21260963.5864                   21260961.4734
  -5403510.06447  -4194915.25344  23214514.8914                   23214513.0514
 11  9 30  0 57  0.0000000  0 10G25G29G12G15G02G05G30G21G26G18
 -34764710.86047 -27075453.12045  23083288.1334                   23083289.7854
 -38860962.17048 -30268463.48647  20340427.3364                   20340425.1524
 -40342761.11946 -31422065.69743  24360975.5944                   24360976.3954
 -21234105.68247 -16532020.97046  21513191.3444                   21513189.8914
 -59831202.30846 -46582231.06444  23160191.3674                   23160187.1414
 -46581362.19347 -36283313.59746  22182174.3134                   22182171.7344
 -20030444.42347 -15594595.07544  23161677.9774                   23161678.3714
  -9108705.94846  -7088642.96944  23641854.2344                   23641852.2234
 -29110670.25047 -22676695.77446  21239116.3754                   21239114.5744
  -5559659.52347  -4316590.02744  23184799.8364                   23184798.8554
 11  9 30  0 57 30.0000000  0 10G25G29G12G15G02G05G30G21G26G18
 -34770412.39947 -27079895.88845  23082202.9924                   23082204.6684
 -38978464.55448 -30360023.76547  20318067.8594                   20318065.4694
 -40333333.13346 -31414719.35943  24362769.6334                   24362770.0634
 -21390686.62348 -16654032.02446  21483395.3674                   21483392.7304
 -59856734.63646 -46602126.37244  23155332.1884                   23155328.2664
 -46583605.44748 -36285061.57946  22181747.5004                   22181745.7304
 -20065582.39746 -15621975.33144  23154991.4924                   23154990.8444
  -9253415.19746  -7201403.37144  23614316.9064                   23614314.7274
 -29224848.76647 -22765666.02446  21217388.9924                   21217386.8794
  -5715573.57847  -4438081.39044  23155130.2194                   23155129.0044
 11  9 30  0 58  0.0000000  0 10G25G29G12G15G02G05G30G21G26G18
 -34775962.35247 -27084220.59345  23081146.7344                   23081149.1604
 -39095506.98648 -30451225.63947  20295794.8984                   20295792.8754
 -40324012.42546 -31407456.57943  24364543.5084                   24364543.6414
 -21546889.90848 -16775748.80746  21453670.3674                   21453668.2424
 -59882141.72946 -46621924.13544  23150497.9304                   23150493.4614
 -46585723.63148 -36286712.09946  22181344.4454                   22181341.7114
 -20100358.08447 -15649073.28844  23148373.9064                   23148373.5744
  -9398172.28947  -7314201.02144  23586770.1804                   23586767.7814
 -29338398.94348 -22854146.65446  21195781.0704                   21195779.0354
  -5871252.94847  -4559389.87144  23125506.2344                   23125504.1294
 11  9 30  0 58 30.0000000  0 10G25G29G12G15G02G05G30G21G26G18
 -34781364.98247 -27088430.47545  23080118.6804                   23080120.4844
 -39212088.74848 -30542068.54347  20273610.4144                   20273607.4844
 -40314802.71946 -31400280.26043  24366296.1254                   24366296.8284
 -21702713.94648 -16897170.07346  21424018.1484                   21424015.9534
 -59907424.54146 -46641625.01744  23145686.9614                   23145682.3914
 -46587720.12748 -36288267.79246  22180964.3834                   22180961.9534
 -20134775.33547 -15675891.92344  23141825.1334                   23141824.7664
  -9542977.68646  -7427036.32144  23559214.5004                   23559212.1214
 -29451320.30948 -22942137.29046  21174292.8524                   21174290.5394
  -6026698.12047  -4680515.83544  23095925.7504                   23095923.9574
 11  9 30  0 59  0.0000000  0 10G25G29G12G15G02G05G30G21G26G18
 -33211202.90947 -25864927.60244  23378910.9774                   23378912.2544
 -37752783.89348 -29404947.86947  20551306.8914                   20551304.8954
 -38730286.19546 -30165592.13043  24667819.9844                   24667821.6524
 -20282729.75648 -15790688.82046  21694232.0474                   21694230.0864
 -58357160.98946 -45433627.43244  23440691.6254                   23440688.3674
 -45014176.52547 -35062129.91645  22480399.5864                   22480397.1564
 -18593415.56046 -14474832.34744  23435135.9694                   23435134.9224
  -8112407.11146  -6312305.94944  23831443.0084                   23831440.7854
 -27988186.28548 -21802032.83546  21452718.1954                   21452715.9774
  -4606483.03847  -3573854.59644  23366182.8754                   23366181.5164
 11  9 30  0 59 30.0000000  0 10G25G29G12G15G02G05G30G21G26G18
 -33216319.44947 -25868914.55345  23377937.1254                   23377938.6414
 -37868438.23548 -29495068.09847  20529298.7034                   20529295.8524
 -38721305.20246 -30158594.07243  24669529.3754                   24669529.8794
 -20437785.55048 -15911511.44546  21664726.1884                   21664723.6374
 -58382192.30646 -45453132.35344  23435929.2504                   23435924.9144
 -45015935.26647 -35063500.34545  22480065.4224                   22480062.9734
 -18627123.78846 -14501098.50344  23428721.5004                   23428721.4024
  -8257309.89946  -6425217.17444  23803868.7664                   23803866.8284
 -28099843.10948 -21889038.11046  21431470.2894                   21431468.3164
  -4761457.21847  -3694613.59844  23336691.7034                   23336690.7114
 11  9 30  1  0  0.0000000  0 10G25G29G12G15G02G05G30G21G26G18
 -33221297.34847 -25872793.47845  23376989.8054                   23376991.6254
 -37983625.86848 -29584824.66447  20507378.8284                   20507376.8284
 -38712442.34246 -30151688.06843  24671215.6094                   24671216.2114
 -20592452.97748 -16032031.46346  21635293.5314                   21635291.6334
 -58407097.44346 -45472538.94644  23431189.8204                   23431185.1804
 -45017578.00847 -35064780.38445  22479752.1804                   22479749.6764
 -18660481.15446 -14527091.24044  23422373.5004                   23422372.8954
  -8402260.75147  -6538165.85044  23776285.2584                   23776283.0904
 -28210864.68348 -21975548.38846  21410343.3754                   21410341.4024
  -4916194.72347  -3815188.11344  23307246.6094                   23307245.0394
 11  9 30  1  0 30.0000000  0 10G25G29G12G15G02G05G30G21G26G18
 -33226138.87147 -25876566.13545  23376068.0314                   23376069.7934
 -38098344.12648 -29674215.50247  20485549.1954                   20485546.3164
 -38703699.37946 -30144875.46243  24672878.9614                   24672880.3404
 -20746728.12648 -16152245.79146  21605935.9614                   21605934.0084
 -58431874.64046 -45491845.88444  23426474.4064                   23426470.5004
 -45019105.72947 -35065970.80345  22479461.2734                   22479459.2894
 -18693489.95046 -14552812.38744  23416092.2424                   23416091.6844
  -8547258.77246  -6651151.24444  23748693.6644                   23748691.0234
 -28321248.42248 -22061561.65746  21389338.1954                   21389335.9534
  -5070694.46447  -3935577.38644  23277846.7974                   23277844.9614
 11  9 30  1  1  0.0000000  0 10G25G29G12G15G02G05G30G21G26G18
 -33230847.28747 -25880235.04244  23375172.7584                   23375174.1134
 -38212591.44448 -29763239.34147  20463808.3754                   20463805.4844
 -38695078.84446 -30138158.25343  24674519.9694                   24674520.8954
 -20900608.84548 -16272152.79046  21576653.6884                   21576651.4924
 -58456524.30846 -45511053.41244  23421783.7814                   23421780.0124
 -45020521.15547 -35067073.71345  22479192.1804                   22479189.4694
 -18726153.04146 -14578264.12544  23409875.7584                   23409875.5824
  -8692304.06046  -6764173.49844  23721092.2734                   23721089.2624
 -28430992.58348 -22147076.55846  21368454.7584                   21368452.4384
  -5224956.13647  -4055781.15544  23248491.2734                   23248489.4414
 11  9 30  1  1 30.0000000  0 10G25G29G12G15G02G05G30G21G26G18
 -33235426.81447 -25883803.53944  23374300.8594                   23374302.9414
 -38326367.19248 -29851895.74047  20442157.8914                   20442154.9024
 -38686584.46746 -30131539.46543  24676136.9454                   24676137.4414
 -21054093.20548 -16391750.93946  21547446.2424                   21547443.9184
 -58481046.95346 -45530161.98244  23417116.8984                   23417112.8674
 -45021827.18247 -35068091.38045  22478943.7504                   22478941.4534
 -18758474.42246 -14603449.61644  23403725.5314                   23403725.5704
  -8837397.94147  -6877233.57144  23693481.4534                   23693478.8054
 -28540096.94148 -22232092.89746  21347692.7274                   21347690.9264
  -5378980.23647  -4175799.81044  23219181.6564                   23219179.7034
 11  9 30  1  2  0.0000000  0 10G25G29G12G15G02G05G30G21G26G18
 -33239880.71947 -25887274.13544  23373453.7504                   23373455.8794
 -38439669.67748 -29940183.34247  20420596.8364                   20420594.3444
 -38678218.95946 -30125020.97243  24677728.7114                   24677728.8634
 -21207178.71347 -16511038.28346  21518314.7584                   21518312.8524
 -58505442.17646 -45549171.21544  23412475.0864                   23412471.5394
 -45023026.26247 -35069025.70945  22478715.9774                   22478713.3444
 -18790457.15946 -14628371.18544  23397639.9694                   23397638.4384
  -8982540.25447  -6990331.41244  23665861.8364                   23665859.0234
 -28648559.87048 -22316609.43146  21327053.0784                   21327050.7274
  -5532766.30447  -4295632.95944  23189917.4614                   23189915.4574
 11  9 30  1  2 30.0000000  0 10G25G29G12G15G02G05G30G21G26G18
 -33244211.14647 -25890648.53644  23372629.3524                   23372631.4884
 -38552496.52648 -30028100.32947  20399126.3834                   20399124.2464
 -38669984.10446 -30118604.27943  24679295.1884                   24679296.4344
 -21359861.71747 -16630011.99846  21489260.5394                   21489258.1094
 -58529708.49446 -45568080.06144  23407857.9694                   23407853.4184
 -45024119.05847 -35069877.22645  22478507.5004                   22478505.2154
 -18822103.09846 -14653030.36544  23391617.0234                   23391617.4454
  -9127730.03946  -7103466.23144  23638233.0944                   23638230.4804
 -28756378.51448 -22400623.91746  21306535.5864                   21306534.0124
  -5686312.90947  -4415279.52944  23160698.0784                   23160695.8364
 11  9 30  1  3  0.0000000  0 10G25G29G12G15G02G05G30G21G26G18
 -33248423.98747 -25893931.28044  23371827.3914                   23371829.8054
 -38664848.73248 -30115647.45147  20377746.3914                   20377743.9344
 -38661884.70246 -30112293.23443  24680836.7734                   24680837.4924
 -21512142.29047 -16748672.12546  21460282.3674                   21460279.9304
 -58553848.47446 -45586890.40544  23403263.0234                   23403258.6214
 -45025110.51647 -35070649.77445  22478319.7274                   22478316.6914
 -18853417.92747 -14677431.54744  23385659.1024                   23385658.3404
  -9272969.95047  -7216640.13644  23610594.7584                   23610592.6174
 -28863554.20848 -22484137.40446  21286140.7584                   21286139.0864
  -5839622.58647  -4534741.47144  23131523.6484                   23131521.4184
 11  9 30  1  3 30.0000000  0 10G25G29G12G15G02G05G30G21G26G18
 -33252519.28847 -25897122.42444  23371048.7274                   23371051.1174
 -38776721.48048 -30202820.98547  20356457.5394                   20356455.4964
 -38653920.47746 -30106087.42343  24682352.1804                   24682353.0984
 -21664014.42147 -16867013.98246  21431381.9384                   21431379.7624
 -58577858.66947 -45605599.70244  23398694.9224                   23398690.9454
 -45025999.52147 -35071342.50045  22478149.9694                   22478147.5634
 -18884401.45546 -14701574.53044  23379762.5164                   23379762.5354
  -9418256.91147  -7329850.65144  23582947.8524                   23582945.4734
 -28970082.37748 -22567146.32046  21265869.1954                   21265867.2194
  -5992691.79746  -4654016.06544  23102395.1334                   23102392.6724
 11  9 30  1  4  0.0000000  0 10G25G29G12G15G02G05G30G21G26G18
 -33256499.28747 -25900223.75744  23370291.2584                   23370292.7034
 -38888112.08848 -30289618.82747  20335260.6954                   20335258.4534
 -38646093.43746 -30099988.58543  24683841.2814                   24683843.6334
 -21815475.07348 -16985035.20546  21402560.1174                   21402558.0474
 -58601738.05447 -45624207.04344  23394150.3364                   23394145.7734
 -45026787.52847 -35071956.49945  22477999.8984                   22477997.4024
 -18915055.78546 -14725461.01244  23373928.9844                   23373930.3324
  -9563590.21447  -7443097.30744  23555291.6174                   23555289.0744
 -29075960.61048 -22649648.78546  21245721.3284                   21245719.1954
  -6145519.02947  -4773102.07544  23073313.4144                   23073312.0744
 11  9 30  1  4 30.0000000  0 10G25G29G12G15G02G05G30G21G26G18
 -33260368.27347 -25903238.55844  23369555.2814                   23369556.7114
 -38999020.32848 -30376040.79647  20314155.6954                   20314153.2974
 -38638406.36546 -30093998.72143  24685305.0394                   24685306.3834
 -21966522.51448 -17102734.46346  21373816.3364                   21373814.0864
 -58625487.10946 -45642712.80544  23389631.0234                   23389626.8954
 -45027477.36147 -35072494.02745  22477868.4924                   22477865.9184
 -18945384.84846 -14749094.04944  23368158.0314                   23368158.9804
  -9708970.64747  -7556380.67544  23527627.2194                   23527624.2854
 -29181188.43348 -22731644.45946  21225696.5234                   21225694.8984
  -6298105.12247  -4892000.17044  23044277.0784                   23044275.1844
 11  9 30  1  5  0.0000000  0 10G25G29G12G15G02G05G30G21G26G18
 -33264127.00347 -25906167.46144  23368840.0944                   23368840.8524
 -39109442.27148 -30462083.83547  20293143.0084                   20293140.3324
 -38630860.30646 -30088118.76343  24686740.7344                   24686741.6724
 -22117151.83348 -17220107.90746  21345152.7344                   21345150.5474
 -58649103.29646 -45661115.04544  23385137.0474                   23385133.2384
 -45028068.90047 -35072954.96745  22477756.3834                   22477753.2504
 -18975389.26046 -14772474.12544  23362448.5704                   23362447.6644
  -9854395.80647  -7669698.86744  23499953.1724                   23499950.3324
 -29285761.89548 -22813130.22646  21205796.9304                   21205795.1024
  -6450447.36847  -5010708.31244  23015286.9144                   23015285.3554
 11  9 30  1  5 30.0000000  0  9G25G29G15G02G05G30G21G26G18
 -33267781.67347 -25909015.25644  23368143.6884                   23368145.4184
 -39219379.41948 -30547749.10747  20272222.4844                   20272220.1844
 -22267363.50048 -17337155.88946  21316568.3834                   21316565.8484
 -58672589.21847 -45679415.80944  23380668.7114                   23380663.1054
 -45028567.45047 -35073343.42645  22477660.9924                   22477658.6454
 -19005075.10346 -14795605.96244  23356799.5944                   23356799.3674
  -9999868.57247  -7783054.18044  23472270.4304                   23472267.1174
 -29389683.05148 -22894107.71346  21186021.5314                   21186019.4964
  -6602548.49647  -5129228.55844  22986343.7114                   22986341.4104
 11  9 30  1  6  0.0000000  0  9G25G29G15G02G05G30G21G26G18
 -33271334.31147 -25911783.56144  23367468.4924                   23367469.8134
 -39328828.79648 -30633034.31047  20251394.8754                   20251392.4924
 -22417153.66648 -17453875.43346  21288064.3674                   21288061.7034
 -58695943.37446 -45697613.85244  23376224.1724                   23376220.3834
 -45028973.47447 -35073659.84545  22477584.2424                   22477581.5664
 -19034444.24246 -14818491.02544  23351210.5554                   23351210.2154
 -10145387.85447  -7896445.73944  23444578.8674                   23444576.2854
 -29492949.03948 -22974574.69646  21166370.1484                   21166368.5944
  -6754407.26547  -5247559.97344  22957445.6644                   22957444.0474
 11  9 30  1  6 30.0000000  0  9G25G29G15G02G05G30G21G26G18
 -33274787.68747 -25914474.54244  23366810.6884                   23366812.7234
 -39437788.51348 -30717937.95947  20230660.5314                   20230658.0944
 -22566519.51747 -17570264.35146  21259640.4384                   21259638.0394
 -58719165.51647 -45715709.04744  23371804.7504                   23371801.1884
 -45029288.78147 -35073905.52345  22477524.1724                   22477521.5434
 -19063499.32846 -14841131.34744  23345681.4534                   23345681.8094
 -10290953.42247  -8009873.33744  23416878.5944                   23416875.5984
 -29595558.39848 -23054529.99346  21146844.7034                   21146842.4344
  -6906022.73647  -5365701.79244  22928593.7034                   22928591.7234
 11  9 30  1  7  0.0000000  0  9G25G29G15G02G05G30G21G26G18
 -33278144.81547 -25917090.49444  23366172.8054                   23366174.1294
 -39546257.26948 -30802459.04947  20210019.5944                   20210016.9024
 -22715458.42248 -17686320.58346  21231298.5474                   21231296.6214
 -58742254.69746 -45733700.63744  23367411.5314                   23367407.3524
 -45029515.38647 -35074082.10745  22477480.9304                   22477478.5474
 -19092243.17846 -14863529.18044  23340212.0634                   23340211.8444
 -10436564.87047  -8123336.70644  23389169.4384                   23389166.4844
 -29697509.53048 -23133972.41046  21127444.0554                   21127442.0474
  -7057394.06847  -5483653.36744  22899788.7734                   22899786.9304
 11  9 30  1  7 30.0000000  0  9G25G29G15G02G05G30G21G26G18
 -33281417.53847 -25919640.72444  23365549.5004                   23365552.0354
 -39654242.16348 -30886603.10147  20189470.9534                   20189468.4844
 -22863976.32547 -17802048.75646  21203036.5864                   21203033.9304
 -58765219.67047 -45751595.46844  23363041.3594                   23363036.8524
 -45029663.70747 -35074197.70245  22477452.5234                   22477450.9414
 -19120687.40546 -14885693.49244  23334798.9384                   23334798.9064
 -10582230.99647  -8236842.66644  23361449.8984                   23361447.0044
 -29798809.93048 -23212907.74246  21108167.1024                   21108164.8134
  -7208530.28247  -5601421.74044  22871028.5234                   22871025.9884
 11  9 30  1  8  0.0000000  0  9G25G29G15G02G05G30G21G26G18
 -31709193.13347 -24694530.81844  23664734.0554                   23664736.2114
 -38186322.24248 -29742769.38147  20468807.0004                   20468804.3444
 -21436650.11448 -16689846.45146  21474647.3284                   21474645.0744
 -57212643.50846 -44541795.86344  23658486.5084                   23658482.1174
 -43454320.08747 -33846657.21845  22777230.2584                   22777227.7624
 -17573418.47347 -13680029.42244  23629235.0394                   23629234.5004
  -9152531.00247  -7122790.59744  23633512.8594                   23633509.7974
 -28324039.16848 -22063735.69246  21388806.9144                   21388804.4414
  -5784009.97047  -4491405.85444  23142105.5314                   23142103.7854
 11  9 30  1  8 30.0000000  0  9G25G29G15G02G05G30G21G26G18
 -31712316.12947 -24696964.36744  23664139.2894                   23664141.8204
 -38293344.62848 -29826163.43647  20448441.1174                   20448438.8914
 -21584328.43847 -16804920.41046  21446545.1564                   21446542.8364
 -57235368.22646 -44559503.45744  23654161.6564                   23654158.0044
 -43454327.93647 -33846663.34245  22777228.7974                   22777226.6414
 -17601282.47146 -13701741.63644  23623932.6414                   23623931.8324
  -9298315.75147  -7236389.00944  23605770.9384                   23605768.6954
 -28424044.10248 -22141661.58445  21369776.4534                   21369774.1684
  -5934684.35447  -4608814.36644  23113433.6254                   23113431.0744
 11  9 30  1  9  0.0000000  0  9G25G29G15G02G05G30G21G26G18
 -31715371.79947 -24699345.47144  23663557.8594                   23663561.0594
 -38399886.17848 -29909182.80247  20428166.7034                   20428164.1294
 -21731586.23148 -16919666.67346  21418522.8204                   21418520.3554
 -57257975.46947 -44577119.51744  23649860.1564                   23649856.0554
 -43454271.29047 -33846619.20845  22777239.7114                   22777237.0864
 -17628863.59147 -13723233.40544  23618684.1884                   23618683.4494
  -9444162.10447  -7350035.36444  23578016.9224                   23578014.2664
 -28523402.30348 -22219083.52946  21350869.0394                   21350866.6724
  -6085130.01547  -4726044.68044  23084804.5004                   23084801.6484
 11  9 30  1  9 30.0000000  0  9G25G29G15G02G05G30G21G26G18
 -31718362.25147 -24701675.69844  23662989.2894                   23662990.9264
 -38505944.64548 -29991825.74447  20407984.7114                   20407982.1174
 -21878419.85648 -17034082.42246  21390581.2504                   21390578.7544
 -57280464.09346 -44594643.16044  23645580.6954                   23645577.0634
 -43454151.36247 -33846525.76445  22777263.0394                   22777260.4224
 -17656164.12747 -13744506.55144  23613488.9924                   23613487.8364
  -9590069.28347  -7463729.16944  23550251.7344                   23550249.0124
 -28622111.69148 -22295999.90546  21332085.5084                   21332083.1454
  -6235345.99247  -4843095.98844  23056219.3674                   23056216.7854
 11  9 30  1 10  0.0000000  0  9G25G29G15G02G05G30G21G26G18
 -31721290.44447 -24703957.44444  23662431.9694                   23662434.0234
 -38611518.49248 -30074091.05647  20387894.6954                   20387892.1644
 -22024826.99148 -17148165.84546  21362720.8284                   21362718.1604
 -57302833.31346 -44612073.71244  23641323.8674                   23641320.3484
 -43453969.59747 -33846384.12845  22777297.7584                   22777294.0314
 -17683186.66547 -13765563.08244  23608347.0864                   23608346.2974
  -9736037.05547  -7577470.15744  23522474.8984                   23522472.3634
 -28720170.95248 -22372409.69946  21313425.5314                   21313423.2034
  -6385331.66847  -4959967.89144  23027677.4924                   23027675.8244
 11  9 30  1 10 30.0000000  0  9G25G29G15G02G05G30G21G26G18
 -31724159.78247 -24706193.33744  23661885.9534                   23661888.0124
 -38716606.47248 -30155977.77347  20367896.8674                   20367894.3674
 -22170805.19747 -17261915.03546  21334942.1564                   21334939.6604
 -57325083.05547 -44629411.20944  23637091.1644                   23637085.8874
 -43453728.36247 -33846196.16445  22777343.1644                   22777340.6844
 -17709934.79347 -13786405.75044  23603256.6884                   23603255.8134
  -9882065.40647  -7691258.35544  23494686.9144                   23494684.5044
 -28817579.26048 -22448312.25446  21294889.3444                   21294887.3054
  -6535087.09447  -5076660.35544  22999180.4534                   22999177.8204
 11  9 30  1 11  0.0000000  0  9G25G29G15G02G05G30G21G26G18
 -31726972.64847 -24708385.21244  23661350.9144                   23661352.6524
 -38821206.65648 -30237484.37847  20347992.1644                   20347989.8554
 -22316351.60047 -17375327.74746  21307245.4224                   21307243.1724
 -57347212.45047 -44646654.88544  23632879.1094                   23632875.8134
 -43453428.89847 -33845962.80545  22777400.7194                   22777397.4574
 -17736410.65346 -13807036.31844  23598218.3674                   23598218.4804
 -10028153.76947  -7805093.32844  23466886.8284                   23466883.9454
 -28914334.90348 -22523706.22546  21276476.9304                   21276474.7304
  -6684611.04247  -5193172.46644  22970726.8834                   22970724.7624
 11  9 30  1 11 30.0000000  0  9G25G29G15G02G05G30G21G26G18
 -31729731.33347 -24710534.88244  23660824.9774                   23660827.3164
 -38925316.97648 -30318609.29347  20328180.4064                   20328177.9964
 -22461462.76548 -17488401.33046  21279632.0004                   21279629.6134
 -57369220.48347 -44663804.03944  23628690.4694                   23628686.4734
 -43453072.43247 -33845685.02845  22777468.1644                   22777465.7074
 -17762616.57546 -13827456.52644  23593232.1174                   23593231.6604
 -10174301.05347  -7918974.21744  23439076.4534                   23439072.6174
 -29010435.99948 -22598590.16346  21258189.3984                   21258187.5664
  -6833903.24047  -5309503.96944  22942317.3984                   22942315.7664
 11  9 30  1 12  0.0000000  0  9G25G29G15G02G05G30G21G26G18
 -31732438.31447 -24712644.25944  23660310.3204                   23660312.9064
 -39028935.17548 -30399350.71047  20308462.7034                   20308460.2304
 -22606135.61848 -17601133.36246  21252101.2664                   21252098.9224
 -57391106.19847 -44680857.85344  23624526.3754                   23624521.8914
 -43452660.11147 -33845363.73845  22777546.3674                   22777544.1684
 -17788555.00546 -13847668.26844  23588295.7274                   23588296.0704
 -10320506.21147  -8032900.21144  23411254.3754                   23411250.7344
 -29105880.92648 -22672962.80746  21240027.0084                   21240024.5634
  -6982962.05847  -5425653.61844  22913952.6254                   22913950.3874
 11  9 30  1 12 30.0000000  0  9G25G29G15G02G05G30G21G26G18
 -31735095.15747 -24714714.56544  23659805.1804                   23659807.3284
 -39132058.48248 -30479706.50247  20288838.9144                   20288836.9964
 -22750366.41448 -17713520.93646  21224655.1724                   21224652.7894
 -57412867.73747 -44697814.92344  23620385.8594                   23620381.1094
 -43452192.48747 -33844999.35045  22777636.0314                   22777633.1804
 -17814227.43746 -13867672.75544  23583409.9774                   23583409.5434
 -10466767.57947  -8146869.99044  23383421.5784                   23383417.4224
 -29200667.39448 -22746822.37246  21221989.7034                   21221987.6844
  -7131785.98147  -5541620.24544  22885632.1564                   22885629.2704
 11  9 30  1 13  0.0000000  0  9G25G29G15G02G05G30G21G26G18
 -31737703.55847 -24716747.09544  23659309.1954                   23659310.0314
 -39234684.04248 -30559674.44547  20269309.8204                   20269307.4304
 -22894151.08148 -17825560.88346  21197293.9064                   21197290.9844
 -57434503.34847 -44714673.83444  23616268.9614                   23616264.1604
 -43451669.78147 -33844592.03345  22777735.0004                   22777732.3954
 -17839635.54246 -13887471.26144  23578574.5394                   23578575.3204
 -10613083.83047  -8260882.58644  23355578.3914                   23355575.1214
 -29294792.80048 -22820166.82746  21204078.0864                   21204075.7854
  -7280373.41547  -5657402.59744  22857356.8914                   22857354.7934
 11  9 30  1 13 30.0000000  0  9G25G29G15G02G05G30G21G26G18
 -31740265.38347 -24718743.32544  23658821.3594                   23658822.4964
 -39336809.85548 -30639252.97247  20249875.4924                   20249873.5984
 -23037486.22347 -17937250.56546  21170018.4534                   21170015.5944
 -57456011.53446 -44731433.44844  23612175.4224                   23612171.1564
 -43451092.83247 -33844142.45845  22777845.0634                   22777842.5314
 -17864781.23246 -13907065.30944  23573789.6174                   23573790.6994
 -10759453.77847  -8374936.99644  23327724.6644                   23327721.5124
 -29388255.22348 -22892994.65546  21186292.9694                   21186290.8204
  -7428722.87647  -5772999.53444  22829127.0784                   22829123.8714
 11  9 30  1 14  0.0000000  0  9G25G29G15G02G05G30G21G26G18
 -31742784.71447 -24720706.46744  23658341.6724                   23658343.0664
 -39438435.29048 -30718441.59347  20230537.4144                   20230534.7304
 -23180370.75948 -18048589.10046  21142827.7504                   21142825.6094
 -57477393.29947 -44748094.57244  23608107.0004                   23608102.4884
 -43450464.39547 -33843652.75745  22777964.2584                   22777961.9144
 -17889668.69046 -13926458.10843  23569053.7194                   23569053.2664
 -10905877.78447  -8489033.53044  23299861.2114                   23299858.0434
 -29481054.78548 -22965305.98146  21168633.6334                   21168631.6844
  -7576835.17847  -5888411.62844  22800941.6564                   22800939.1844
 11  9 30  1 14 30.0000000  0  9G25G29G15G02G05G30G21G26G18
 -31745262.41447 -24722637.14944  23657870.1884                   23657873.0124
 -39539556.84048 -30797237.59147  20211294.7344                   20211291.6454
 -23322800.21948 -18159573.04646  21115724.9064                   21115722.1884
 -57498645.82246 -44764655.01044  23604062.3134                   23604058.4064
 -43449784.29047 -33843122.80545  22778094.0474                   22778091.8594
 -17914298.66146 -13945650.28944  23564367.5234                   23564367.0354
 -11052353.29747  -8603170.19544  23271988.2424                   23271984.9064
 -29573188.47848 -23037098.43446  21151101.1484                   21151098.9454
  -7724708.05247  -6003637.17444  22772802.2034                   22772799.7384
 11  9 30  1 15  0.0000000  0  9G25G29G15G02G05G30G21G26G18
 -31747701.77447 -24724537.96544  23657406.1564                   23657408.1134
 -39640173.46948 -30875640.12647  20192147.8204                   20192144.9844
 -23464772.05448 -18270200.39346  21088708.1884                   21088705.4144
 -57519769.18346 -44781114.77444  23600042.9144                   23600038.4804
 -43449054.55247 -33842554.16945  22778232.7814                   22778230.2814
 -17938674.53446 -13964644.45243  23559728.2894                   23559728.0664
 -11198880.88946  -8717347.44144  23244104.5314                   23244101.6024
 -29664655.59247 -23108371.47746  21133695.4064                   21133692.9884
  -7872341.40146  -6118676.05944  22744708.9534                   22744705.8794
 11  9 30  1 15 30.0000000  0  9G25G29G15G02G05G30G21G26G18
 -31750104.36347 -24726410.13344  23656949.0944                   23656951.3674
 -39740282.56448 -30953647.19547  20173097.5784                   20173094.9694
 -23606282.68048 -18380468.36146  21061779.5084                   21061776.8014
 -57540761.75446 -44797472.58344  23596047.5474                   23596043.5784
 -43448275.49547 -33841947.10545  22778381.0554                   22778378.9534
 -17962797.83246 -13983441.80343  23555138.1334                   23555137.6804
 -11345458.35147  -8831563.55444  23216211.8524                   23216208.9064
 -29755454.03348 -23179123.49446  21116416.9384                   21116415.0594
  -8019733.73147  -6233527.14244  22716661.0084                   22716657.8914
 11  9 30  1 16  0.0000000  0  9G25G29G15G02G05G30G21G26G18
 -31752472.92447 -24728255.77244  23656497.9924                   23656500.3324
 -39839882.62048 -31031257.61247  20154144.1484                   20154141.6914
 -23747329.62348 -18490375.01446  21034938.8524                   21034936.3674
 -57561622.94946 -44813728.10844  23592078.6414                   23592074.1214
 -43447448.67847 -33841302.81145  22778538.0394                   22778536.0234
 -17986671.41546 -14002044.60643  23550594.4064                   23550595.1604
 -11492085.30447  -8945818.22944  23188309.2274                   23188305.7274
 -29845582.54848 -23249353.47346  21099266.4534                   21099264.5554
  -8166884.64747  -6348190.11445  22688658.3834                   22688657.0394
 11  9 30  1 16 30.0000000  0  9G25G29G15G02G05G30G21G26G18
 -31754809.79147 -24730076.73244  23656053.6644                   23656055.4774
 -39938971.84648 -31108469.96447  20135288.2584                   20135285.5784
 -23887909.79048 -18599917.95946  21008187.2034                   21008184.8094
 -57582351.58946 -44829880.33044  23588133.1644                   23588130.1054
 -43446575.06247 -33840622.07845  22778704.0474                   22778701.9804
 -18010297.68446 -14020454.68644  23546099.6334                   23546099.3984
 -11638761.03847  -9060110.90944  23160396.9534                   23160393.9384
 -29935040.07148 -23319060.60746  21082243.3834                   21082241.2274
  -8313792.98447  -6462664.04044  22660703.0704                   22660700.9924
 11  9 30  1 17  0.0000000  0  9G25G29G15G02G05G30G21G26G18
 -31757118.77847 -24731875.98744  23655614.1644                   23655615.9024
 -40037549.85748 -31185283.98847  20116529.4774                   20116526.9574
 -24028021.90148 -18709096.17146  20981525.0394                   20981522.5634
 -57602948.15646 -44845929.60844  23584214.1644                   23584210.5164
 -43445657.51847 -33839907.12445  22778878.7114                   22778876.8754
 -18033680.57946 -14038675.15944  23541649.5784                   23541649.1094
 -11785485.59447  -9174441.64544  23132477.1414                   23132473.4694
 -30023826.40247 -23388244.72646  21065347.4304                   21065345.3634
  -8460459.42747  -6576949.49344  22632793.2584                   22632791.0554
 11  9 30  1 17 30.0000000  0  9G25G29G15G02G05G30G21G26G18
 -30183981.38547 -23506054.65244  23954972.1414                   23954974.3094
 -38560190.56348 -30034094.90447  20397661.6884                   20397659.4104
 -22592237.57648 -17590303.13646  21254745.3674                   21254743.1954
 -56047990.24846 -43634274.08644  23880112.7974                   23880109.2424
 -41869276.24847 -32611558.06045  23078854.2114                   23078852.3134
 -16481400.77747 -12829106.52844  23837038.8914                   23837038.4804
 -10356832.50847  -8061205.37744  23404340.3674                   23404336.7774
 -28536516.78847 -22229302.13946  21348373.1254                   21348371.0204
  -7031457.69947  -5463441.52545  22904723.3364                   22904721.3134
 11  9 30  1 18  0.0000000  0  9G25G29G15G02G05G30G21G26G18
 -30186240.05447 -23507814.71844  23954542.8834                   23954544.4964
 -38657738.86048 -30110106.54247  20379098.3364                   20379096.2734
 -22731403.17448 -17698743.81846  21228262.6644                   21228260.8794
 -56068318.31246 -43650114.16444  23876244.4534                   23876241.8754
 -41868272.20947 -32610775.71145  23079045.7034                   23079043.1524
 -16504302.28046 -12846951.90744  23832680.2274                   23832680.0634
 -10503650.72447  -8175609.07644  23376401.6564                   23376398.4734
 -28623955.57947 -22297436.22746  21331733.8754                   21331731.4734
  -7177636.62347  -5577347.07244  22876906.1644                   22876903.5314
 11  9 30  1 18 30.0000000  0  9G25G29G15G02G05G30G21G26G18
 -30188477.47047 -23509558.16344  23954117.5944                   23954118.7704
 -38754770.03248 -30185715.22947  20360634.1254                   20360631.6374
 -22870091.37748 -17806812.50246  21201871.5944                   21201869.3134
 -56088511.37346 -43665849.06844  23872401.7974                   23872398.2624
 -41867226.74647 -32609961.06045  23079244.6174                   23079241.9104
 -16526967.23046 -12864612.92143  23828367.2664                   23828367.1334
 -10650514.55146  -8290048.34344  23348454.1724                   23348450.5394
 -28710719.09147 -22365044.13246  21315223.2584                   21315221.2304
  -7323570.57346  -5691061.72144  22849135.9694                   22849133.1724
 11  9 30  1 19  0.0000000  0  9G25G29G15G02G05G30G21G26G18
 -30190695.03247 -23511286.17444  23953695.7344                   23953696.4144
 -38851281.21148 -30260918.72147  20342268.7584                   20342266.3914
 -23008298.48048 -17914506.30346  21175571.7194                   21175569.7974
 -56108567.15046 -43681476.94944  23868585.5944                   23868581.3444
 -41866140.37347 -32609114.56045  23079451.4144                   23079449.5004
 -16549397.14447 -12882090.84944  23824099.2194                   23824098.6374
 -10797422.31647  -8404521.82744  23320498.8054                   23320495.6454
 -28796805.01548 -22432124.04046  21298841.9924                   21298839.0984
  -7469258.16447  -5804584.42644  22821412.2114                   22821409.5394
 11  9 30  1 19 30.0000000  0  9G25G29G15G02G05G30G21G26G18
 -30192894.96347 -23513000.40444  23953276.3444                   23953278.2504
 -38947270.64448 -30335715.64847  20324002.4534                   20324000.6374
 -23146021.81048 -18021823.13246  21149363.9144                   21149361.7934
 -56128485.05346 -43696997.38744  23864794.8054                   23864790.9964
 -41865013.83547 -32608236.74545  23079664.8054                   23079663.0204
 -16571594.22847 -12899387.28343  23819875.7344                   23819875.1994
 -10944372.59347  -8519028.45045  23292534.7114                   23292532.0904
 -28882212.21948 -22498675.07546  21282589.9224                   21282587.0164
  -7614698.67547  -5917914.59344  22793735.9844                   22793732.4024
 11  9 30  1 20  0.0000000  0  9G25G29G15G02G05G30G21G26G18
 -30195080.75447 -23514703.72044  23952860.8914                   23952862.7424
 -39042737.72148 -30410105.55647  20305835.7894                   20305833.6684
 -23283259.17848 -18128761.28846  21123248.3134                   21123245.9884
 -56148265.29146 -43712410.58944  23861030.9224                   23861027.7774
 -41863849.57147 -32607329.53945  23079886.8054                   23079885.0274
 -16593562.06147 -12916505.14043  23815695.6094                   23815693.8014
 -11091365.69647  -8633568.41744  23264562.6804                   23264560.0204
 -28966940.68047 -22564697.22246  21266465.9224                   21266463.3364
  -7759892.45247  -6031052.47044  22766106.4694                   22766103.3594
 11  9 30  1 20 30.0000000  0  9G25G29G15G02G05G30G21G26G18
 -30197252.97147 -23516396.40044  23952447.0474                   23952449.2034
 -39137679.09148 -30484085.81247  20287769.1564                   20287766.6844
 -23420006.59048 -18235317.66046  21097226.3204                   21097223.9184
 -56167905.11546 -43727714.36244  23857293.4844                   23857290.5784
 -41862646.73547 -32606392.28345  23080116.5554                   23080114.0824
 -16615301.60846 -12933445.12044  23811558.8444                   23811557.5664
 -11238398.92147  -8748139.69344  23236583.3284                   23236580.3404
 -29050987.74648 -22630188.40446  21250472.6564                   21250470.4494
  -7904836.77247  -6143995.97544  22738524.1484                   22738521.9264
 11  9 30  1 21  0.0000000  0  9G25G29G15G02G05G30G21G26G18
 -30199415.40846 -23518081.47844  23952035.8594                   23952037.6414
 -39232094.41248 -30557656.15947  20269802.3834                   20269800.0634
 -23556262.69448 -18341491.20346  21071297.5864                   21071294.8284
 -56187404.98046 -43742909.05844  23853583.1724                   23853579.8404
 -41861407.90747 -32605426.96645  23080351.4304                   23080348.7854
 -16636816.59746 -12950210.08544  23807463.9224                   23807463.4844
 -11385472.62647  -8862742.48945  23208596.2274                   23208593.3284
 -29134353.69147 -22695148.84346  21234608.3524                   21234606.0354
  -8049532.49447  -6256745.77544  22710989.3054                   22710986.0864
 11  9 30  1 21 30.0000000  0  9G25G29G15G02G05G30G21G26G18
 -30201571.81346 -23519761.87244  23951625.0944                   23951626.6134
 -39325983.29248 -30630816.30047  20251935.6644                   20251933.3794
 -23692025.90848 -18447280.68446  21045462.7194                   21045459.8984
 -56206765.29947 -43757995.03244  23849899.1954                   23849895.2234
 -41860135.62947 -32604435.59045  23080593.4144                   23080591.0084
 -16658110.94546 -12966803.13544  23803411.8204                   23803411.5084
 -11532587.20447  -8977377.13845  23180601.3524                   23180597.6564
 -29217038.90448 -22759578.84446  21218873.7424                   21218871.6174
  -8193980.03647  -6369302.20744  22683501.8134                   22683499.0784
 11  9 30  1 22  0.0000000  0  9G25G29G15G02G05G30G21G26G18
 -30203723.16447 -23521438.25644  23951215.8594                   23951217.1604
 -39419343.28348 -30703564.31347  20234170.1094                   20234167.9734
 -23827292.33348 -18552683.04146  21019722.3284                   21019719.4694
 -56225984.01547 -43772970.68244  23846242.0944                   23846237.4694
 -41858829.39347 -32603417.74145  23080842.5084                   23080839.6914
 -16679185.61046 -12983224.98144  23799402.1254                   23799401.3094
 -11679740.33247  -9092041.82544  23152599.0394                   23152595.8674
 -29299041.02348 -22823476.56746  21203269.4384                   21203267.1954
  -8338177.88247  -6481664.04244  22656061.7734                   22656058.7114
 11  9 30  1 22 30.0000000  0  9G25G29G15G02G05G30G21G26G18
 -30205872.68747 -23523113.26844  23950807.0234                   23950808.5274
 -39512173.57848 -30775899.58147  20216505.1334                   20216502.2114
 -23962060.23748 -18657696.93646  20994076.9384                   20994074.1954
 -56245061.14347 -43787836.03644  23842611.6954                   23842607.8364
 -41857491.27547 -32602375.05145  23081096.7664                   23081094.7234
 -16700044.20446 -12999478.47544  23795433.0474                   23795432.2074
 -11826932.19147  -9206736.71045  23124589.1724                   23124585.5234
 -29380360.01648 -22886841.97546  21187794.8914                   21187792.4414
  -8482125.84447  -6593831.16844  22628669.3594                   22628666.0944
 11  9 30  1 23  0.0000000  0  9G25G29G15G02G05G30G21G26G18
 -30208021.54147 -23524787.74344  23950398.6334                   23950400.4304
 -39604470.93948 -30847819.56947  20198941.4774                   20198938.6054
 -24096325.63348 -18762319.26646  20968527.0704                   20968524.3914
 -56263994.56146 -43802589.30744  23839008.3364                   23839004.7664
 -41856121.16847 -32601307.43345  23081358.0234                   23081355.3364
 -16720688.07046 -13015564.62643  23791504.4144                   23791504.6724
 -11974160.40847  -9321459.92544  23096572.7034                   23096568.6994
 -29460993.94048 -22949673.58346  21172450.8674                   21172448.3484
  -8625822.32747  -6705802.34344  22601324.4924                   22601321.8714
 11  9 30  1 23 30.0000000  0  9G25G29G15G02G05G30G21G26G18
 -30210174.61646 -23526465.52944  23949988.3754                   23949990.6684
 -39696237.17848 -30919325.71547  20181478.7894                   20181476.0704
 -24230088.69248 -18866550.17446  20943072.9304                   20943069.8594
 -56282786.01546 -43817232.04343  23835433.1884                   23835428.8244
 -41854722.84047 -32600217.83745  23081623.5164                   23081621.7664
 -16741122.27446 -13031487.38144  23787616.0474                   23787616.6174
 -12121426.51147  -9436212.66545  23068548.7504                   23068544.9924
 -29540944.33848 -23011972.56646  21157236.5164                   21157234.1374
  -8769268.91847  -6817578.80144  22574027.6024                   22574024.5944
 11  9 30  1 24  0.0000000  0  9G25G29G15G02G05G30G21G26G18
 -30212331.66546 -23528146.38544  23949577.8754                   23949580.1294
 -39787467.86248 -30990414.53547  20164118.5634                   20164115.6804
 -24363343.96548 -18970385.39346  20917714.9224                   20917712.6214
 -56301432.37946 -43831761.69944  23831884.9454                   23831880.5354
 -41853294.39247 -32599104.77145  23081895.3834                   23081893.0314
 -16761346.68446 -13047246.68943  23783766.8444                   23783767.8054
 -12268726.98247  -9550992.22545  23040518.1094                   23040515.0004
 -29620208.16048 -23073736.55646  21142153.1564                   21142150.6294
  -8912462.41347  -6929158.05545  22546778.7814                   22546776.2664
 11  9 30  1 24 30.0000000  0  9G25G29G15G02G05G30G21G26G18
 -30214496.86847 -23529833.61544  23949166.6414                   23949168.8134
 -39878163.19348 -31061086.20247  20146859.5234                   20146856.8014
 -24496090.98648 -19073824.58746  20892454.1414                   20892451.4774
 -56319934.30946 -43846178.78644  23828364.4064                   23828360.0164
 -41851838.84847 -32597970.58445  23082172.6174                   23082170.0434
 -16781365.66946 -13062845.89544  23779957.5554                   23779958.0784
 -12416062.52247  -9665799.08445  23012481.0944                   23012477.8244
 -29698786.15548 -23134966.13346  21127200.4454                   21127198.0204
  -9055404.14647  -7040541.09845  22519577.7814                   22519575.3554
 11  9 30  1 25  0.0000000  0  9G25G29G15G02G05G30G21G26G18
 -30216673.28646 -23531529.55344  23948751.3204                   23948753.6214
 -39968322.42048 -31131340.13147  20129702.6414                   20129700.2504
 -24628327.76548 -19176866.18246  20867289.8134                   20867286.8834
 -56338291.89646 -43860483.41444  23824870.3444                   23824866.3754
 -41850358.04946 -32596816.71445  23082454.2194                   23082452.1294
 -16801182.69446 -13078287.73743  23776186.4064                   23776186.6484
 -12563433.00247  -9780633.19945  22984437.7894                   22984433.4804
 -29776678.38948 -23195661.35346  21112377.8984                   21112375.5474
  -9198094.72747  -7151728.44945  22492424.7424                   22492422.4614
 11  9 30  1 25 30.0000000  0  9G25G29G15G02G05G30G21G26G18
 -30218862.81547 -23533235.68343  23948335.3284                   23948336.2114
 -40057943.78348 -31201174.93447  20112648.2274                   20112645.5514
 -24760051.47548 -19279507.99146  20842223.8054                   20842220.9494
 -56356503.67546 -43874674.45844  23821404.1644                   23821400.5554
 -41848852.31647 -32595643.42745  23082740.6724                   23082738.4264
 -16820799.51646 -13093573.55743  23772453.3914                   23772453.3754
 -12710836.73447  -9895493.20245  22956387.4144                   22956384.0084
 -29853883.69948 -23255821.30746  21097686.4064                   21097684.2274
  -9340532.18947  -7262718.60244  22465318.9534                   22465316.7304
 11  9 30  1 26  0.0000000  0  9G25G29G15G02G05G30G21G26G18
 -30221067.67147 -23534953.85144  23947915.3914                   23947918.5664
 -40147025.85947 -31270589.52847  20095696.7584                   20095694.2774
 -24891259.31848 -19381747.81746  20817255.8834                   20817253.3404
 -56374568.95047 -43888751.28444  23817967.7584                   23817962.4734
 -41847322.97646 -32594451.74245  23083032.0474                   23083029.2734
 -16840218.78846 -13108705.47743  23768758.1094                   23768757.9104
 -12858273.08947 -10010378.65245  22928331.2194                   22928327.9224
 -29930401.49248 -23315445.53946  21083125.9304                   21083122.9304
  -9482716.70647  -7373511.64245  22438262.2894                   22438260.3364
 11  9 30  1 26 30.0000000  0  9G25G29G15G02G05G30G21G26G18
 -30223293.01247 -23536687.86844  23947493.0084                   23947494.7384
 -40235570.01348 -31339584.96047  20078847.2974                   20078844.2464
 -25021951.70548 -19483586.00346  20792385.7194                   20792382.7384
 -56392489.72646 -43902715.54643  23814556.9924                   23814553.1414
 -41845773.65546 -32593244.48545  23083326.7974                   23083324.5044
 -16859445.82646 -13123687.58944  23765098.7344                   23765099.5664
 -13005743.24947 -10125290.42945  22900268.0634                   22900265.7814
 -30006233.92448 -23374535.72146  21068694.7664                   21068691.9654
  -9624650.40847  -7484109.25945  22411253.4304                   22411250.3054
 11  9 30  1 27  0.0000000  0  9G25G29G15G02G05G30G21G26G18
 -28650120.39846 -22310839.15444  24246857.2194                   24246859.6994
 -38748151.40948 -30180557.45247  20361893.4144                   20361891.1094
 -23576701.39048 -18357416.87446  21067407.9924                   21067404.6374
 -54834844.21046 -42688965.75644  24110967.4384                   24110962.8404
 -40268785.25846 -31364422.35245  23383417.7424                   23383415.8284
 -15303062.03646 -11910921.00844  24061269.2584                   24061270.2074
 -11577821.05247  -9012623.76045  23171992.9064                   23171989.8364
 -28505957.35548 -22205489.01746  21354188.3984                   21354185.5124
  -8190907.14947  -6366906.59745  22684085.6484                   22684083.0044
 11  9 30  1 27 30.0000000  0  9G25G29G15G02G05G30G21G26G18
 -28652391.74347 -22312609.09644  24246425.4144                   24246427.0474
 -38835613.97748 -30248710.08547  20345249.8594                   20345247.5314
 -23706354.17948 -18458444.97746  21042735.4384                   21042732.9264
 -54852472.21046 -42702701.87143  24107611.6334                   24107608.4614
 -40267197.35247 -31363185.04445  23383719.7814                   23383717.7734
 -15321910.66446 -11925608.27644  24057682.5944                   24057683.1844
 -11725354.38447  -9127584.77845  23143918.4144                   23143914.4344
 -28580415.55848 -22263508.38046  21340019.0314                   21340016.3484
  -8332334.96047  -6477110.00545  22657173.0314                   22657169.5474
 11  9 30  1 28  0.0000000  0  9G25G29G15G02G05G30G21G26G18
 -28654687.96047 -22314398.39144  24245987.9774                   24245989.8954
 -38922531.95748 -30316438.36447  20328709.8284                   20328707.2854
 -23835481.57948 -18559063.67946  21018163.6094                   21018160.9144
 -54869950.75846 -42716321.50543  24104286.4224                   24104282.2974
 -40265589.65947 -31361932.30745  23384025.5634                   23384023.4454
 -15340572.24546 -11940149.82243  24054131.6804                   24054131.7194
 -11872916.05747  -9242567.86545  23115837.8284                   23115835.1764
 -28654184.31648 -22320990.50846  21325981.3984                   21325979.3094
  -8473507.75947  -6587114.72345  22630308.2584                   22630305.2504
 11  9 30  1 28 30.0000000  0  9G25G29G15G02G05G30G21G26G18
 -28657011.72347 -22316209.14344  24245545.6094                   24245547.6214
 -39008904.84348 -30383741.89347  20312273.4844                   20312271.2344
 -23964081.55248 -18659271.40746  20993691.6174                   20993689.3244
 -54887279.42946 -42729824.37343  24100988.8204                   24100984.5514
 -40263964.05347 -31360665.61545  23384335.3914                   23384333.3324
 -15359049.70846 -11954547.83743  24050615.3204                   24050615.2304
 -12020505.46547  -9357572.56145  23087752.8754                   23087749.1294
 -28727263.34448 -22377935.17746  21312074.9144                   21312072.4414
  -8614425.06447  -6696920.33245  22603493.0004                   22603489.9804
 11  9 30  1 29  0.0000000  0  9G25G29G15G02G05G30G21G26G18
 -28659368.07147 -22318045.31444  24245098.0554                   24245100.0824
 -39094733.68148 -30450621.48047  20295941.0784                   20295938.5704
 -24092154.77848 -18759068.69846  20969320.0864                   20969317.4964
 -54904460.31646 -42743212.08443  24097718.5944                   24097716.3244
 -40262324.01447 -31359387.68645  23384647.5084                   23384645.0004
 -15377348.38646 -11968806.61243  24047133.2274                   24047132.1454
 -12168124.10047  -9472600.03745  23059661.7504                   23059657.9654
 -28799655.17048 -22434344.37946  21298299.4454                   21298296.7774
  -8755088.92047  -6806528.46245  22576725.5634                   22576722.3444
 11  9 30  1 29 30.0000000  0  9G25G29G15G02G05G30G21G26G18
 -28661756.42147 -22319906.44944  24244643.1414                   24244645.6374
 -39180014.84148 -30517074.32247  20279712.6094                   20279709.9384
 -24219696.09348 -18858451.49346  20945049.5634                   20945046.9964
 -54921489.89546 -42756481.87643  24094478.8134                   24094475.5824
 -40260667.41647 -31358096.83045  23384962.8284                   23384959.7034
 -15395467.89247 -11982925.71143  24043685.1884                   24043685.1764
 -12315767.88747  -9587647.10545  23031565.7344                   23031562.5634
 -28871356.39948 -22490215.43146  21284654.7194                   21284652.6254
  -8895496.47847  -6915936.84845  22550006.2504                   22550003.5204
 11  9 30  1 30  0.0000000  0  9G25G29G15G02G05G30G21G26G18
 -28664181.69347 -22321796.30944  24244181.9774                   24244183.9774
 -39264749.59048 -30583101.37747  20263588.0784                   20263585.3794
 -24346705.65948 -18957419.94946  20920880.6564                   20920877.7234
 -54938370.08246 -42769635.34143  24091266.5864                   24091263.0124
 -40258998.09247 -31356796.08344  23385280.2894                   23385277.4534
 -15413413.36047 -11996909.20143  24040270.7734                   24040269.6454
 -12463438.74547  -9702715.24945  23003465.0554                   23003461.9844
 -28942369.39248 -22545550.21546  21271141.7274                   21271139.3054
  -9035649.85647  -7025147.22045  22523336.2344                   22523333.6294
 11  9 30  1 30 30.0000000  0  9G25G29G15G02G05G30G21G26G18
 -28666644.03347 -22323715.04144  24243713.6644                   24243715.5124
 -39348934.29948 -30648699.84047  20247568.6254                   20247566.0744
 -24473179.29248 -19055970.78646  20896813.2274                   20896810.5004
 -54955098.26546 -42782670.23043  24088082.7734                   24088079.6254
 -40257314.85547 -31355484.44744  23385600.6954                   23385597.8284
 -15431185.43547 -12010757.61144  24036889.1804                   24036889.0314
 -12611133.21747  -9817801.78945  22975359.8134                   22975357.1804
 -29012691.68648 -22600346.77246  21257759.2734                   21257757.3364
  -9175546.48747  -7134157.50345  22496714.4224                   22496711.9454
 11  9 30  1 31  0.0000000  0  9G25G29G15G02G05G30G21G26G18
 -28669148.44347 -22325666.59943  24243236.9144                   24243238.3134
 -39432570.91548 -30713871.21047  20231653.0704                   20231649.9774
 -24599116.81748 -19154103.89146  20872847.9224                   20872845.0784
 -54971675.97446 -42795587.95243  24084929.3594                   24084924.8014
 -40255621.38147 -31354164.89944  23385922.7114                   23385920.3404
 -15448789.37447 -12024474.97444  24033539.0164                   24033538.4184
 -12758853.06747  -9932908.10245  22947249.8284                   22947246.7664
 -29082325.63148 -22654606.97046  21244508.6094                   21244505.8634
  -9315188.07847  -7242969.06445  22470141.8364                   22470138.4694
 11  9 30  1 31 30.0000000  0  9G25G29G15G02G05G30G21G26G18
 -28671695.22346 -22327651.16444  24242751.4924                   24242754.6374
 -39515656.17548 -30778612.94847  20215842.2814                   20215839.2894
 -24724514.80848 -19251816.57346  20848985.9924                   20848983.1054
 -54988100.72346 -42808386.44743  24081803.6564                   24081799.3524
 -40253916.66847 -31352836.56144  23386247.2274                   23386244.8984
 -15466225.82247 -12038061.74743  24030220.6094                   24030219.7854
 -12906595.02547 -10048031.61945  22919135.1094                   22919131.8444
 -29151269.33948 -22708329.32746  21231389.0944                   21231386.1334
  -9454572.84147  -7351580.47945  22443617.4304                   22443614.8204
 11  9 30  1 32  0.0000000  0  9G25G29G15G02G05G30G21G26G18
 -28674287.59547 -22329671.23044  24242258.6484                   24242260.3754
 -39598190.06148 -30842925.05647  20200136.3284                   20200134.1804
 -24849371.63548 -19349107.57746  20825226.5634                   20825223.6024
 -55004372.64346 -42821065.82243  24078706.8364                   24078702.9574
 -40252202.47647 -31351500.85344  23386573.2114                   23386570.5004
 -15483498.22347 -12051520.79243  24026933.8134                   24026933.1374
 -13054358.93347 -10163172.24145  22891016.9614                   22891014.3444
 -29219522.93948 -22761513.92646  21218401.0234                   21218397.7974
  -9593700.69247  -7459991.73545  22417141.9144                   22417139.1374
 11  9 30  1 32 30.0000000  0  9G25G29G15G02G05G30G21G26G18
 -28676929.49046 -22331729.90743  24241756.0554                   24241758.7384
 -39680173.13948 -30906807.94547  20184535.3594                   20184533.0004
 -24973686.91348 -19445976.57546  20801569.7274                   20801567.1804
 -55020492.71246 -42833626.91843  24075639.3834                   24075635.6334
 -40250481.37247 -31350159.72544  23386901.0004                   23386897.9844
 -15500610.82447 -12064855.32343  24023677.4534                   24023676.5514
 -13202145.57647 -10278330.60545  22862893.6414                   22862890.7704
 -29287088.50848 -22814162.39346  21205543.9064                   21205541.3284
  -9732573.24347  -7568204.02945  22390715.8134                   22390713.0394
 11  9 30  1 33  0.0000000  0  9G25G29G15G02G05G30G21G26G18
 -28679621.79046 -22333827.80443  24241243.9384                   24241246.0124
 -39761602.70948 -30970259.54547  20169039.9304                   20169037.5514
 -25097457.05048 -19542420.80146  20778016.9924                   20778014.6914
 -55036459.11146 -42846068.26743  24072601.2114                   24072597.4414
 -40248753.10747 -31348813.05444  23387229.7734                   23387227.6334
 -15517565.03346 -12078066.34743  24020450.4224                   24020450.2304
 -13349952.23047 -10393504.53345  22834767.0394                   22834763.8054
 -29353964.35148 -22866273.43246  21192817.7114                   21192814.9064
  -9871188.47047  -7676215.82545  22364338.1724                   22364335.1994
 11  9 30  1 33 30.0000000  0  9G25G29G15G02G05G30G21G26G18
 -28682368.27846 -22335967.97943  24240720.8204                   24240723.2274
 -39842479.59848 -31033280.47547  20153649.6644                   20153647.0784
 -25220681.38648 -19638439.73146  20754568.3524                   20754565.4104
 -55052272.48046 -42858390.37443  24069591.7974                   24069587.7074
 -40247019.80547 -31347462.43345  23387559.8834                   23387557.3014
 -15534364.70446 -12091156.99243  24017254.5634                   24017253.6484
 -13497779.59847 -10508694.60045  22806636.3204                   22806632.8364
 -29420151.76548 -22917848.01046  21180222.6024                   21180220.2504
 -10009547.36847  -7784027.87145  22338009.4774                   22338006.2114
 11  9 30  1 34  0.0000000  0  9G25G29G15G02G05G30G21G26G18
 -28685170.38646 -22338151.47944  24240187.4144                   24240190.1174
 -39922801.99648 -31095869.33747  20138364.9304                   20138362.1024
 -25343356.95448 -19734031.02346  20731223.8524                   20731221.0784
 -55067931.28546 -42870592.05743  24066612.2814                   24066608.4264
 -40245281.58147 -31346107.99145  23387890.2664                   23387888.2544
 -15551011.71246 -12104128.63943  24014086.1334                   24014086.1484
 -13645625.39747 -10623899.03345  22778502.2114                   22778498.4384
 -29485649.97448 -22968885.55246  21167758.1644                   21167755.8554
 -10147649.32447  -7891639.71445  22311729.5164                   22311726.2384
 11  9 30  1 34 30.0000000  0  9G25G29G15G02G05G30G21G26G18
 -28688032.30546 -22340381.59343  24239643.7504                   24239645.8674
 -40002570.74248 -31158026.78347  20123185.0394                   20123182.3914
 -25465483.91948 -19829194.84946  20707983.7734                   20707981.0554
 -55083437.14946 -42882674.57843  24063661.3834                   24063657.2424
 -40243541.53347 -31344752.12944  23388221.9144                   23388219.0744
 -15567510.69846 -12116984.99443  24010946.9844                   24010946.4144
 -13793490.45647 -10739118.46245  22750364.9384                   22750360.8524
 -29550461.20448 -23019387.78946  21155425.5084                   21155423.3524
 -10285495.75347  -7999052.42245  22285498.0084                   22285494.7034
 11  9 30  1 35  0.0000000  0  9G25G29G15G02G05G30G21G26G18
 -28690954.97346 -22342659.07443  24239087.0864                   24239089.0554
 -40081783.66948 -31219751.12847  20108111.7664                   20108109.1994
 -25587058.72948 -19923928.43446  20684848.9774                   20684845.9454
 -55098787.74546 -42894636.10743  24060740.4064                   24060736.1954
 -40241798.97747 -31343394.28745  23388553.6414                   23388551.0824
 -15583862.91246 -12129726.96843  24007835.3914                   24007835.7464
 -13941372.24747 -10854350.93745  22722223.3054                   22722220.4184
 -29614583.54448 -23069353.22246  21143223.4844                   21143220.4844
 -10423084.68847  -8106264.50045  22259315.5864                   22259312.3594
 11  9 30  1 35 30.0000000  0  9G25G29G15G02G05G30G21G26G18
 -28693942.89846 -22344987.28643  24238517.7894                   24238520.4924
 -40160442.11948 -31281043.40947  20093143.5634                   20093140.8874
 -25708081.53248 -20018231.87346  20661819.1954                   20661815.9534
 -55113984.57046 -42906477.76344  24057848.6954                   24057844.9414
 -40240057.11147 -31342037.00545  23388884.4534                   23388882.3954
 -15600073.07446 -12142358.24843  24004750.7584                   24004750.1764
 -14089272.26147 -10969597.62245  22694078.9774                   22694075.6484
 -29678019.86248 -23118784.09946  21131151.7584                   21131148.9804
 -10560417.65847  -8213277.11845  22233181.6024                   22233178.5634
 11  9 30  1 36  0.0000000  0  9G25G29G15G02G05G30G21G26G18
 -27121575.48046 -21119766.02243  24537730.2584                   24537732.4884
 -38663119.90048 -30114298.80647  20378074.0864                   20378071.4964
 -24253123.77448 -18884498.52546  20938688.4924                   20938685.2154
 -53553604.19046 -41690596.94544  24354778.2194                   24354775.8834
 -38662894.23647 -30113078.91645  23689008.1884                   23689006.1214
 -14040720.75546 -10927278.55043  24301484.6414                   24301484.7274
 -12661761.64847  -9857251.61345  22965725.1954                   22965721.7934
 -28165345.21948 -21940076.56646  21419003.9224                   21419001.5784
  -9122067.75147  -7092484.90545  22506890.9614                   22506887.5394
 11  9 30  1 36 30.0000000  0  9G25G29G15G02G05G30G21G26G18
 -27124696.80746 -21122198.24943  24537135.7664                   24537139.0004
 -38740662.94448 -30174721.94647  20363318.0314                   20363315.9224
 -24373033.26548 -18977934.46246  20915870.1254                   20915867.0634
 -53568488.27146 -41702194.91344  24351946.6174                   24351942.9804
 -38661152.88547 -30111722.05945  23689340.5234                   23689338.8324
 -14056651.17346 -10939691.82543  24298453.8914                   24298452.8794
 -12809690.53647  -9972520.79445  22937575.1174                   22937571.5944
 -28227405.53948 -21988435.25046  21407194.9304                   21407191.7544
  -9258885.56147  -7199096.11145  22480854.7194                   22480851.7504
 11  9 30  1 37  0.0000000  0  9G25G29G15G02G05G30G21G26G18
 -27127889.34247 -21124686.01643  24536529.3754                   24536531.3204
 -38817647.87948 -30234710.19447  20348668.0164                   20348665.9414
 -24492384.47448 -19070935.36446  20893158.5394                   20893155.3444
 -53583216.52146 -41713671.50344  24349143.8984                   24349140.1414
 -38659414.03347 -30110367.10144  23689671.3444                   23689668.8484
 -14072446.63746 -10952000.01543  24295448.7034                   24295447.9184
 -12957633.24647 -10087800.75345  22909421.8754                   22909418.9804
 -28288779.26248 -22036258.90246  21395515.3284                   21395512.7664
  -9395446.09247  -7305506.84245  22454868.5394                   22454865.9614
 11  9 30  1 37 30.0000000  0  9G25G29G15G02G05G30G21G26G18
 -27131155.16846 -21127230.86243  24535907.8444                   24535909.7304
 -38894074.48948 -30294263.37947  20334124.9614                   20334122.0514
 -24611174.69148 -19163499.13846  20870553.4384                   20870550.5744
 -53597787.93646 -41725025.87044  24346371.0234                   24346368.0234
 -38657678.37047 -30109014.66245  23690001.6884                   23689999.3014
 -14088109.75046 -10964205.06743  24292467.6644                   24292467.7274
 -13105588.51747 -10203090.49645  22881267.2974                   22881264.3404
 -28349466.46548 -22083547.62546  21383967.1024                   21383964.1524
  -9531748.83147  -7411716.68445  22428930.7274                   22428927.7664
 11  9 30  1 38  0.0000000  0  9G25G29G15G02G05G30G21G26G18
 -27134498.39547 -21129836.02343  24535271.7194                   24535274.2774
 -38969943.40848 -30353381.99947  20319687.4844                   20319684.8094
 -24729404.32547 -19255626.09946  20848055.0864                   20848052.3054
 -53612203.59046 -41736258.82043  24343628.3444                   24343623.9414
 -38655948.85246 -30107667.01244  23690330.2974                   23690328.1804
 -14103645.02446 -10976310.43643  24289510.3834                   24289511.6994
 -13253556.79947 -10318390.39345  22853110.0864                   22853106.4694
 -28409469.58347 -22130303.27646  21372548.7974                   21372545.9694
  -9667795.73847  -7517727.17545  22403042.0164                   22403038.9924
 11  9 30  1 38 30.0000000  0  9G25G29G15G02G05G30G21G26G18
 -27137919.68446 -21132502.00243  24534620.6644                   24534623.1254
 -39045251.97548 -30412063.98347  20305357.0164                   20305354.0864
 -24847070.05147 -19347313.63946  20825663.9844                   20825660.5944
 -53626461.72146 -41747369.06243  24340915.4454                   24340910.6764
 -38654224.73646 -30106323.55944  23690657.7974                   23690656.5274
 -14119053.55146 -10988317.11043  24286577.7344                   24286580.1804
 -13401535.16447 -10433698.15145  22824950.8204                   22824947.2074
 -28468786.96547 -22176524.60646  21361260.6724                   21361258.2464
  -9803584.49147  -7623536.51345  22377201.9534                   22377199.3014
 11  9 30  1 39  0.0000000  0  9G25G29G15G02G05G30G21G26G18
 -27141420.00047 -21135229.63343  24533953.7194                   24533957.2974
 -39119998.96448 -30470308.38047  20291132.8674                   20291130.3834
 -24964168.79947 -19438559.38546  20803381.0704                   20803378.0204
 -53640560.23246 -41758354.89243  24338232.1884                   24338227.8484
 -38652505.62447 -30104983.98744  23690985.6884                   23690983.3754
 -14134336.67346 -11000226.02043  24283670.5784                   24283671.2894
 -13549521.87347 -10549012.41145  22796789.6024                   22796786.0594
 -28527417.66147 -22222210.85146  21350103.6484                   21350101.0474
  -9939113.92147  -7729143.79945  22351411.5004                   22351409.3404
 11  9 30  1 39 30.0000000  0  9G25G29G15G02G05G30G21G26G18
 -27145005.34447 -21138023.49243  24533272.0234                   24533273.7974
 -39194187.15448 -30528117.33747  20277015.6724                   20277013.1644
 -25080702.60347 -19529364.92446  20781204.8834                   20781202.2664
 -53654502.33746 -41769218.94143  24335579.5164                   24335574.9694
 -38650795.76146 -30103651.61244  23691310.8594                   23691308.2814
 -14149500.77246 -11012042.27043  24280785.4924                   24280785.5594
 -13697519.02547 -10664334.80245  22768626.6094                   22768622.6684
 -28585366.13747 -22267365.49946  21339076.5084                   21339073.9104
 -10074387.69347  -7834551.85945  22325669.8054                   22325667.2194
 11  9 30  1 40  0.0000000  0  9G25G29G15G02G05G30G21G26G18
 -27148676.29947 -21140884.05343  24532572.9144                   24532576.1564
 -39267814.31748 -30585489.13947  20263004.7034                   20263002.0474
 -25196667.92047 -19619727.47446  20759137.9144                   20759134.1954
 -53668285.98346 -41779959.40943  24332956.4844                   24332951.8444
 -38649094.65646 -30102326.07644  23691634.5084                   23691632.2194
 -14164546.88146 -11023766.47843  24277921.8524                   24277921.4534
 -13845524.03147 -10779663.33145  22740462.2034                   22740457.9964
 -28642630.97547 -22311987.45646  21328179.4774                   21328177.1294
 -10209403.72847  -7939759.08245  22299976.9614                   22299973.7934
 11  9 30  1 40 30.0000000  0  8G25G29G15G05G30G21G26G18
 -27152434.99647 -21143812.95343  24531858.0004                   24531860.8204
 -39340879.83048 -30642423.28347  20249100.7584                   20249097.9734
 -25312063.25247 -19709645.89346  20737179.0004                   20737175.9104
 -38647402.97347 -30101007.87944  23691956.8914                   23691954.4064
 -14179477.56446 -11035400.77943  24275080.2034                   24275080.1604
 -13993534.97647 -10894996.50245  22712296.0704                   22712293.0274
 -28699212.57147 -22356076.97946  21317412.4924                   21317409.4304
 -10344161.86947  -8044765.36045  22274333.5784                   22274330.1024
 11  9 30  1 41  0.0000000  0  8G25G29G15G05G30G21G26G18
 -27156282.56947 -21146811.16044  24531126.2664                   24531128.4494
 -39413381.87048 -30698918.36547  20235304.1254                   20235301.4104
 -25426885.39747 -19799117.66546  20715328.5234                   20715325.9384
 -38645720.61147 -30099696.94944  23692277.2194                   23692274.6604
 -14194294.38146 -11046946.33243  24272261.7424                   24272260.0554
 -14141550.30747 -11010333.07145  22684130.7274                   22684126.6564
 -28755110.41747 -22399633.75246  21306775.5554                   21306772.8484
 -10478660.62047  -8149569.51545  22248739.3134                   22248735.3754
 11  9 30  1 41 30.0000000  0  8G25G29G15G05G30G21G26G18
 -27160220.05147 -21149879.42543  24530377.0944                   24530380.0044
 -39485318.53348 -30754972.88947  20221614.7424                   20221612.0904
 -25541131.79448 -19888140.79946  20693588.0164                   20693585.5274
 -38644047.39147 -30098393.13444  23692595.0234                   23692592.3484
 -14208998.83046 -11058404.34843  24269463.6724                   24269462.4024
 -14289567.79247 -11125671.34545  22655963.6414                   22655960.0704
 -28810323.61947 -22442657.00446  21296268.6724                   21296266.2424
 -10612898.75747  -8254170.59745  22223194.4614                   22223190.8754
 11  9 30  1 42  0.0000000  0  8G25G29G15G05G30G21G26G18
 -27164252.32647 -21153021.57744  24529610.2274                   24529612.5394
 -39556692.34548 -30810588.83247  20208033.0164                   20208029.8404
 -25654803.61047 -19976716.21246  20671957.3984                   20671954.6764
 -38642386.38247 -30097098.83144  23692911.6644                   23692908.7194
 -14223596.24946 -11069778.93643  24266684.0474                   24266683.9024
 -14437588.54247 -11241012.16245  22627796.0784                   22627792.5704
 -28864855.56547 -22485149.41245  21285891.7274                   21285889.3284
 -10746878.69347  -8358570.49545  22197698.6954                   22197695.2584
 11  9 30  1 42 30.0000000  0  8G25G29G15G05G30G21G26G18
 -27168385.82946 -21156242.58043  24528823.7034                   24528825.3244
 -39627507.09348 -30865769.13047  20194557.4844                   20194554.6684
 -25767903.17748 -20064845.70846  20650435.1954                   20650432.0124
 -38640742.81847 -30095818.13444  23693224.8754                   23693221.2894
 -14238093.39246 -11081075.45643  24263926.9924                   24263926.5904
 -14585615.64447 -11356357.90645  22599627.1644                   22599623.1094
 -28918711.23247 -22527114.84545  21275642.7034                   21275640.4844
 -10880604.72047  -8462772.52745  22172251.1094                   22172248.0434
 11  9 30  1 43  0.0000000  0  8G25G29G15G05G30G21G26G18
 -27172627.46446 -21159547.78743  24528016.0864                   24528019.2504
 -39697766.70948 -30920516.87147  20181187.4774                   20181184.8364
 -25880433.84548 -20152531.91146  20629021.5004                   20629017.8364
 -38639122.16947 -30094555.26244  23693532.4924                   23693530.4144
 -14252497.79646 -11092299.67543  24261185.4924                   24261184.5314
 -14733652.02747 -11471710.89345  22571456.9614                   22571453.4494
 -28971895.74947 -22568557.31946  21265522.5004                   21265519.7704
 -11014081.35547  -8566780.24645  22146851.7114                   22146848.2854
 11  9 30  1 43 30.0000000  0  8G25G29G15G05G30G21G26G18
 -27176982.89946 -21162941.76343  24527187.3984                   24527190.0904
 -39767474.42248 -30974834.55347  20167922.2504                   20167919.4304
 -25992397.99648 -20239776.67246  20607715.4454                   20607712.3524
 -38637528.87647 -30093313.76144  23693835.8984                   23693834.0394
 -14266815.59546 -11103456.37143  24258461.0944                   24258459.5904
 -14881700.34247 -11587073.19945  22543284.2034                   22543280.6524
 -29024413.44847 -22609480.19245  21255528.5004                   21255526.0784
 -11147311.73947  -8670596.06045  22121498.4144                   22121495.0554
 11  9 30  1 44  0.0000000  0  8G25G29G15G05G30G21G26G18
 -27181453.63346 -21166425.54943  24526336.2814                   24526338.8164
 -39836629.03648 -31028721.25647  20154762.7194                   20154759.8714
 -26103792.77648 -20326577.76046  20586517.6254                   20586514.2464
 -38635962.90546 -30092093.53244  23694133.6254                   23694131.4614
 -14281048.70346 -11114547.08943  24255752.5314                   24255751.5434
 -15029759.31647 -11702443.78845  22515109.5314                   22515105.6724
 -29076264.24448 -22649883.40046  21245661.7114                   21245659.4844
 -11280295.14647  -8774219.43345  22096192.8284                   22096189.3954
 11  9 30  1 44 30.0000000  0  8G25G29G15G05G30G21G26G18
 -27186042.74946 -21170001.58543  24525463.7584                   24525466.0314
 -39905231.12148 -31082177.41147  20141708.2344                   20141705.1254
 -26214617.65448 -20412934.79146  20565428.2814                   20565425.3324
 -38634426.00046 -30090895.95644  23694426.8364                   23694424.1414
 -14295200.69746 -11125574.68743  24253058.7814                   24253059.0394
 -15177827.80547 -11817821.78745  22486933.4064                   22486929.9064
 -29127449.77948 -22689768.20945  21235921.5004                   21235919.1374
 -11413032.50447  -8877651.10245  22070933.6094                   22070929.8954
 11  9 30  1 45  0.0000000  0  8G25G29G15G05G30G21G26G18
 -27190751.14746 -21173670.54043  24524567.5084                   24524569.4144
 -39973279.06748 -31135201.77547  20128759.2664                   20128756.0864
 -26324869.88948 -20498845.58946  20544448.0944                   20544444.8014
 -38632917.56146 -30089720.56044  23694712.8284                   23694710.5984
 -14309272.97346 -11136540.03943  24250380.8914                   24250381.4264
 -15325903.72447 -11933205.59045  22458755.2504                   22458751.0124
 -29177969.78148 -22729134.43046  21226307.9614                   21226304.6374
 -11545522.42547  -8980889.93445  22045721.2734                   22045718.8634
 11  9 30  1 45 30.0000000  0  8G25G29G15G05G30G21G26G18
 -25620160.07646 -19949833.42943  24823441.4144                   24823443.5314
 -38465349.36448 -29960191.60647  20415708.4694                   20415705.5594
 -24859123.86348 -19356705.79346  20823369.8674                   20823366.7114
 -37056017.58647 -28860967.35844  23994787.4454                   23994784.9344
 -12747846.88646  -9919844.40743  24547509.6884                   24547509.6024
 -13898560.48047 -10820990.05745  22730369.6334                   22730365.6374
 -27652402.27648 -21540380.51946  21516614.0554                   21516611.1644
 -10102339.65147  -7856331.87645  22320349.7274                   22320346.8874
 11  9 30  1 46  0.0000000  0  8G25G29G15G05G30G21G26G18
 -25625112.42346 -19953692.50143  24822499.0004                   24822501.3054
 -38532286.78748 -30012350.62147  20402970.6024                   20402967.6994
 -24968226.07048 -19441720.48046  20802608.4844                   20802605.4924
 -37054567.39347 -28859837.34644  23995063.7194                   23995061.3204
 -12761766.53446  -9930690.90043  24544862.1334                   24544861.4414
 -14046646.84047 -10936381.98345  22702189.3284                   22702185.7974
 -27701592.07548 -21578710.20646  21507253.0474                   21507250.3794
 -10234333.35047  -7959184.04545  22295232.7034                   22295229.0234
 11  9 30  1 46 30.0000000  0  7G29G15G05G30G21G26G18
 -38598667.95548 -30064076.20547  20390338.8204                   20390336.2584
 -25076750.41648 -19526284.88146  20781956.8984                   20781954.0004
 -37053146.70047 -28858730.33744  23995333.7424                   23995331.6994
 -12775613.16946  -9941480.53143  24542227.1644                   24542226.6604
 -14194734.42047 -11051774.87545  22674009.1884                   22674005.6844
 -27750117.60148 -21616522.29546  21498019.0784                   21498016.5394
 -10366078.19447  -8061842.33045  22270162.9844                   22270159.1564
 11  9 30  1 47  0.0000000  0  7G29G15G05G30G21G26G18
 -38664491.84648 -30115367.53347  20377813.2734                   20377809.9144
 -25184694.74148 -19610397.31846  20761415.6174                   20761412.3164
 -37051755.69447 -28857646.42344  23995598.4534                   23995595.8954
 -12789388.60546  -9952214.57043  24539605.3054                   24539605.1684
 -14342822.99147 -11167168.53145  22645829.1884                   22645824.8794
 -27797978.51648 -21653816.49945  21488911.6334                   21488908.6294
 -10497573.13647  -8164305.85045  22245139.5634                   22245136.0704
 11  9 30  1 47 30.0000000  0  7G29G15G05G30G21G26G18
 -38729757.40348 -30166223.80047  20365393.2344                   20365390.2734
 -25292057.08248 -19694056.25346  20740985.6024                   20740981.8754
 -37050394.22547 -28856585.56644  23995857.9384                   23995854.9964
 -12803094.82146  -9962894.73543  24536998.1724                   24536996.4574
 -14490909.46247 -11282560.55745  22617649.0864                   22617645.5164
 -27845175.51247 -21690593.36045  21479930.2734                   21479927.5354
 -10628817.48147  -8266574.13145  22220164.5864                   22220161.1684
 11  9 30  1 48  0.0000000  0  7G29G15G05G30G21G26G18
 -38794465.19148 -30216645.44647  20353079.8674                   20353077.2424
 -25398836.98548 -19777261.34446  20720665.7974                   20720662.6994
 -37049063.73147 -28855548.82544  23996110.3204                   23996107.8524
 -12816735.26846  -9973523.63643  24534401.6254                   24534400.6604
 -14638993.80047 -11397950.89545  22589469.3524                   22589465.2304
 -27891710.23848 -21726854.16845  21471074.6724                   21471072.2194
 -10759811.87547  -8368647.63645  22195237.1484                   22195233.8554
 11  9 30  1 48 30.0000000  0  7G29G15G05G30G21G26G18
 -38858619.13148 -30266635.51347  20340871.9844                   20340868.9804
 -25505036.93848 -19860014.53346  20700456.4844                   20700453.2814
 -37047769.09846 -28854540.00344  23996357.4144                   23996354.4344
 -12830316.56146  -9984106.51943  24531816.9384                   24531816.2974
 -14787078.24147 -11513341.33545  22561290.3524                   22561286.2424
 -27937587.62248 -21762602.77045  21462344.6884                   21462342.1294
 -10890560.33747  -8470529.48145  22170356.3914                   22170352.9264
 11  9 30  1 49  0.0000000  0  7G29G15G05G30G21G26G18
 -38922225.40948 -30316198.83147  20328767.7114                   20328765.3164
 -25610662.44848 -19942320.10846  20680356.6414                   20680353.2034
 -37046517.31346 -28853564.60844  23996595.7034                   23996592.7034
 -12843847.63746  -9994650.17643  24529242.5704                   24529241.4964
 -14935168.30447 -11628736.13945  22533109.2034                   22533105.4344
 -27982814.91347 -21797844.82045  21453738.0634                   21453735.4574
 -11021068.81047  -8572224.34545  22145521.5314                   22145517.9694
 11  9 30  1 49 30.0000000  0  7G29G15G05G30G21G26G18
 -38985286.56248 -30365337.37747  20316767.9064                   20316765.1294
 -25715714.81648 -20024179.07247  20660366.0394                   20660363.1024
 -37045311.56546 -28852625.09344  23996825.1414                   23996821.7704
 -12857333.88646 -10005159.02343  24526676.2194                   24526676.0554
 -15083265.39147 -11744136.44045  22504927.4924                   22504923.6994
 -28027396.07848 -21832583.37045  21445254.3524                   21445251.8874
 -11151341.06147  -8673735.14645  22120731.3984                   22120727.6334
 11  9 30  1 50  0.0000000  0  7G29G15G05G30G21G26G18
 -39047800.77248 -30414049.74747  20304871.6804                   20304869.0634
 -25820191.00048 -20105589.05347  20640484.4064                   20640481.4454
 -37044151.26546 -28851720.93444  23997045.2974                   23997043.0274
 -12870776.31646 -10015633.60043  24524118.0234                   24524117.2854
 -15231366.44747 -11859539.81445  22476744.8524                   22476741.1564
 -28071330.58747 -21866818.05645  21436893.9144                   21436891.6094
 -11281374.74748  -8775060.04445  22095986.8594                   22095982.6484
 11  9 30  1 50 30.0000000  0  7G29G15G05G30G21G26G18
 -39109766.78648 -30462334.94547  20293080.0474                   20293077.7114
 -25924088.56948 -20186548.17746  20620713.7424                   20620710.6954
 -37043035.76946 -28850851.72944  23997257.5084                   23997255.6724
 -12884176.37146 -10026075.22843  24521569.1884                   24521568.4264
 -15379468.29847 -11974943.79545  22448561.8754                   22448557.5474
 -28114618.36447 -21900548.78345  21428656.9224                   21428654.3244
 -11411168.86547  -8876198.25845  22071287.4144                   22071283.8954
 11  9 30  1 51  0.0000000  0  7G29G15G05G30G21G26G18
 -39171185.76048 -30510193.86147  20281392.1484                   20281389.9264
 -26027407.87448 -20267056.71746  20601052.8524                   20601049.5904
 -37041966.65746 -28850018.69544  23997461.4064                   23997458.0824
 -12897537.58146 -10036486.53043  24519025.8984                   24519025.9964
 -15527571.48347 -12090348.83145  22420378.6334                   22420374.9924
 -28157261.36847 -21933777.08745  21420541.9144                   21420539.4734
 -11540723.99448  -8977150.27445  22046634.2814                   22046630.2814
 11  9 30  1 51 30.0000000  0  7G29G15G05G30G21G26G18
 -39232054.55048 -30557624.08547  20269809.1804                   20269806.7274
 -26130145.00048 -20347111.58846  20581502.3594                   20581499.3054
 -37040941.71146 -28849220.01544  23997656.5864                   23997653.4104
 -12910859.64546 -10046867.38943  24516489.3834                   24516491.4224
 -15675671.41247 -12205751.31445  22392196.2814                   22392192.2664
 -28199258.16347 -21966501.87645  21412550.3914                   21412547.5314
 -11670037.72447  -9077914.16945  22022026.4454                   22022023.0474
 11  9 30  1 52  0.0000000  0  7G29G15G05G30G21G26G18
 -39292372.67048 -30604625.20447  20258331.2344                   20258328.5944
 -26232297.95648 -20426711.27546  20562063.5944                   20562060.3554
 -37039961.13146 -28848455.93244  23997841.9774                   23997839.9774
 -12924144.81646 -10057219.46943  24513963.2734                   24513962.7584
 -15823766.45547 -12321150.00245  22364014.0864                   22364010.8324
 -28240609.36447 -21998723.57745  21404681.7734                   21404678.9064
 -11799109.38047  -9178489.43245  21997464.7974                   21997461.5594
 11  9 30  1 52 30.0000000  0  7G29G15G05G30G21G26G18
 -39352138.63148 -30651196.06547  20246958.1024                   20246954.9384
 -26333864.40448 -20505853.94046  20542735.6884                   20542732.4614
 -37039023.85546 -28847725.58644  23998021.0234                   23998018.7344
 -12937393.93246 -10067543.46143  24511440.7664                   24511441.2074
 -15971852.74047 -12436541.85845  22335834.1484                   22335830.7114
 -28281314.40547 -22030441.78945  21396935.1724                   21396932.8954
 -11927937.12647  -9278874.65345  21972949.7814                   21972946.6914
 11  9 30  1 53  0.0000000  0  7G29G15G05G30G21G26G18
 -39411351.98748 -30697336.33247  20235690.2974                   20235686.8714
 -26434842.81547 -20584538.39746  20523520.2664                   20523517.0164
 -37038130.14146 -28847029.23444  23998191.0164                   23998189.1374
 -12950609.38946 -10077841.23743  24508926.1024                   24508926.6844
 -16119929.25447 -12551926.09545  22307656.4534                   22307652.5124
 -28321374.29047 -22061657.28945  21389312.4534                   21389309.9224
 -12056521.17047  -9379069.95645  21948480.7194                   21948478.3094
 11  9 30  1 53 30.0000000  0  7G29G15G05G30G21G26G18
 -39470012.08048 -30743045.49347  20224527.3524                   20224524.1254
 -26535231.58148 -20662763.39346  20504417.0084                   20504413.7464
 -37037279.82946 -28846366.64244  23998353.0314                   23998350.5514
 -12963792.77646 -10088113.97944  24506418.0084                   24506417.7894
 -16267993.78547 -12667301.00645  22279480.5234                   22279476.8134
 -28360789.46847 -22092370.40445  21381812.1724                   21381809.3094
 -12184860.57147  -9479074.61945  21924058.9694                   21924055.2934
 11  9 30  1 54  0.0000000  0  7G29G15G05G30G21G26G18
 -39528116.91848 -30788321.98047  20213470.4384                   20213466.8284
 -26635027.30048 -20740526.27346  20485426.6334                   20485423.3594
 -37036471.63246 -28845736.87544  23998507.0634                   23998504.4224
 -12976944.61046 -10098362.23043  24503915.1484                   24503914.8244
 -16416042.85947 -12782663.86945  22251308.2274                   22251304.1724
 -28399559.36947 -22122580.72345  21374434.0084                   21374431.6254
 -12312952.94647  -9578886.82845  21899683.6094                   21899680.1524
 11  9 30  1 54 30.0000000  0  7G29G15G05G30G21G26G18
 -38010244.09648 -29605563.92947  20502312.1094                   20502309.3014
 -25158805.25248 -19590223.36246  20766342.3444                   20766338.7544
 -35460285.67046 -27617540.05444  24298445.1414                   24298442.2424
 -11414646.75646  -8880987.19743  24801209.9774                   24801210.4654
 -14988649.53647 -11670409.28545  22522932.3284                   22522927.6914
 -26862263.44747 -20924687.78945  21666971.8674                   21666969.0314
 -10865373.93347  -8450903.13945  22175148.9454                   22175145.0234
 11  9 30  1 55  0.0000000  0  7G29G15G05G30G21G26G18
 -38067236.03248 -29649973.22047  20491467.0474                   20491464.1604
 -25257409.71548 -19667058.00346  20747578.2894                   20747575.1214
 -35459560.38946 -27616974.89744  24298583.7344                   24298580.4454
 -11427740.84146  -8891190.45243  24798718.7974                   24798719.0514
 -15136660.32247 -11785742.32345  22494765.9844                   22494762.2274
 -26899744.07047 -20953893.46545  21659839.4454                   21659836.9654
 -10992970.17647  -8550328.74345  22150867.6954                   22150864.0744
 11  9 30  1 55 30.0000000  0  7G29G15G05G30G21G26G18
 -38123669.76548 -29693947.54847  20480728.0864                   20480724.8834
 -25355415.46248 -19743426.09546  20728928.5314                   20728925.6804
 -35458875.65346 -27616441.33244  24298713.7734                   24298711.4024
 -11440807.93646  -8901372.61543  24796232.6254                   24796232.1524
 -15284648.08747 -11901057.41745  22466604.9844                   22466601.5434
 -26936580.10847 -20982596.86445  21652830.3134                   21652827.1604
 -11120316.70347  -8649559.76045  22126634.6094                   22126631.2344
 11  9 30  1 56  0.0000000  0  7G29G15G05G30G21G26G18
 -38179547.14048 -29737488.35947  20470094.7034                   20470091.9734
 -25452822.89048 -19819327.97146  20710392.4924                   20710388.7854
 -35458233.23446 -27615940.74044  24298835.6884                   24298832.5514
 -11453851.96946  -8911536.75943  24793749.3594                   24793748.9614
 -15432612.68947 -12016354.48445  22438448.0864                   22438444.2814
 -26972774.43847 -21010800.24445  21645942.3524                   21645939.7774
 -11247414.90447  -8748597.27045  22102448.8594                   22102445.3094
 11  9 30  1 56 30.0000000  0  7G29G15G05G30G21G26G18
 -38234865.86248 -29780593.85047  20459567.8054                   20459564.7034
 -25549628.96548 -19894761.26246  20691970.6954                   20691967.2074
 -35457631.54646 -27615471.91944  24298950.5864                   24298947.8094
 -11466873.29946  -8921683.23442  24791272.2734                   24791271.5234
 -15580550.37847 -12131630.56645  22410296.8284                   22410292.6954
 -27008326.28047 -21038502.97845  21639176.6954                   21639174.1054
 -11374262.47147  -8847439.50845  22078310.4144                   22078307.3794
 11  9 30  1 57  0.0000000  0  7G29G15G05G30G21G26G18
 -38289625.87948 -29823263.99047  20449147.7424                   20449144.8874
 -25645832.33348 -19969724.91346  20673664.0394                   20673660.5824
 -35457070.61347 -27615034.83244  24299058.0004                   24299054.3954
 -11479874.06245  -8931813.75042  24788798.7504                   24788797.6804
 -15728459.00547 -12246883.99045  22382150.5634                   22382146.7194
 -27043236.66547 -21065705.86345  21632533.7894                   21632531.4534
 -11500858.97347  -8946086.09145  22054220.2424                   22054216.0084
 11  9 30  1 57 30.0000000  0  7G29G15G05G30G21G26G18
 -38343825.00748 -29865497.07647  20438833.6644                   20438830.4144
 -25741430.06347 -20044216.63347  20655472.1724                   20655468.8404
 -35456548.69247 -27614628.12544  24299156.1884                   24299153.4024
 -11492854.36746  -8941928.27742  24786328.3284                   24786327.9024
 -15876335.30147 -12362112.24545  22354010.6174                   22354007.3834
 -27077504.95447 -21092408.41945  21626012.6174                   21626010.3714
 -11627202.34447  -9044535.42745  22030177.8284                   22030173.6524
 11  9 30  1 58  0.0000000  0  7G29G15G05G30G21G26G18
 -38397463.82148 -29907293.55047  20428626.9144                   20428623.6134
 -25836421.92947 -20118236.24346  20637395.8594                   20637392.3164
 -35456066.73146 -27614252.60944  24299248.1254                   24299246.0664
 -11505817.28946  -8952029.21743  24783859.7194                   24783860.8984
 -16024178.08047 -12477314.37845  22325877.3754                   22325873.2424
 -27111133.00047 -21118612.08845  21619613.6484                   21619611.3364
 -11753293.23248  -9142788.04045  22006183.5314                   22006179.5634
 11  9 30  1 58 30.0000000  0  7G29G15G05G30G21G26G18
 -38450542.43748 -29948653.51247  20418526.0474                   20418523.2424
 -25930806.77848 -20191782.86346  20619434.7344                   20619431.9304
 -35455624.84846 -27613908.24844  24299332.2814                   24299329.3794
 -11518765.00546  -8962118.37942  24781397.0004                   24781396.9344
 -16171985.42247 -12592488.90045  22297750.1804                   22297746.8984
 -27144122.01147 -21144317.81545  21613335.9384                   21613333.6844
 -11879131.29848  -9240843.63345  21982237.0944                   21982233.6024
 11  9 30  1 59  0.0000000  0  7G29G15G05G30G21G26G18
 -38503060.64848 -29989576.78647  20408532.0784                   20408529.1024
 -26024582.86948 -20264855.13846  20601589.9774                   20601586.8164
 -35455222.96646 -27613595.09444  24299408.7114                   24299405.4224
 -11531699.31146  -8972197.04742  24778936.5784                   24778935.0124
 -16319754.98648 -12707633.98845  22269630.7034                   22269626.7544
 -27176472.68547 -21169526.11145  21607179.9454                   21607177.1684
 -12004715.98547  -9338701.79945  21958339.1724                   21958335.2624
 11  9 30  1 59 30.0000000  0  6G29G15G05G21G26G18
 -38555017.76848 -30030062.84947  20398645.1094                   20398642.2624
 -26117748.60948 -20337451.79746  20583861.2194                   20583857.5004
 -35454860.70146 -27613312.85344  24299477.3444                   24299475.0904
 -16467484.13348 -12822747.57245  22241519.0634                   22241514.5554
 -27208185.96247 -21194237.75645  21601145.3284                   21601142.6684
 -12130046.15948  -9436361.63145  21934489.4304                   21934485.6524
 11  9 30  2  0  0.0000000  0  6G29G15G05G21G26G18
 -38606412.84048 -30070110.95547  20388864.7274                   20388861.4654
 -26210302.49348 -20409571.68646  20566248.7034                   20566245.5944
 -35454536.96046 -27613060.58044  24299539.7584                   24299537.0394
 -16615170.38147 -12937827.73945  22213415.4844                   22213410.9654
 -27239262.17347 -21218452.98345  21595231.2814                   21595229.3164
 -12255120.97148  -9533822.48545  21910688.4694                   21910684.6724
 11  9 30  2  0 30.0000000  0  6G29G15G05G21G26G18
 -38657246.15748 -30109721.32947  20379191.6564                   20379189.0044
 -26302243.59048 -20481214.08946  20548752.7194                   20548749.3014
 -35454252.24246 -27612838.78744  24299593.5704                   24299590.9844
 -16762811.94647 -13052873.08245  22185319.6334                   22185315.9064
 -27269702.77747 -21242172.92345  21589438.9224                   21589435.9534
 -12379940.25048  -9631084.21845  21886936.0084                   21886932.5824
 11  9 30  2  1  0.0000000  0  6G29G15G05G21G26G18
 -38707518.11348 -30148894.27347  20369625.4614                   20369622.3204
 -26393571.47348 -20552378.64746  20531373.5164                   20531370.3754
 -35454007.02246 -27612647.64744  24299640.3204                   24299637.6174
 -16910407.48847 -13167882.55445  22157232.6804                   22157229.2734
 -27299509.48047 -21265398.91545  21583766.7974                   21583764.1914
 -12504504.21948  -9728147.01345  21863232.4224                   21863229.0044
 11  9 30  2  1 30.0000000  0  6G29G15G05G21G26G18
 -38757235.66848 -30187635.22347  20360164.2424                   20360161.7544
 -26484291.72648 -20623069.74646  20514110.2664                   20514106.8914
 -35453808.17046 -27612492.72944  24299677.9384                   24299676.1844
 -17057961.68747 -13282859.83645  22129154.2814                   22129150.7384
 -27328690.60547 -21288137.44245  21578213.4534                   21578211.3324
 -12628819.76048  -9825016.22545  21839576.0394                   21839572.6334
 11  9 30  2  2  0.0000000  0  6G29G15G05G21G26G18
 -38806402.55548 -30225947.08147  20350808.0004                   20350805.4104
 -26574407.29548 -20693289.66047  20496961.8754                   20496959.0784
 -35453659.53946 -27612376.92044  24299706.1334                   24299704.4884
 -17205476.32347 -13397806.27345  22101082.7734                   22101079.3134
 -27357251.04447 -21310392.34045  21572779.1094                   21572776.3634
 -12752890.09848  -9921694.36845  21815966.0234                   21815962.2974
 11  9 30  2  2 30.0000000  0  6G29G15G05G21G26G18
 -38855021.61048 -30263832.05947  20341556.1644                   20341553.6054
 -26663920.32747 -20763040.05746  20479928.1414                   20479924.4144
 -35453563.96646 -27612302.46143  24299724.4384                   24299721.1484
 -17352952.19147 -13512722.50245  22073019.3984                   22073016.0234
 -27385195.13447 -21332166.94645  21567461.2584                   21567459.3444
 -12876717.67648 -10018183.35845  21792402.3364                   21792398.8954
 11  9 30  2  3  0.0000000  0  6G29G15G05G21G26G18
 -38903092.97448 -30301290.25947  20332408.6644                   20332405.6454
 -26752829.99647 -20832320.31546  20463009.0314                   20463006.2304
 -35453521.16246 -27612269.06843  24299733.1334                   24299729.4384
 -17500387.46447 -13627607.09645  22044963.5394                   22044959.6604
 -27412524.19747 -21353462.31545  21562260.4614                   21562258.5354
 -13000302.34748 -10114483.06345  21768885.0944                   21768880.4224
 11  9 30  2  3 30.0000000  0  6G29G15G05G21G26G18
 -38950618.82148 -30338323.39647  20323364.7734                   20323361.6214
 -26841136.53948 -20901130.58346  20446205.0704                   20446201.5044
 -35453533.49546 -27612278.70743  24299730.0234                   24299727.5824
 -17647781.87547 -13742459.85645  22016915.1024                   22016911.4494
 -27439241.53047 -21374280.99445  21557176.2424                   21557173.8754
 -13123645.49948 -10210594.56945  21745413.6884                   21745409.7424
 11  9 30  2  4  0.0000000  0  6G29G15G05G21G26G18
 -37422179.02848 -29147331.34447  20614217.0314                   20614213.9694
 -25353418.41448 -19741869.68946  20729307.8754                   20729304.6294
 -33878181.94146 -26384731.99043  24599509.1414                   24599506.5664
 -16219709.51347 -12629676.15345  22288668.0634                   22288664.5634
 -25889928.79247 -20167024.33245  21852001.1254                   21851998.2114
 -11671324.48648  -9078915.81645  22021780.9304                   22021777.2504
 11  9 30  2  4 30.0000000  0  6G29G15G05G21G26G18
 -37468615.29848 -29183515.44547  20605380.7344                   20605377.4804
 -25440518.92448 -19809740.20646  20712733.5394                   20712730.0904
 -33878305.37346 -26384828.20843  24599485.6094                   24599483.9224
 -16367016.91347 -12744461.11445  22260636.4924                   22260632.7114
 -25915428.01147 -20186893.84945  21847148.8594                   21847145.9804
 -11794185.87948  -9174651.93745  21998401.4534                   21998397.2734
 11  9 30  2  5  0.0000000  0  6G29G15G05G21G26G18
 -37514508.32348 -29219276.24247  20596647.3524                   20596644.4614
 -25527016.37047 -19877140.79547  20696273.3524                   20696269.9534
 -33878485.64846 -26384968.74144  24599451.3834                   24599449.5474
 -16514279.34847 -12859211.03345  22232612.8984                   22232608.9804
 -25940321.71747 -20206291.53945  21842411.2814                   21842409.6024
 -11916807.20248  -9270200.99845  21975067.1094                   21975062.9964
 11  9 30  2  5 30.0000000  0  6G29G15G05G21G26G18
 -37559859.58448 -29254614.89447  20588017.3524                   20588014.5394
 -25612911.09147 -19944071.74346  20679928.3594                   20679924.9804
 -33878723.84646 -26385154.37343  24599406.8364                   24599404.4574
 -16661496.14947 -12973925.38145  22204598.9694                   22204594.8244
 -25964612.74147 -20225219.62045  21837788.9694                   21837786.7154
 -12039189.46448  -9365563.74845  21951778.9304                   21951774.4104
 11  9 30  2  6  0.0000000  0  7G22G29G15G05G21G26G18
  21824426.43256  17020032.87253  24740332.8204                   24740328.9384
 -37604668.86248 -29289531.20647  20579490.2894                   20579486.9924
 -25698201.64647 -20010531.89546  20663698.3284                   20663694.9494
 -33879018.96446 -26385384.34343  24599349.9774                   24599347.4184
 -16808664.47347 -13088601.95145  22176593.8834                   22176589.9414
 -25988301.62347 -20243678.47645  21833281.3364                   21833279.1214
 -12161331.76848  -9460739.54045  21928535.9064                   21928531.2934
 11  9 30  2  6 30.0000000  0  7G22G29G15G05G21G26G18
  21666122.51747  16896679.33743  24710207.9774                   24710203.1764
 -37648937.41648 -29324026.18147  20571066.3594                   20571063.6684
 -25782889.03547 -20076522.05546  20647582.7734                   20647579.3404
 -33879372.88846 -26385660.20044  24599283.1724                   24599280.8014
 -16955783.39847 -13203240.04945  22148598.0314                   22148594.3054
 -26011391.54547 -20261670.63045  21828887.3204                   21828884.8324
 -12283235.16448  -9555729.16045  21905338.0784                   21905334.0314
 11  9 30  2  7  0.0000000  0  7G22G29G15G05G21G26G18
  21507985.26646  16773455.63543  24680115.6644                   24680112.1414
 -37692662.64248 -29358097.78847  20562745.5864                   20562743.0044
 -25866969.25147 -20142039.09046  20631582.8834                   20631579.5634
 -33879782.00446 -26385978.96044  24599205.2424                   24599203.3404
 -17102847.79948 -13317835.64946  22120612.4694                   22120608.3754
 -26033880.88247 -20279194.78245  21824607.8364                   21824604.9344
 -12404896.48248  -9650530.14845  21882186.5234                   21882183.0474
 11  9 30  2  7 30.0000000  0  7G22G29G15G05G21G26G18
  21350020.02646  16650365.98843  24650056.3134                   24650051.6564
 -37735840.88348 -29391743.16947  20554528.9694                   20554526.3204
 -25950437.72048 -20207079.43847  20615698.9144                   20615695.8014
 -33880242.35746 -26386337.69244  24599118.0164                   24599115.6484
 -17249851.32647 -13432383.79445  22092638.4534                   22092634.9884
 -26055767.23247 -20296249.07545  21820442.3444                   21820440.1134
 -12526311.52347  -9745139.22445  21859081.9614                   21859078.1604
 11  9 30  2  8  0.0000000  0  7G22G29G15G05G21G26G18
  21192228.08646  16527411.34943  24620028.7814                   24620024.4694
 -37778471.71548 -29424961.99947  20546417.0164                   20546413.9694
 -26033293.31248 -20271642.21446  20599932.1564                   20599929.0824
 -33880753.46446 -26386735.97844  24599020.5554                   24599018.1054
 -17396791.73148 -13546882.77846  22064677.3134                   22064672.6174
 -26077051.53047 -20312834.23945  21816393.1484                   21816389.8914
 -12647479.37748  -9839555.69845  21836025.1954                   21836020.8284
 11  9 30  2  8 30.0000000  0  7G22G29G15G05G21G26G18
  21034612.58846  16404594.23443  24590034.8134                   24590032.6024
 -37820553.58848 -29457753.06447  20538409.0784                   20538406.1134
 -26115533.31747 -20335725.33446  20584282.1254                   20584278.9264
 -33881312.80146 -26387171.85744  24598914.0864                   24598911.8444
 -17543664.92148 -13661329.39646  22036727.8834                   22036723.6684
 -26097733.61247 -20328950.13645  21812457.3594                   21812454.3134
 -12768397.84448  -9933777.85546  21813014.6024                   21813010.6414
 11  9 30  2  9  0.0000000  0  7G22G29G15G05G21G26G18
  20877174.92546  16281915.75143  24560075.5864                   24560070.4844
 -37862085.98448 -29490115.97247  20530505.5314                   20530502.3524
 -26197156.37148 -20399327.70446  20568750.1564                   20568746.4614
 -33881919.93846 -26387644.97443  24598798.6884                   24598796.1684
 -17690467.80048 -13775721.20646  22008792.1024                   22008788.1884
 -26117814.14647 -20344597.32345  21808635.9534                   21808633.0354
 -12889066.37948 -10027805.24545  21790052.1804                   21790048.5124
 11  9 30  2  9 30.0000000  0  7G22G29G15G05G21G26G18
  20719914.23446  16159375.04843  24530150.2814                   24530145.3244
 -37903071.69148 -29522052.88047  20522706.2734                   20522703.3284
 -26278163.96148 -20462450.49446  20553334.6334                   20553331.2194
 -33882576.66546 -26388156.71344  24598673.2034                   24598670.9304
 -17837200.05248 -13890057.98646  21980869.9144                   21980865.6804
 -26137296.96647 -20359778.74345  21804928.6414                   21804925.0164
 -13009486.12548 -10121638.76345  21767136.9454                   21767134.0204
 11  9 30  2 10  0.0000000  0  7G22G29G15G05G21G26G18
  20562832.50846  16036973.89243  24500258.0004                   24500254.9024
 -37943510.42048 -29553563.58147  20515010.8754                   20515008.3134
 -26358555.12547 -20525092.94046  20538036.8134                   20538033.9614
 -33883282.29046 -26388706.55744  24598539.8204                   24598536.5864
 -17983859.55348 -14004338.08946  21952961.5634                   21952957.5314
 -26156183.09847 -20374495.20345  21801334.7894                   21801332.1254
 -13129656.95348 -10215278.33245  21744269.0634                   21744265.7194
 11  9 30  2 10 30.0000000  0  7G22G29G15G05G21G26G18
  20405927.40846  15914710.25143  24470400.6254                   24470395.3444
 -37983405.10748 -29584650.36147  20507419.0634                   20507416.2464
 -26438332.00648 -20587256.73847  20522855.8524                   20522852.6484
 -33884039.31246 -26389296.43243  24598394.3134                   24598392.7074
 -18130446.28248 -14118561.47146  21925066.7584                   21925063.1254
 -26174476.82447 -20388750.06845  21797853.4774                   21797850.6724
 -13249581.07247 -10308725.66745  21721448.5234                   21721445.1054
 11  9 30  2 11  0.0000000  0  7G22G29G15G05G21G26G18
  20249199.64346  15792584.80143  24440575.5084                   24440571.3834
 -38022756.81348 -29615314.02246  20499931.0234                   20499927.7304
 -26517494.36248 -20648941.68147  20507791.7894                   20507788.1374
 -33884848.24946 -26389926.80243  24598241.1414                   24598238.9734
 -18276959.04848 -14232727.22746  21897186.5084                   21897182.7584
 -26192180.56347 -20402545.18645  21794484.6954                   21794481.3754
 -13369258.83148 -10401981.03245  21698674.1414                   21698670.0664
 11  9 30  2 11 30.0000000  0  7G22G29G15G05G21G26G18
  20092647.76246  15670596.51143  24410785.4304                   24410780.7034
 -38061568.40648 -29645556.83146  20492545.1414                   20492542.4304
 -26596044.64748 -20710149.68546  20492844.1644                   20492840.8634
 -33885711.22146 -26390599.29444  24598077.7974                   24598074.6844
 -18423398.09548 -14346835.54446  21869320.0634                   21869315.6994
 -26209298.74347 -20415884.02045  21791226.6724                   21791224.3674
 -13488692.75348 -10495046.38146  21675946.6564                   21675943.0434
 11  9 30  2 12  0.0000000  0  7G22G29G15G05G21G26G18
  19936273.28246  15548746.41243  24381028.2344                   24381024.2584
 -38099839.97448 -29675378.83146  20485262.7664                   20485259.2894
 -26673981.79748 -20770879.91946  20478013.2974                   20478010.1024
 -33886627.33746 -26391313.17944  24597902.5004                   24597900.2344
 -18569760.33748 -14460884.02746  21841467.8054                   21841464.1134
 -26225832.13347 -20428767.18845  21788080.5234                   21788078.5354
 -13607881.90948 -10587921.01146  21653266.1484                   21653262.3404
 11  9 30  2 12 30.0000000  0  7G22G29G15G05G21G26G18
  19780074.56046  15427033.26844  24351304.2734                   24351299.8794
 -38137574.56348 -29704782.40846  20478081.7974                   20478079.2234
 -26751307.55548 -20831133.74346  20463298.2894                   20463295.3484
 -33887599.06946 -26392070.34443  24597717.7814                   24597714.8554
 -18716046.05748 -14574872.86046  21813630.9224                   21813626.5234
 -26241784.94947 -20441197.95945  21785045.4224                   21785042.1214
 -13726828.37148 -10680606.53546  21630630.6414                   21630627.4694
 11  9 30  2 13  0.0000000  0  7G22G29G15G05G21G26G18
  21199479.55146  16533063.29244  24621407.8054                   24621404.0904
 -36599349.38448 -28506165.37746  20770796.2274                   20770793.2344
 -25252597.59548 -19663307.79046  20748493.4694                   20748490.2194
 -32313204.45546 -25165269.33643  24897314.3674                   24897311.5314
 -17286826.60548 -13461195.33346  22085602.2504                   22085598.4064
 -24681736.93347 -19225576.14745  22081912.1724                   22081909.9414
 -12270106.33248  -9545498.42046  21907836.0944                   21907832.6524
 11  9 30  2 13 30.0000000  0  7G22G29G15G05G21G26G18
  21043635.01447  16411626.11344  24591751.7114                   24591747.1214
 -36636011.00648 -28534732.88746  20763820.2274                   20763816.8364
 -25328700.10048 -19722608.43746  20734011.8204                   20734008.6174
 -32314287.22146 -25166113.00443  24897108.8674                   24897105.9924
 -17432952.72847 -13575059.83145  22057795.2114                   22057790.9224
 -24696534.28047 -19237106.56245  22079096.7814                   22079093.7544
 -12388567.39748  -9637805.72245  21885293.4454                   21885289.8444
 11  9 30  2 14  0.0000000  0  7G22G29G15G05G21G26G18
  20887966.33546  16290326.03944  24562129.2504                   24562124.8324
 -36672140.18948 -28562885.49546  20756944.7664                   20756941.9104
 -25404193.54848 -19781434.48246  20719646.0164                   20719642.6564
 -32315427.13846 -25167001.30343  24896892.1484                   24896889.6134
 -17578998.47747 -13688861.68546  22030003.8054                   22029999.4224
 -24710759.51747 -19248191.15445  22076389.5084                   22076387.0944
 -12506788.42248  -9729925.97245  21862796.8364                   21862792.8134
 11  9 30  2 14 30.0000000  0  7G22G29G15G05G21G26G18
  20732472.40447  16169162.05544  24532539.3134                   24532534.1374
 -36707738.88148 -28590624.73146  20750170.5474                   20750167.5084
 -25479078.89948 -19839786.69447  20705395.5944                   20705392.6254
 -32316626.55346 -25167935.86643  24896663.3284                   24896660.5984
 -17724963.65548 -13802600.74646  22002227.1564                   22002222.8834
 -24724416.21747 -19258832.75145  22073790.8834                   22073787.9534
 -12624770.64847  -9821860.15446  21840345.8364                   21840341.3594
 11  9 30  2 15  0.0000000  0  7G22G29G15G05G21G26G18
  20577151.63846  16048133.00944  24502982.4924                   24502977.8914
 -36742810.61948 -28617953.36146  20743496.5634                   20743494.0824
 -25553358.55048 -19897666.91646  20691260.4224                   20691257.7154
 -32317887.63046 -25168918.61643  24896423.5944                   24896421.4414
 -17870848.41647 -13916277.15846  21974466.3204                   21974462.2814
 -24737508.88747 -19269034.83045  22071299.1024                   22071296.2704
 -12742516.62347  -9913610.23646  21817939.4224                   21817935.7424
 11  9 30  2 15 30.0000000  0  6G22G29G15G21G26G18
  20422005.80046  15927240.25244  24473459.3674                   24473455.3914
 -36777355.10648 -28644871.14146  20736922.8914                   20736920.4924
 -25627031.67148 -19955074.53847  20677240.9224                   20677237.7664
 -18016649.69247 -14029888.52146  21946721.2584                   21946716.9654
 -24750038.51447 -19278798.19045  22068914.8834                   22068912.6954
 -12860025.87047 -10005175.86045  21795578.2584                   21795574.1564
 11  9 30  2 16  0.0000000  0  6G22G29G15G21G26G18
  20267035.69946  15806484.47443  24443969.6174                   24443964.8484
 -36811373.01548 -28671378.61046  20730449.2194                   20730446.6684
 -25700097.75748 -20012009.13247  20663337.0474                   20663333.7544
 -18162365.12647 -14143432.98146  21918992.6884                   21918988.3594
 -24762006.92047 -19288124.23045  22066637.5084                   22066634.8794
 -12977297.97147 -10096556.70046  21773261.8594                   21773257.5314
 11  9 30  2 16 30.0000000  0  6G22G29G15G21G26G18
  20112242.26046  15685866.31643  24414512.6804                   24414507.8794
 -36844865.11248 -28697476.34546  20724076.4614                   20724073.3364
 -25772557.18848 -20068471.02046  20649548.1334                   20649545.4884
 -18307992.51347 -14256908.83346  21891280.8204                   21891276.3204
 -24773416.43847 -19297014.77345  22064466.2814                   22064464.2854
 -13094332.71547 -10187752.56746  21750990.6724                   21750986.9694
 11  9 30  2 17  0.0000000  0  6G22G29G15G21G26G18
  19957621.17446  15565382.46643  24385089.1024                   24385084.2304
 -36877836.84448 -28723168.61546  20717801.8674                   20717799.3914
 -25844414.32048 -20124463.57546  20635874.4384                   20635871.4804
 -18453534.63347 -14370318.24946  21863585.1414                   21863580.3444
 -24784273.64347 -19305474.92945  22062399.7114                   22062397.4144
 -13211134.87047 -10278767.21746  21728764.1564                   21728760.4844
 11  9 30  2 17 30.0000000  0  6G22G29G15G21G26G18
  19803169.68846  15445030.77043  24355697.4774                   24355693.0984
 -36910293.19448 -28748459.27446  20711625.4844                   20711623.1764
 -25915673.23848 -20179989.98747  20622314.4224                   20622311.1334
 -18598992.81047 -14483662.24446  21835905.1174                   21835900.4224
 -24794584.02047 -19313508.98045  22060437.7504                   22060434.9534
 -13327708.16847 -10369603.53246  21706581.3674                   21706577.6294
 11  9 30  2 18  0.0000000  0  6G22G29G15G21G26G18
  19648882.47046  15324807.11543  24326338.4304                   24326333.1684
 -36942240.67248 -28773353.42146  20705546.2114                   20705543.5124
 -25986339.52248 -20235054.62247  20608867.1174                   20608863.5744
 -18744371.16647 -14596944.05546  21808240.4534                   21808236.3134
 -24804356.19547 -19321123.67845  22058578.4144                   22058576.2974
 -13444058.89747 -10460266.41945  21684439.8444                   21684436.1174
 11  9 30  2 18 30.0000000  0  6G22G29G15G21G26G18
  19494758.25846  15204710.41243  24297008.5554                   24297004.1484
 -36973682.51648 -28797853.55546  20699562.7814                   20699560.4104
 -26056416.17248 -20289659.78447  20595531.9064                   20595528.6564
 -18889669.74548 -14710163.69846  21780590.9144                   21780586.8484
 -24813594.13347 -19328322.08545  22056820.6804                   22056818.0044
 -13560189.10547 -10550757.46445  21662341.2664                   21662337.6214
 11  9 30  2 19  0.0000000  0  6G22G29G15G21G26G18
  19340793.57146  15084738.05743  24267709.9454                   24267705.1094
 -37004623.56148 -28821963.46846  20693675.5864                   20693672.7344
 -26125906.04448 -20343807.73846  20582308.4694                   20582305.1724
 -19034889.90648 -14823322.24146  21752956.2584                   21752952.1524
 -24822304.22547 -19335109.18545  22055163.3984                   22055160.4384
 -13676102.93247 -10641079.91746  21640284.1254                   21640279.7114
 11  9 30  2 19 30.0000000  0  6G22G29G15G21G26G18
  19186988.31746  14964889.90043  24238441.7664                   24238436.5394
 -37035065.49448 -28845684.45146  20687882.3914                   20687879.7194
 -26194810.44748 -20397499.47647  20569196.4224                   20569193.2034
 -19180030.67647 -14936418.91946  21725337.2194                   21725332.8164
 -24830489.28247 -19341487.15445  22053606.5004                   22053603.1884
 -13791800.52047 -10731233.85745  21618267.4384                   21618262.6524
 11  9 30  2 20  0.0000000  0  6G22G29G15G21G26G18
  19033342.48246  14845165.96243  24209204.3674                   24209199.6644
 -37065010.09748 -28869017.91246  20682183.9614                   20682181.2544
 -26263130.71148 -20450736.04446  20556195.2734                   20556192.5744
 -19325090.59248 -15049452.58946  21697732.9064                   21697728.7154
 -24838152.16347 -19347458.24345  22052147.5554                   22052145.2034
 -13907283.21047 -10821220.34146  21596291.6414                   21596287.7234
 11  9 30  2 20 30.0000000  0  6G22G29G15G21G26G18
  18879858.20146  14725567.95443  24179996.4534                   24179992.5274
 -37094457.01848 -28891963.56446  20676580.6174                   20676578.1764
 -26330865.45148 -20503516.34447  20543305.6334                   20543303.2974
 -19470065.63448 -15162420.13846  21670145.4064                   21670141.1024
 -24845293.62047 -19353023.01745  22050788.5394                   22050786.0084
 -14022549.64047 -10911038.32446  21574356.9614                   21574352.7304
 11  9 30  2 21  0.0000000  0  6G22G29G15G21G26G18
  18726534.12046  14606094.73343  24150820.2664                   24150816.2774
 -37123409.28448 -28914523.78446  20671071.2274                   20671068.1334
 -26398016.90248 -20555842.13946  20530527.2424                   20530524.5234
 -19614955.94948 -15275321.66046  21642574.0634                   21642568.9924
 -24851918.09047 -19358184.96345  22049527.2274                   22049525.3244
 -14137601.59648 -11000689.17846  21552463.3754                   21552459.2034
 11  9 30  2 21 30.0000000  0  7G22G29G09G15G21G26G18
  18573371.25946  14486747.10543  24121673.7974                   24121669.1954
 -37151867.43148 -28936698.96946  20665655.8594                   20665652.6954
  23383361.05456  18235834.17353  24746995.9774                   24746993.6294
 -26464584.30048 -20607712.83947  20517860.2974                   20517857.0204
 -19759758.64848 -15388154.92246  21615018.5864                   21615014.6994
 -24858027.04047 -19362945.21045  22048365.5704                   22048363.0474
 -14252438.72848 -11090172.61546  21530610.5704                   21530606.3914
 11  9 30  2 22  0.0000000  0  7G22G29G09G15G21G26G18
  18420366.03846  14367522.39143  24092558.8054                   24092553.2814
 -37179836.77948 -28958493.26346  20660333.4064                   20660330.0824
  23213377.79546  18103379.70143  24714649.6024                   24714646.4144
 -26530572.79148 -20659132.42847  20505302.6484                   20505299.4774
 -19904476.01348 -15500921.67946  21587479.5004                   21587475.6564
 -24863627.32847 -19367309.06445  22047299.1954                   22047297.3874
 -14367065.85048 -11179492.43446  21508797.9064                   21508793.4224
 11  9 30  2 22 30.0000000  0  7G22G29G09G15G21G26G18
  19842947.54947  15476027.52944  24363266.5314                   24363261.4534
 -35631894.10348 -27752304.17646  20954897.1024                   20954893.9144
  24618721.99746  19198453.21343  24982077.3524                   24982074.7624
 -25020556.88448 -19482496.66447  20792649.6414                   20792645.7854
 -18473677.40647 -14386013.66846  21859751.4384                   21859747.3874
 -23293297.51147 -18143675.46545  22346123.5004                   22346121.2384
 -12906055.35247 -10041042.67346  21786818.5164                   21786814.4844
 11  9 30  2 23  0.0000000  0  7G22G29G09G15G21G26G18
  19690270.63446  15357058.61244  24334213.1334                   24334208.1954
 -35658877.81848 -27773330.44746  20949762.0314                   20949759.0594
  24448550.28046  19065851.94843  24949694.7114                   24949693.0554
 -25085376.73848 -19533005.63147  20780314.4844                   20780311.2274
 -18618205.94047 -14498633.28446  21832248.4614                   21832243.8324
 -23297875.79347 -18147242.96644  22345251.8054                   22345249.4734
 -13020250.66347 -10130026.01046  21765088.1884                   21765084.6844
 11  9 30  2 23 30.0000000  0  7G22G29G09G15G21G26G18
  19537764.86546  15238223.00244  24305192.6174                   24305187.6884
 -35685364.55147 -27793969.46246  20944722.0704                   20944718.4654
  24278295.54047  18933185.95643  24917296.7584                   24917294.3164
 -25149606.79548 -19583055.02447  20768091.9224                   20768088.9414
 -18762630.80347 -14611172.13446  21804765.2584                   21804761.3714
 -23301940.64547 -18150410.39445  22344479.1024                   22344475.8054
 -13134223.99247 -10218836.36646  21743399.6804                   21743395.4104
 11  9 30  2 24  0.0000000  0  7G22G29G09G15G21G26G18
  19385432.03446  15119522.19844  24276204.8284                   24276199.7704
 -35711354.27547 -27814221.21246  20939776.3594                   20939773.1094
  24107962.49846  18800458.97143  24884882.5004                   24884879.9144
 -25213246.26648 -19632644.21847  20755981.9614                   20755978.3714
 -18906948.63147 -14723627.57946  21777302.8594                   21777298.5744
 -23305493.03947 -18153178.52845  22343803.0234                   22343799.7464
 -13247974.68547 -10307473.24145  21721753.6724                   21721748.9224
 11  9 30  2 24 30.0000000  0  7G22G29G09G15G21G26G18
  19233271.33546  15000955.52144  24247248.8524                   24247244.0704
 -35736849.94647 -27834087.96346  20934924.7894                   20934921.2894
  23937553.12846  18667672.51544  24852454.3984                   24852453.1294
 -25276297.47748 -19681775.02246  20743983.3834                   20743980.4104
 -19051158.83347 -14835999.14946  21749860.3914                   21749856.3484
 -23308537.08547 -18155550.50345  22343223.7584                   22343220.6484
 -13361504.59347 -10395938.07946  21700149.3834                   21700145.3674
 11  9 30  2 25  0.0000000  0  7G22G29G09G15G21G26G18
  19081284.06846  14882523.97444  24218326.7734                   24218322.3364
 -35761851.25847 -27853569.51646  20930166.9064                   20930163.8484
  23767071.84346  18534830.02943  24820013.3984                   24820011.4734
 -25338759.41448 -19730446.65046  20732097.2664                   20732093.9804
 -19195257.90147 -14948284.12046  21722439.1174                   21722435.2814
 -23311073.80047 -18157527.19445  22342740.7974                   22342738.2894
 -13474812.40447 -10484229.84946  21678587.6644                   21678583.3674
 11  9 30  2 25 30.0000000  0  7G22G29G09G15G21G26G18
  18929469.32446  14764226.84344  24189437.3594                   24189432.5704
 -35786361.00147 -27872668.00846  20925502.8204                   20925499.9964
  23596520.63846  18401933.00143  24787558.4144                   24787556.2624
 -25400634.01548 -19778660.61747  20720323.0784                   20720319.7894
 -19339244.87947 -15060481.73946  21695039.4844                   21695035.1914
 -23313107.11347 -18159111.59345  22342353.7504                   22342351.4844
 -13587899.58747 -10572349.70346  21657068.1724                   21657063.8594
 11  9 30  2 26  0.0000000  0  7G22G29G09G15G21G26G18
  18777826.12146  14646063.40444  24160580.5554                   24160576.1914
 -35810382.03147 -27891385.70946  20920931.6334                   20920928.6214
  23425901.34446  18268983.10043  24755090.1024                   24755088.5044
 -25461923.17148 -19826418.39647  20708659.8984                   20708657.2934
 -19483119.31148 -15172591.66746  21667661.4224                   21667656.6684
 -23314641.10247 -18160306.95345  22342062.3444                   22342060.0124
 -13700768.20247 -10660299.23546  21635589.6954                   21635586.0394
 11  9 30  2 26 30.0000000  0  7G22G29G09G15G21G26G18
  18626355.19146  14528034.19544  24131755.4774                   24131751.1374
 -35833916.02547 -27909723.89446  20916453.2664                   20916450.8524
  23255217.72046  18135982.86143  24722609.6644                   24722607.9804
 -25522627.55348 -19873720.51046  20697109.0164                   20697105.4574
 -19626879.02047 -15284612.20346  21640304.8054                   21640299.8674
 -23315678.30247 -18161115.14744  22341864.9144                   22341862.0784
 -13813417.98647 -10748078.27546  21614153.1174                   21614149.6254
 11  9 30  2 27  0.0000000  0  7G22G29G09G15G21G26G18
  18475053.81746  14410137.11743  24102964.0554                   24102959.2074
 -35856967.13547 -27927685.81246  20912067.1334                   20912064.0474
  23084470.66246  18002933.27843  24690117.9454                   24690115.6134
 -25582750.94548 -19920569.89847  20685666.8984                   20685663.9144
 -19770524.72847 -15396543.90746  21612969.7194                   21612965.6684
 -23316223.87247 -18161540.28644  22341761.1094                   22341758.3674
 -13925852.44047 -10835689.50946  21592757.6094                   21592753.4184
 11  9 30  2 27 30.0000000  0  7G22G29G09G15G21G26G18
  18323921.53446  14292371.80443  24074204.9614                   24074200.2584
 -35879537.31847 -27945272.96446  20907772.2734                   20907769.2234
  22913662.58546  17869836.12443  24657615.3054                   24657612.3244
 -25642294.51048 -19966967.47547  20674336.7504                   20674333.7114
 -19914055.15547 -15508385.76846  21585656.6804                   21585652.0864
 -23316281.41147 -18161585.11244  22341750.4454                   22341747.3364
 -14038072.57447 -10923133.74846  21571402.6414                   21571398.1334
 11  9 30  2 28  0.0000000  0  7G22G29G09G15G21G26G18
  18172961.63346  14174740.77143  24045477.4614                   24045473.0864
 -35901625.42047 -27962484.47846  20903568.7344                   20903566.0354
  22742799.67446  17736696.25643  24625100.8984                   24625098.1914
 -25701256.36248 -20012911.77047  20663116.0004                   20663113.0204
 -20057465.23047 -15620133.85046  21558366.7974                   21558361.8404
 -23315850.55547 -18161249.40744  22341832.0944                   22341830.0084
 -14150075.68547 -11010408.86946  21550089.1954                   21550085.1414
 11  9 30  2 28 30.0000000  0  7G22G29G09G15G21G26G18
  18022170.48546  14057241.28843  24016782.5004                   24016777.7074
 -35923237.02347 -27979324.69946  20899456.3984                   20899453.4224
  22571881.33745  17603513.11342  24592576.1334                   24592572.7114
 -25759641.40648 -20058406.60246  20652006.1484                   20652003.0124
 -20200756.99147 -15731789.74446  21531099.1724                   21531094.4184
 -23314937.99847 -18160538.32345  22342005.6254                   22342003.3014
 -14261866.15447 -11097518.30246  21528816.1094                   21528811.9804
 11  9 30  2 29  0.0000000  0  7G22G29G09G15G21G26G18
  17871547.06947  13939872.46444  23988120.6884                   23988116.0984
 -35944374.92147 -27995795.78846  20895433.9534                   20895431.0164
  22400909.58245  17470288.48743  24560040.3204                   24560037.6174
 -25817451.74748 -20103453.61247  20641005.4844                   20641002.1684
 -20343929.32847 -15843352.58646  21503854.3444                   21503850.2384
 -23313547.74647 -18159455.05744  22342270.0314                   22342267.7384
 -14373445.81947 -11184463.48246  21507582.8834                   21507579.6914
 11  9 30  2 29 30.0000000  0  7G22G29G09G15G21G26G18
  17721091.59247  13822634.51743  23959489.8134                   23959484.5944
 -35965040.90847 -28011899.16346  20891501.2344                   20891498.3484
  22229887.45845  17337024.50842  24527495.2974                   24527493.5594
 -25874688.52948 -20148053.70646  20630113.6174                   20630110.2234
 -20486980.88247 -15954821.30846  21476632.9304                   21476628.3524
 -23311682.78847 -18158001.85244  22342625.0704                   22342622.6884
 -14484815.23047 -11271244.79646  21486390.2034                   21486386.4964
 11  9 30  2 30  0.0000000  0  7G22G29G09G15G21G26G18
  17570804.43947  13705527.69843  23930891.6174                   23930886.4884
 -35985236.34347 -28027635.87446  20887658.3204                   20887654.7854
  22058818.41145  17203723.99043  24494943.5554                   24494941.0004
 -25931352.28548 -20192207.27547  20619330.7344                   20619326.9614
 -20629909.40548 -16066194.15646  21449434.1954                   21449430.2154
 -23309345.48446 -18156180.60644  22343070.5234                   22343067.0824
 -14595974.56147 -11357862.44646  21465237.4614                   21465233.2304
 11  9 30  2 30 30.0000000  0  7G22G29G09G15G21G26G18
  17420685.07946  13588551.65243  23902323.8284                   23902319.5434
 -36004964.15247 -28043008.19046  20883904.2424                   20883901.5944
  21887705.25945  17070389.11943  24462381.3594                   24462379.9774
 -25987444.74548 -20235915.68047  20608656.8054                   20608652.8874
 -20772713.13848 -16177469.78346  21422259.5864                   21422254.9064
 -23306539.68446 -18153994.29444  22343604.0704                   22343601.2894
 -14706924.98047 -11444317.29446  21444124.2114                   21444120.5234
 11  9 30  2 31  0.0000000  0  7G22G29G09G15G21G26G18
  17270731.06547  13471704.43443  23873788.6174                   23873783.8794
 -36024228.35648 -28058019.26646  20880238.6024                   20880235.3754
  21716548.83446  16937020.51843  24429810.9534                   24429808.9454
 -26042969.52547 -20279181.72946  20598090.6644                   20598087.1214
 -20915393.09348 -16288648.94246  21395108.2734                   21395104.0354
 -23303270.44047 -18151446.82044  22344225.9774                   22344223.2774
 -14817669.60147 -11530611.79846  21423050.2194                   21423046.3524
 11  9 30  2 31 30.0000000  0  7G22G29G09G15G21G26G18
  18696367.66347  14582590.15343  24145078.8444                   24145072.9804
 -34467609.63848 -26845069.62246  21176453.0634                   21176450.4184
  23120778.64346  18031225.67043  24697027.4384                   24697023.6414
 -24522505.77048 -19094404.77147  20887425.2194                   20887421.6094
 -19482521.78748 -15172125.83146  21667774.6564                   21667770.1884
 -21724120.35047 -16920940.28944  22644728.4384                   22644725.8094
 -13352784.39947 -10389142.77246  21701808.4144                   21701804.5204
 11  9 30  2 32  0.0000000  0  7G22G29G09G15G21G26G18
  18546744.37447  14466000.66044  24116606.5784                   24116601.1604
 -34485952.06748 -26859362.42246  21172962.4694                   21172959.6954
  22949545.24646  17897797.03743  24664442.2974                   24664440.0514
 -24576898.69048 -19136788.86346  20877074.4304                   20877070.9924
 -19624947.80547 -15283107.12046  21640672.1334                   21640667.3164
 -21719933.24147 -16917677.60944  22645525.4534                   22645522.1844
 -13463118.69647 -10475117.53746  21680812.7664                   21680808.1724
 11  9 30  2 32 30.0000000  0  8G22G29G09G15G06G21G26G18
  18397285.64547  14349539.34544  24088165.4384                   24088160.1214
 -34503837.68148 -26873299.27046  21169558.6724                   21169556.2034
  22778276.99346  17764341.31343  24631851.4614                   24631848.2504
 -24630728.56547 -19178734.22246  20866831.0784                   20866827.6334
  26533410.19956  20690360.50953  24935018.6094                   24935016.2424
 -19767245.20647 -15393988.20246  21613593.5784                   21613589.7544
 -21715292.57647 -16914061.52944  22646408.9064                   22646405.5474
 -13573249.55948 -10560933.76046  21659855.5234                   21659851.3874
 11  9 30  2 33  0.0000000  0  8G22G29G09G15G06G21G26G18
  18247992.16447  14233206.83044  24059756.3524                   24059750.2504
 -34521267.20348 -26886880.71746  21166242.3284                   21166239.2854
  22606978.37146  17630861.91743  24599254.5234                   24599251.6094
 -24683995.45547 -19220240.87547  20856694.6884                   20856691.2664
  26363431.57946  20557909.64443  24902673.5554                   24902670.3324
 -19909410.94247 -15504766.67646  21586540.3524                   21586536.2114
 -21710200.58847 -16910093.76344  22647377.4614                   22647374.9224
 -13683177.01248 -10646591.49746  21638936.6564                   21638932.2734
 11  9 30  2 33 30.0000000  0  8G22G29G09G15G06G21G26G18
  18098864.91447  14117003.84844  24031378.0164                   24031372.4734
 -34538241.90048 -26900107.77046  21163012.4144                   21163008.8594
  22435653.15846  17497361.79443  24566651.7424                   24566649.2464
 -24736700.05848 -19261309.40046  20846665.2344                   20846662.4064
  26193721.17546  20425667.91843  24870377.7584                   24870375.2154
 -20051442.20448 -15615440.37946  21559512.6484                   21559508.1564
 -21704659.25247 -16905775.87244  22648431.5554                   22648429.2854
 -13792900.73548 -10732090.47246  21618057.3834                   21618053.0434
 11  9 30  2 34  0.0000000  0  8G22G29G09G15G06G21G26G18
  17949906.34647  14000932.33444  24003032.0474                   24003027.1094
 -34554761.46648 -26912980.16146  21159868.3754                   21159865.4454
  22264306.92346  17363845.26343  24534045.3054                   24534043.3554
 -24788841.37448 -19301938.98746  20836743.6024                   20836739.9804
  26024283.66546  20293638.74343  24838135.0164                   24838133.0124
 -20193334.71048 -15726005.94646  21532511.1884                   21532507.2424
 -21698669.30146 -16901108.38644  22649571.9224                   22649568.1484
 -13902419.14048 -10817429.46946  21597216.3134                   21597212.1804
 11  9 30  2 34 30.0000000  0  8G22G29G09G15G06G21G26G18
  17801119.00347  13884994.20844  23974718.2504                   23974712.0704
 -34570825.31348 -26925497.45446  21156812.1724                   21156808.8874
  22092945.56146  17230316.94943  24501436.5634                   24501434.5664
 -24840418.13348 -19342128.66046  20826928.3674                   20826925.1644
  25855124.16946  20161826.16643  24805945.1804                   24805942.6844
 -20335084.32848 -15836460.18446  21505537.2034                   21505533.3554
 -21692231.28946 -16896091.75844  22650796.5474                   22650793.9844
 -14011730.05948 -10902606.79346  21576415.6174                   21576410.9654
 11  9 30  2 35  0.0000000  0  8G22G29G09G15G06G21G26G18
  17652505.96746  13769191.90544  23946437.6954                   23946433.2074
 -34586432.43048 -26937658.85746  21153841.7894                   21153838.6764
  21921575.53746  17096781.94443  24468826.4534                   24468823.9264
 -24891428.69247 -19381877.14147  20817221.7114                   20817218.1684
  25686248.28446  20030234.64943  24773808.6414                   24773807.3324
 -20476685.45748 -15946798.69546  21478591.5944                   21478586.9964
 -21685344.92346 -16890725.76244  22652107.5234                   22652104.4804
 -14120831.14048 -10987620.61046  21555654.1644                   21555650.2504
 11  9 30  2 35 30.0000000  0  8G22G29G09G15G06G21G26G18
  17504066.35647  13653524.75944  23918189.8674                   23918186.0394
 -34601585.27948 -26949466.27446  21150958.3984                   21150955.5234
  21750199.21446  16963241.93543  24436213.6414                   24436211.6454
 -24941874.87947 -19421185.86046  20807621.9304                   20807619.1604
  25517657.72745  19898865.43443  24741727.0394                   24741724.4734
 -20618137.25447 -16057020.86446  21451674.2194                   21451669.8134
 -21678014.03746 -16885013.43344  22653502.2734                   22653499.9694
 -14229723.53847 -11072471.81246  21534932.7894                   21534928.6954
 11  9 30  2 36  0.0000000  0  8G22G29G09G15G06G21G26G18
  17355801.40446  13537993.72544  23889976.2504                   23889972.0594
 -34616284.98348 -26960920.60046  21148161.2344                   21148157.9144
  21578821.20946  16829700.65344  24403602.2664                   24403599.9614
 -24991757.06047 -19460055.08346  20798129.4064                   20798126.3364
  25349355.97545  19767721.36443  24709700.0704                   24709696.6954
 -20759436.75747 -16167124.36946  21424785.5634                   21424781.2304
 -21670240.30246 -16878955.98244  22654981.7974                   22654979.2774
 -14338406.91247 -11157160.13246  21514251.0084                   21514246.9694
 11  9 30  2 36 30.0000000  0  8G22G29G09G15G06G21G26G18
  17207710.98547  13422598.63544  23861795.7584                   23861791.2384
 -34630533.73748 -26972023.53546  21145449.5784                   21145446.6294
  21407444.41846  16696160.34043  24370989.8204                   24370988.0004
 -25041076.68147 -19498485.95346  20788744.2504                   20788740.6524
  25181345.33345  19636804.02042  24677727.6884                   24677725.2504
 -20900581.75948 -16277107.47146  21397926.8364                   21397922.2734
 -21662027.49147 -16872556.41944  22656544.1334                   22656541.7624
 -14446881.97648 -11241686.13446  21493608.7504                   21493604.5864
 11  9 30  2 37  0.0000000  0  8G22G29G09G15G06G21G26G18
  17059793.37447  13307338.25744  23833648.2584                   23833644.8054
 -34644335.15848 -26982777.90146  21142823.1334                   21142819.6684
  21236070.53146  16562622.34343  24338378.7424                   24338377.1564
 -25089836.81748 -19536480.86247  20779465.7584                   20779462.7274
  25013626.99045  19506114.52342  24645812.2894                   24645809.3404
 -21041572.11748 -16386970.06546  21371097.5474                   21371092.4534
 -21653379.85647 -16865818.02544  22658189.8984                   22658187.0234
 -14555150.85548 -11326051.46846  21473005.5314                   21473001.6564
 11  9 30  2 37 30.0000000  0  8G22G29G09G15G06G21G26G18
  16912048.00546  13192212.06744  23805533.7194                   23805529.1334
 -34657691.94648 -26993185.79646  21140281.5864                   21140278.6644
  21064702.15946  16429088.62143  24305767.9844                   24305766.1024
 -25138039.67748 -19574041.52946  20770292.7664                   20770289.7974
  24846202.47445  19375653.91042  24613952.7194                   24613949.0664
 -21182406.56548 -16496711.18446  21344297.0864                   21344293.0434
 -21644301.29247 -16858743.83144  22659917.3914                   22659914.6604
 -14663215.11548 -11410257.36546  21452441.9924                   21452437.5004
 11  9 30  2 38  0.0000000  0  8G22G29G09G15G06G21G26G18
  16764473.00947  13077218.63644  23777450.8834                   23777445.5474
 -34670607.87648 -27003250.17246  21137823.6804                   21137821.1214
  20893340.88346  16295560.35144  24273159.5864                   24273157.2624
 -25185688.25548 -19611170.29146  20761225.9224                   20761222.5944
  24679072.69845  19245422.99242  24582148.5784                   24582145.3954
 -21323084.65548 -16606330.46946  21317526.8364                   21317522.4884
 -21634796.33347 -16851337.41044  22661726.2114                   22661723.6334
 -14771076.94048 -11494305.51646  21431916.0634                   21431912.0514
 11  9 30  2 38 30.0000000  0  8G22G29G09G15G06G21G26G18
  16617066.52047  12962356.50944  23749399.6414                   23749394.2034
 -34683086.99648 -27012974.17046  21135448.8674                   21135446.3164
  20721988.20546  16162038.83643  24240553.0704                   24240549.5204
 -25232785.94748 -19647869.78546  20752263.5634                   20752260.4574
  24512238.32745  19115422.29342  24550399.6954                   24550398.4344
 -21463606.30048 -16715827.83646  21290786.6254                   21290782.4924
 -21624869.93347 -16843602.57344  22663615.2974                   22663612.9804
 -14878738.48347 -11578197.59446  21411429.0004                   21411425.0594
 11  9 30  2 39  0.0000000  0  8G22G29G09G15G06G21G26G18
  16469830.22547  12847626.98644  23721381.3134                   23721376.5904
 -34695129.87348 -27022358.23546  21133157.6334                   21133154.9064
  20550649.13946  16028527.90343  24207946.9924                   24207945.1254
 -25279332.86348 -19684140.10946  20743405.9454                   20743402.5664
  24345703.10445  18985654.61843  24518710.0234                   24518709.4494
 -21603967.89348 -16825200.49846  21264076.7504                   21264072.3524
 -21614523.82446 -16835540.67044  22665583.6024                   22665581.3284
 -14986199.11748 -11661933.13446  21390979.9384                   21390975.9844
 11  9 30  2 39 30.0000000  0  8G22G29G09G15G06G21G26G18
  16322761.08547  12733027.71644  23693395.6334                   23693389.3524
 -34706741.48648 -27031406.25746  21130947.4924                   21130945.0274
  20379323.66446  15895027.55743  24175344.2344                   24175341.9104
 -25325333.18348 -19719984.50146  20734652.2194                   20734648.8874
  24179466.53346  18856119.74243  24487076.6094                   24487074.5204
 -21744170.32048 -16934449.12446  21237396.9774                   21237392.4264
 -21603763.68946 -16827156.19444  22667632.5704                   22667628.7734
 -15093462.36448 -11745514.86146  21370568.4304                   21370564.2304
 11  9 30  2 40  0.0000000  0  8G22G29G09G15G06G21G26G18
  16175856.91947  12618556.99544  23665440.6024                   23665435.7194
 -34717925.82748 -27040121.34146  21128819.5634                   21128817.1134
  20208013.71146  15761539.36243  24142745.3594                   24142743.0744
 -25370790.13848 -19755405.50546  20726001.8524                   20725998.3954
  24013529.35546  18726818.14543  24455500.2424                   24455498.9694
 -21884213.29748 -17043573.51746  21210747.5784                   21210743.3554
 -21592594.64746 -16818453.06344  22669757.4614                   22669754.6134
 -15200530.59648 -11828944.64146  21350193.9454                   21350189.9654
 11  9 30  2 40 30.0000000  0  8G22G29G09G15G06G21G26G18
  16029116.99847  12504214.29244  23637516.3444                   23637511.2304
 -34728686.38948 -27048506.20246  21126772.1024                   21126769.4494
  20036721.70946  15628065.09543  24110150.7344                   24110146.7194
 -25415706.50448 -19790405.26746  20717454.7894                   20717451.0824
  23847892.89546  18597750.86643  24423980.8364                   24423978.9734
 -22024095.88648 -17152572.90846  21184129.2734                   21184124.3634
 -21581020.57546 -16809434.32144  22671959.5944                   22671956.4844
 -15307405.45748 -11912223.72946  21329856.5394                   21329852.1094
 11  9 30  2 41  0.0000000  0  8G22G29G09G15G06G21G26G18
  17457966.36547  13617603.47444  23909417.3914                   23909413.0394
 -33163604.24948 -25828961.69746  21424597.2424                   21424594.7344
  21440876.82146  16722211.91343  24377351.8984                   24377348.8914
 -23884662.01548 -18597383.58546  21008802.6094                   21008799.4964
  25257985.50746  19696524.39543  24692312.9144                   24692310.1414
 -20588391.07648 -16033841.87646  21457334.2034                   21457330.2304
 -19993624.93346 -15572502.65744  22974030.4534                   22974027.6024
 -13838663.49148 -10767749.45746  21609348.5474                   21609344.8954
 11  9 30  2 41 30.0000000  0  8G22G29G09G15G06G21G26G18
  17311552.77247  13503515.00144  23881555.4384                   23881550.7234
 -33173524.74948 -25836691.95646  21422709.1254                   21422706.7814
  21269628.65246  16588771.86843  24344764.4384                   24344761.1374
 -23928503.89048 -18631546.09346  21000459.9224                   21000456.7304
  25092956.19446  19567930.20943  24660908.0554                   24660906.3834
 -20727948.75248 -16142588.11146  21430777.7974                   21430773.8134
 -19981252.19046 -15562861.60444  22976384.9384                   22976382.4024
 -13945155.00648 -10850729.83746  21589083.9774                   21589079.8014
 11  9 30  2 42  0.0000000  0  8G22G29G09G15G06G21G26G18
  17165300.24347  13389552.05844  23853724.8834                   23853719.6214
 -33183030.52548 -25844099.07546  21420900.5314                   21420897.7584
  21098405.48046  16455351.20043  24312181.7344                   24312178.3554
 -23971812.71048 -18665293.21646  20992218.6414                   20992215.1994
  24928232.35246  19439574.03244  24629561.8054                   24629560.2504
 -20867342.66848 -16251206.73246  21404251.7504                   21404247.5744
 -19968486.60647 -15552914.41844  22978814.8594                   22978811.8954
 -14051457.44448 -10933562.88746  21568855.0944                   21568851.0594
 11  9 30  2 42 30.0000000  0  8G22G29G09G15G06G21G26G18
  17019209.46547  13275715.13044  23825925.1024                   23825920.0394
 -33192123.05948 -25851184.17446  21419170.0474                   21419167.4024
  20927211.65646  16321953.45543  24279604.6884                   24279601.8914
 -24014589.04348 -18698625.42346  20984078.4774                   20984074.5664
  24763816.90746  19311458.23244  24598275.1644                   24598272.9924
 -21006570.29148 -16359695.77546  21377757.8284                   21377752.8594
 -19955330.35747 -15542662.80344  22981317.8364                   22981314.9344
 -14157571.21248 -11016248.92946  21548662.7664                   21548658.1334
 11  9 30  2 43  0.0000000  0  8G22G29G09G15G06G21G26G18
  16873278.60547  13162002.82844  23798155.6724                   23798149.6684
 -33200806.65548 -25857950.62046  21417517.9924                   21417514.5354
  20756048.30346  16188579.43143  24247032.6564                   24247030.3444
 -24056836.72248 -18731545.69246  20976038.9614                   20976035.7664
  24599710.43546  19183583.12443  24567046.7114                   24567044.1994
 -21145631.15648 -16468054.87346  21351295.2424                   21351290.5784
 -19941788.84347 -15532110.97744  22983895.3594                   22983892.1294
 -14263498.86948 -11098789.94046  21528505.3204                   21528500.6914
 11  9 30  2 43 30.0000000  0  8G22G29G09G15G06G21G26G18
  16727509.32046  13048416.42744  23770416.0704                   23770410.6174
 -33209081.27148 -25864398.38946  21415943.3524                   21415940.1134
  20584920.91546  16055233.43043  24214469.0554                   24214466.0594
 -24098555.43548 -18764053.78346  20968100.2114                   20968096.8794
  24435917.25946  19055952.12744  24535878.0944                   24535875.2234
 -21284521.29948 -16576280.94746  21324865.5234                   21324861.0744
 -19927862.91047 -15521259.62644  22986545.2344                   22986542.7194
 -14369238.39548 -11181184.35146  21508383.8754                   21508379.4844
 11  9 30  2 44  0.0000000  0  8G22G29G09G15G06G21G26G18
  16581898.91147  12934953.81244  23742706.7894                   23742702.3284
 -33216951.81948 -25870531.29046  21414445.8754                   21414443.0394
  20413830.30046  15921916.10943  24181911.5704                   24181908.7774
 -24139749.69948 -18796153.20346  20960261.1094                   20960257.6024
  24272437.17246  18928565.17643  24504768.1414                   24504765.6804
 -21423241.13348 -16684374.30546  21298467.5394                   21298463.1484
 -19913558.38247 -15510113.25044  22989266.7034                   22989264.2934
 -14474793.48948 -11263435.05546  21488297.2664                   21488292.9694
 11  9 30  2 44 30.0000000  0  8G22G29G09G15G06G21G26G18
  16436447.36446  12821614.98644  23715028.9384                   23715023.2584
 -33224420.87648 -25876351.34246  21413024.3674                   21413021.1334
  20242779.85647  15788630.07544  24149361.7894                   24149358.8594
 -24180421.53248 -18827845.54446  20952521.6724                   20952518.1724
  24109272.44046  18801423.88543  24473719.8524                   24473715.4454
 -21561788.73148 -16792333.45746  21272103.1094                   21272098.6294
 -19898878.41847 -15498674.31944  22992061.2814                   22992058.2304
 -14580165.07548 -11345542.76946  21468245.3524                   21468241.5084
 11  9 30  2 45  0.0000000  0  8G22G29G09G15G06G21G26G18
  16291152.84046  12708398.53144  23687380.4064                   23687375.4414
 -33231492.23448 -25881861.49746  21411678.6644                   21411675.7664
  20071771.16547  15655376.56744  24116820.3134                   24116817.4534
 -24220573.50548 -18859132.79446  20944881.2424                   20944877.4224
  23946423.77046  18674528.84543  24442730.3284                   24442726.5204
 -21700164.18948 -16900158.47446  21245771.0634                   21245766.8954
 -19883827.88546 -15486946.67544  22994925.1414                   22994921.7384
 -14685355.05748 -11427508.97846  21448228.6724                   21448224.1094
 11  9 30  2 45 30.0000000  0  8G22G29G09G15G06G21G26G18
  16146013.44846  12595302.95344  23659760.7734                   23659755.7934
 -33238170.06648 -25887065.01446  21410407.9454                   21410405.6134
  19900805.60846  15522156.69844  24084285.8364                   24084283.7464
 -24260209.69248 -18890018.13846  20937338.3524                   20937334.9184
  23783891.68246  18547880.57243  24411802.1174                   24411797.2544
 -21838366.68648 -17007848.71346  21219472.0864                   21219467.8834
 -19868411.73347 -15474934.10444  22997858.1644                   22997855.7154
 -14790366.13348 -11509335.77146  21428245.3594                   21428241.3014
 11  9 30  2 46  0.0000000  0  8G22G29G09G15G06G21G26G18
  16001030.94146  12482329.61144  23632171.0944                   23632166.8794
 -33244454.71448 -25891962.15046  21409211.9064                   21409208.6484
  19729888.92446  15388974.84443  24051761.7504                   24051758.4304
 -24299329.66948 -18920501.23946  20929894.0474                   20929890.5474
  23621680.62646  18421482.42043  24380932.9694                   24380928.9574
 -21976392.21148 -17115401.05846  21193206.7974                   21193202.0704
 -19852630.99246 -15462637.44144  23000861.3134                   23000859.0474
 -14895196.09048 -11591021.43046  21408296.7504                   21408292.3484
 11  9 30  2 46 30.0000000  0  8G22G29G09G15G06G21G26G18
  15856202.33446  12369476.20244  23604611.8754                   23604606.5004
 -33250351.11348 -25896556.75946  21408090.0704                   21408086.9264
  19559021.56646  15255831.48943  24019246.5234                   24019244.3984
 -24337938.02748 -18950585.67046  20922547.1724                   20922543.3714
  23459789.88746  18295333.88143  24350126.2584                   24350121.9454
 -22114241.24448 -17222815.87846  21166974.5944                   21166970.1454
 -19836491.58346 -15450061.24244  23003932.6414                   23003930.1724
 -14999849.40048 -11672569.44746  21388382.2424                   21388378.0664
 11  9 30  2 47  0.0000000  0  8G22G29G09G15G06G21G26G18
  15711527.30546  12256742.45844  23577080.7974                   23577074.7854
 -33255862.19448 -25900851.12846  21407040.9224                   21407038.0164
  19388206.89847  15122729.18243  23986742.0004                   23986739.6604
 -24376036.88348 -18980273.09646  20915297.0394                   20915293.7424
  23298221.79346  18169436.69443  24319380.9924                   24319378.3834
 -22251912.55648 -17330092.20346  21140776.7194                   21140772.4774
 -19819997.09846 -15437208.46444  23007071.5004                   23007069.3754
 -15104326.66048 -11753980.28446  21368500.7034                   21368495.6054
 11  9 30  2 47 30.0000000  0  8G22G29G09G15G06G21G26G18
  15567004.92347  12144127.65144  23549578.8134                   23549573.3284
 -33260990.93748 -25904847.56246  21406065.2894                   21406062.7424
  19217447.19746  14989669.71643  23954246.9924                   23954243.9574
 -24413629.31648 -19009565.90146  20908143.5164                   20908140.1564
  23136977.58846  18043791.90043  24288696.6484                   24288694.0594
 -22389404.76648 -17437228.98646  21114612.6484                   21114608.3954
 -19803151.53946 -15424082.06844  23010276.9534                   23010274.7034
 -15208629.33248 -11835255.07646  21348652.8134                   21348647.9884
 11  9 30  2 48  0.0000000  0  8G22G29G09G15G06G21G26G18
  15422635.06447  12031631.70644  23522106.1954                   23522100.6484
 -33265739.70048 -25908547.90846  21405161.5864                   21405159.1134
  19046746.33246  14856656.08544  23921763.4534                   23921760.2664
 -24450716.60848 -19038465.09046  20901086.2274                   20901082.7664
  22976060.04446  17918401.64643  24258075.4534                   24258071.8364
 -22526715.33248 -17544224.21646  21088483.6564                   21088478.9654
 -19785957.71946 -15410684.31044  23013549.2194                   23013546.4224
 -15312757.70948 -11916394.07046  21328837.4924                   21328833.6374
 11  9 30  2 48 30.0000000  0  8G22G29G09G15G06G21G26G18
  15278416.39247  11919253.56244  23494662.4304                   23494656.6764
 -33270111.79748 -25911954.75646  21404329.4144                   21404327.1884
  18876106.42946  14723689.96043  23889291.7734                   23889290.0234
 -24487301.65548 -19066972.91046  20894124.2114                   20894120.8094
  22815470.25446  17793266.83143  24227516.2344                   24227512.5044
 -22663842.97748 -17651076.92546  21062388.9304                   21062384.4844
 -19768420.09946 -15397018.65143  23016885.8984                   23016883.6644
 -15416713.89548 -11997398.87546  21309055.5944                   21309051.0474
 11  9 30  2 49  0.0000000  0  8G22G29G09G15G06G21G26G18
  15134349.30247  11806993.52544  23467247.6484                   23467241.4144
 -33274109.66048 -25915069.99246  21403568.6174                   21403566.0124
  18705531.00246  14590774.09244  23856832.6254                   23856829.5434
 -24523385.91948 -19095090.52046  20887257.4304                   20887254.0084
  22655210.80947  17668389.41043  24197019.6334                   24197017.2344
 -22800785.90548 -17757785.69646  21036329.5314                   21036325.2814
 -19750541.07146 -15383086.96844  23020288.2274                   23020285.5984
 -15520498.14048 -12078269.70146  21289305.9844                   21289302.0634
 11  9 30  2 49 30.0000000  0  8G22G29G09G15G06G21G26G18
  14990432.18547  11694850.38844  23439861.0474                   23439855.4184
 -33277736.80747 -25917896.34246  21402878.6414                   21402875.7854
  18535022.02746  14457909.97844  23824385.9774                   23824383.1564
 -24558973.09047 -19122820.78346  20880485.6884                   20880482.1764
  22495282.56347  17543770.03844  24166586.3984                   24166583.2894
 -22937543.26648 -17864349.85746  21010305.4774                   21010301.3524
 -19732325.82446 -15368893.24644  23023754.8524                   23023752.2774
 -15624112.21548 -12159007.91846  21269588.8754                   21269584.6564
 11  9 30  2 50  0.0000000  0  8G22G29G09G15G06G21G26G18
  14846664.10647  11582823.34244  23412503.0004                   23412497.6954
 -33280996.08348 -25920436.03146  21402258.4384                   21402255.5634
  18364582.80246  14325100.22943  23791951.6094                   23791949.9694
 -24594065.32848 -19150165.38446  20873807.6804                   20873804.4414
  22335687.40346  17419410.20544  24136216.9844                   24136213.6054
 -23074113.29848 -17970768.05746  20984317.4384                   20984312.7384
 -19713777.60047 -15354440.11744  23027284.3594                   23027281.9454
 -15727557.25048 -12239614.43246  21249903.6804                   21249899.3204
 11  9 30  2 50 30.0000000  0  8G22G29G09G15G06G21G26G18
  16278469.71947  12698516.07244  23684966.1724                   23684960.2774
 -31708470.16147 -24695091.17646  21701499.9924                   21701497.4804
  19769642.39946  15419951.86843  24059326.0314                   24059323.8444
 -23053243.52948 -17949525.03246  21167016.6174                   21167012.6334
  23751852.73146  18522915.74143  24405703.8444                   24405700.7734
 -21635069.34948 -16849435.11346  21258158.0394                   21258153.4454
 -18119480.50547 -14112130.72044  23330668.7424                   23330666.3054
 -14255410.83748 -11092487.34446  21530043.9534                   21530039.2934
 11  9 30  2 51  0.0000000  0  8G22G29G09G15G06G21G26G18
  16134997.14647  12586719.31644  23657664.0634                   23657659.1254
 -31711003.70847 -24697065.38046  21701018.0944                   21701015.1524
  19599350.78147  15287257.12544  24026920.7424                   24026918.6174
 -23087354.02747 -17976104.62946  21160525.8284                   21160522.0594
  23592928.10046  18399078.43643  24375461.3674                   24375458.5204
 -21771260.58348 -16955558.14446  21232241.9614                   21232237.1094
 -18100278.42647 -14097168.07444  23334322.8134                   23334320.5864
 -14358522.27848 -11172833.90046  21510422.6334                   21510418.2154
 11  9 30  2 51 30.0000000  0  8G22G29G09G15G06G21G26G18
  15991673.14047  12475038.33744  23630389.9614                   23630384.1054
 -31713176.84947 -24698758.74646  21700604.6564                   21700601.3444
  19429139.39747  15154624.92544  23994531.0004                   23994529.1294
 -23120975.37348 -18002303.07446  21154127.3444                   21154124.2384
  23434343.25646  18275505.82843  24345284.1804                   24345280.3914
 -21907258.35648 -17061530.43546  21206362.3134                   21206358.2424
 -18080753.05447 -14081953.50044  23338038.9614                   23338035.8634
 -14461466.96448 -11253050.53246  21490832.5634                   21490828.4104
 11  9 30  2 52  0.0000000  0  8G22G29G09G15G06G21G26G18
  15848493.64247  12363469.93144  23603144.5314                   23603138.6764
 -31714996.02247 -24700176.29446  21700258.1174                   21700255.7624
  19259007.57747  15022054.67744  23962155.7894                   23962152.7424
 -23154113.85148 -18028125.27646  21147821.5784                   21147817.6724
  23276096.47046  18152196.68343  24315169.6414                   24315168.7384
 -22043063.94748 -17167352.96446  21180519.4064                   21180514.3714
 -18060911.29847 -14066492.40644  23341814.6174                   23341811.4614
 -14564249.04048 -11333140.43846  21471273.8524                   21471270.0234
 11  9 30  2 52 30.0000000  0  8G22G29G09G15G06G21G26G18
  15705459.78647  12252015.02644  23575925.9774                   23575920.9774
 -31716462.25047 -24701318.83146  21699979.6024                   21699976.6914
  19088960.10347  14889550.15744  23929796.1804                   23929794.8594
 -23186769.71248 -18053571.39146  21141607.6094                   21141603.9654
  23118191.44246  18029153.87543  24285122.2114                   24285119.2854
 -22178674.00348 -17273023.12646  21154713.6884                   21154709.2464
 -18040755.30047 -14050786.45944  23345650.0784                   23345647.9104
 -14666867.96448 -11413103.23346  21451746.0864                   21451741.5514
 11  9 30  2 53  0.0000000  0  8G22G29G09G15G06G21G26G18
  15562569.82147  12140672.25444  23548734.8364                   23548729.4534
 -31717579.64847 -24702189.53546  21699766.6954                   21699763.3244
  18918998.74447  14757112.77844  23897453.5004                   23897452.0124
 -23218946.60948 -18078644.29446  21135484.1954                   21135480.9924
  22960628.57446  17906377.65743  24255138.6024                   24255136.3244
 -22314088.19548 -17378540.67946  21128945.3054                   21128940.7664
 -18020289.60046 -14034839.22344  23349544.3754                   23349542.3834
 -14769326.08548 -11492940.71546  21432248.9064                   21432245.0514
 11  9 30  2 53 30.0000000  0  8G22G29G09G15G06G21G26G18
  15419823.65546  12029441.52544  23521571.1564                   23521565.8594
 -31718350.41247 -24702790.14146  21699620.7894                   21699616.7154
  18749127.28747  14624745.40344  23865128.8364                   23865125.4384
 -23250646.21747 -18103345.28846  21129451.5084                   21129448.5744
  22803410.71446  17783870.33843  24225220.2664                   24225217.7114
 -22449304.30448 -17483903.87346  21103214.2344                   21103209.6484
 -17999517.02747 -14018652.78344  23353497.3054                   23353495.3524
 -14871623.74348 -11572653.17246  21412782.7274                   21412778.7734
 11  9 30  2 54  0.0000000  0  8G22G29G09G15G06G21G26G18
  15277221.58647  11918323.07044  23494434.5394                   23494430.2154
 -31718776.87848 -24703122.45546  21699538.6024                   21699535.8524
  18579349.55447  14492451.09844  23832821.9304                   23832818.3484
 -23281870.53348 -18127675.92246  21123510.4844                   21123506.5664
  22646540.16646  17661633.60043  24195369.4534                   24195366.9734
 -22584319.46048 -17589110.48846  21077521.8594                   21077517.1604
 -17978440.41347 -14002229.49144  23357508.0864                   23357506.7424
 -14973761.22348 -11652240.80746  21393346.6644                   21393341.7774
 11  9 30  2 54 30.0000000  0  8G22G29G09G15G06G21G26G18
  15134762.70147  11807316.21144  23467325.6174                   23467320.0234
 -31718861.74547 -24703188.61046  21699523.1094                   21699519.8404
  18409668.46847  14360232.08744  23800531.6724                   23800529.4224
 -23312621.59648 -18151637.78246  21117658.6094                   21117655.0634
  22490018.85446  17539669.00243  24165584.7194                   24165580.6684
 -22719131.60948 -17694158.90246  21051867.7584                   21051863.5164
 -17957063.54547 -13985572.23944  23361575.7664                   23361574.0204
 -15075739.50548 -11731704.39346  21373940.9064                   21373936.1414
 11  9 30  2 55  0.0000000  0  8G22G29G09G15G06G21G26G18
  14992444.65146  11696419.04044  23440242.8834                   23440238.0784
 -31718610.26048 -24702992.66046  21699570.9694                   21699567.6764
  18240085.33047  14228089.40244  23768260.7114                   23768259.0434
 -23342903.92248 -18175234.40546  21111895.9534                   21111892.7774
  22333846.35246  17417976.16843  24135866.0944                   24135862.0204
 -22853741.72848 -17799049.89646  21026252.5554                   21026247.8284
 -17935391.89047 -13968685.26544  23365700.1564                   23365697.8284
 -15177561.75048 -11811046.38746  21354564.6094                   21354560.3984
 11  9 30  2 55 30.0000000  0  8G22G29G09G15G06G21G26G18
  14850266.93647  11585631.24844  23413187.1564                   23413182.6334
 -31718024.66647 -24702536.37846  21699682.4454                   21699678.8754
  18070603.68446  14096025.80944  23736010.0234                   23736007.5354
 -23372719.87448 -18198467.61046  21106222.3984                   21106218.6094
  22178025.02846  17296557.06743  24106214.0084                   24106210.1094
 -22988147.45848 -17903781.63346  21000675.6254                   21000671.3244
 -17913428.66547 -13951571.11144  23369879.1414                   23369877.6644
 -15279227.73648 -11890266.62446  21335218.1024                   21335213.9104
 11  9 30  2 56  0.0000000  0  8G22G29G09G15G06G21G26G18
  14708230.58647  11474953.65544  23386158.5784                   23386153.3714
 -31717106.58348 -24701820.97846  21699857.2114                   21699853.8094
  17901228.05947  13964044.80244  23703778.7194                   23703776.0474
 -23402070.55848 -18221338.27846  21100637.1414                   21100633.7774
  22022558.10347  17175413.95943  24076629.8284                   24076626.1094
 -23122345.54448 -18008351.55346  20975138.7344                   20975134.3834
 -17891175.83747 -13934231.26243  23374114.2734                   23374112.2304
 -15380738.16648 -11969365.64746  21315901.3674                   21315896.7464
 11  9 30  2 56 30.0000000  0  8G22G29G09G15G06G21G26G18
  14566335.03747  11364385.71544  23359157.0004                   23359151.4844
 -31715858.67847 -24700848.61546  21700093.7584                   21700090.9144
  17731961.80047  13832149.04744  23671568.0554                   23671565.2304
 -23430957.89248 -18243847.88346  21095139.9614                   21095136.7384
  21867447.51047  17054548.63944  24047112.8364                   24047109.6254
 -23256334.11748 -18112758.23446  20949641.8674                   20949637.1804
 -17868636.85747 -13916668.43243  23378403.1564                   23378400.6484
 -15482093.63248 -12048343.92646  21296614.1644                   21296609.3164
 11  9 30  2 57  0.0000000  0  8G22G29G09G15G06G21G26G18
  14424578.34247  11253926.02444  23332181.6414                   23332176.2624
 -31714285.49747 -24699622.77046  21700393.2424                   21700390.8914
  17562806.15847  13700339.48544  23639378.9454                   23639375.3754
 -23459386.09648 -18265999.73446  21089730.2664                   21089726.8164
  21712693.35847  16933961.06343  24017664.4064                   24017660.2974
 -23390112.62148 -18217001.21446  20924184.3984                   20924179.8364
 -17845816.92047 -13898886.70044  23382745.6884                   23382743.2624
 -15583296.50648 -12127203.29946  21277355.5084                   21277351.0004
 11  9 30  2 57 30.0000000  0  8G22G29G09G15G06G21G26G18
  14282960.29947  11143574.33744  23305232.7584                   23305227.0204
 -31712389.34247 -24698145.27246  21700754.6484                   21700752.2034
  17393765.06647  13568619.20044  23607211.5944                   23607208.5554
 -23487357.48948 -18287795.63446  21084407.0634                   21084404.3284
  21558298.21747  16813653.17444  23988283.7344                   23988280.5124
 -23523678.70248 -18321078.68546  20898767.8054                   20898763.4304
 -17822718.98447 -13880888.30043  23387141.3984                   23387138.3554
 -15684347.13248 -12205944.03446  21258126.2814                   21258121.9844
 11  9 30  2 58  0.0000000  0  8G22G29G09G15G06G21G26G18
  14141481.84647  11033331.41244  23278310.2194                   23278304.6024
 -31710171.73747 -24696417.27046  21701176.5864                   21701173.8954
  17224843.13347  13436991.73744  23575066.4454                   23575064.5204
 -23514872.34148 -18309235.78446  21079171.7664                   21079168.3634
  21404265.08747  16693627.40144  23958972.2814                   23958969.7154
 -23657029.10848 -18424988.07646  20873392.0234                   20873386.8834
 -17799344.83347 -13862674.64743  23391589.3914                   23391586.2584
 -15785245.27548 -12284565.95746  21238926.1334                   21238921.6374
 11  9 30  2 58 30.0000000  0  8G22G29G09G15G06G21G26G18
  14000139.71347  10923194.72844  23251414.5084                   23251407.9654
 -31707638.17947 -24694443.08946  21701658.2584                   21701655.9144
  17056040.96347  13305457.60844  23542944.4454                   23542942.2854
 -23541935.76048 -18330324.16246  21074021.7274                   21074018.1604
  21250593.51547  16573883.36744  23929729.2584                   23929727.0664
 -23790164.45648 -18528729.89146  20848057.1024                   20848052.4734
 -17775700.46247 -13844250.46043  23396088.9534                   23396085.1094
 -15885994.33748 -12363071.71246  21219754.1484                   21219750.0664
 11  9 30  2 59  0.0000000  0  8G22G29G09G15G06G21G26G18
  13858933.75347  10813164.15444  23224543.7344                   23224537.8244
 -31704791.11547 -24692224.62146  21702200.0944                   21702197.9264
  16887362.27147  13174019.71244  23510846.2424                   23510843.2504
 -23568550.15348 -18351062.65246  21068956.8754                   21068953.1564
  21097285.42147  16454422.53243  23900555.6954                   23900553.7464
 -23923082.75448 -18632302.58246  20822763.7894                   20822758.9614
 -17751789.43147 -13825618.53443  23400638.9924                   23400635.8554
 -15986594.73548 -12441461.62446  21200610.5314                   21200606.4224
 11  9 30  2 59 30.0000000  0  8G22G29G09G15G06G21G26G18
  13717864.76947  10703240.30544  23197698.9534                   23197693.1684
 -31701632.27147 -24689763.19446  21702801.3984                   21702798.5634
  16718811.51147  13042681.49244  23478772.0634                   23478768.3284
 -23594716.70648 -18371452.16746  21063977.2894                   21063973.9264
  20944343.94547  16335247.42044  23871452.2274                   23871450.4224
 -24055780.59848 -18735703.48546  20797512.3134                   20797507.7424
 -17727613.60346 -13806780.26843  23405239.0554                   23405236.9884
 -16087045.87248 -12519735.23646  21181495.4224                   21181491.2074
 11  9 30  3  0  0.0000000  0  8G22G29G09G15G06G21G26G18
  15152356.71647  11821026.27844  23470673.4694                   23470667.8204
 -30122744.55547 -23459461.09846  22003253.8364                   22003250.9144
  18125817.40447  14139049.73444  23746516.5554                   23746513.7934
 -22045017.44048 -17163894.29246  21358875.5944                   21358872.3914
  22367195.76747  17443963.13844  24142211.9924                   24142209.3834
 -22612832.04548 -17611327.99246  21072096.2424                   21072091.3984
 -16127757.19946 -12560138.87543  23709681.1644                   23709679.6804
 -14611925.96648 -11370291.13946  21462201.5004                   21462197.0084
 11  9 30  3  0 30.0000000  0  8G22G29G09G15G06G21G26G18
  15011558.99847  11711313.81745  23443880.3594                   23443874.7704
 -30118971.71647 -23456521.23646  22003971.8594                   22003968.5634
  17957531.24647  14007917.67344  23714492.7734                   23714490.2774
 -22070296.71447 -17183592.44046  21354065.3754                   21354061.2624
  22214992.12247  17325362.93744  24113248.3284                   24113245.7464
 -22745084.28048 -17714381.66246  21046929.6564                   21046924.6484
 -16103062.93646 -12540896.67743  23714380.2274                   23714377.9614
 -14712083.13048 -11448335.67146  21443142.2814                   21443137.5084
 11  9 30  3  1  0.0000000  0  8G22G29G09G15G06G21G26G18
  14870894.79147  11601705.36744  23417112.8914                   23417107.7304
 -30114897.37047 -23453346.42946  22004747.2034                   22004743.6954
  17789380.85647  13876891.42644  23682494.8134                   23682491.5984
 -22095137.22548 -17202948.67246  21349338.0474                   21349334.0704
  22063158.80046  17207051.28844  24084355.2584                   24084352.2194
 -22877112.00048 -17817260.40846  21021805.3054                   21021800.6174
 -16078115.72146 -12521457.32643  23719128.1564                   23719125.0314
 -14812095.58848 -11526267.45246  21424110.2114                   21424105.6994
 11  9 30  3  1 30.0000000  0  8G22G29G09G15G06G21G26G18
  14730363.47647  11492200.48944  23390370.9614                   23390364.9144
 -30110524.49947 -23449939.01546  22005579.3364                   22005576.2194
  17621369.44947  13745973.48244  23650523.1094                   23650520.0514
 -22119541.56448 -17221965.04746  21344693.9384                   21344690.7704
  21911697.42047  17089029.49944  24055532.9064                   24055530.5084
 -23008913.48548 -17919962.86246  20996724.0704                   20996719.3164
 -16052919.15846 -12501823.72343  23723922.6254                   23723920.8914
 -14911964.25248 -11604087.16646  21405105.8754                   21405101.5084
 11  9 30  3  2  0.0000000  0  8G22G29G09G15G06G21G26G18
  14589965.13747  11382799.23645  23363653.5314                   23363648.3594
 -30105855.53147 -23446300.86646  22006468.2734                   22006464.9024
  17453500.97347  13615166.90544  23618578.0234                   23618575.4064
 -22143511.71148 -17240643.07546  21340132.9384                   21340129.4774
  21760610.70246  16971299.59944  24026782.6804                   24026779.2464
 -23140486.05847 -18022486.93646  20971686.6484                   20971682.1914
 -16027476.12247 -12481998.00043  23728764.8444                   23728761.8014
 -15011689.55547 -11681795.19746  21386128.7504                   21386124.4224
 11  9 30  3  2 30.0000000  0  9G22G29G09G15G06G14G21G26G18
  14449699.28947  11273501.20145  23336962.6254                   23336956.4964
 -30100893.10847 -23442434.06045  22007412.0314                   22007409.4534
  17285778.85447  13484474.36944  23586661.5554                   23586659.2234
 -22167049.87748 -17258984.50346  21335653.7274                   21335649.9104
  21609900.08846  16853862.83444  23998102.1564                   23998100.0514
  31228561.54155  24350869.43852  24627798.4384                   24627796.8444
 -23271827.84548 -18124831.17846  20946693.0314                   20946688.8364
 -16001789.95147 -12461982.86444  23733653.2114                   23733650.2034
 -15111272.55648 -11759392.33646  21367178.6174                   21367174.2934
 11  9 30  3  3  0.0000000  0  9G22G29G09G15G06G14G21G26G18
  14309564.16647  11164305.02244  23310294.7734                   23310289.4144
 -30095641.87547 -23438342.20645  22008411.5164                   22008408.9694
  17118204.90247  13353897.27944  23554773.9694                   23554771.0044
 -22190160.01947 -17276992.41846  21331255.8134                   21331252.4024
  21459565.94246  16736719.37644  23969494.9774                   23969493.3674
  31037007.63745  24201606.86742  24591347.4844                   24591344.2704
 -23402938.20848 -18226995.08746  20921743.6884                   20921739.3954
 -15975865.50847 -12441782.06544  23738586.5634                   23738583.1294
 -15210715.38248 -11836880.24146  21348255.4304                   21348250.8244
 11  9 30  3  3 30.0000000  0  9G22G29G09G15G06G14G21G26G18
  14169560.05947  11055210.95644  23283653.2664                   23283647.6524
 -30090103.62947 -23434026.70145  22009465.2194                   22009462.4024
  16950783.02947  13223438.67644  23522914.5704                   23522911.3164
 -22212843.90047 -17294668.16846  21326939.3594                   21326935.6414
  21309611.04747  16619871.43044  23940959.8204                   23940957.0164
  30845546.43646  24052416.47742  24554913.7424                   24554910.0634
 -23533814.35748 -18328976.48546  20896839.1254                   20896834.4384
 -15949705.24247 -12421397.42744  23743564.2814                   23743561.1214
 -15310018.03748 -11914258.93546  21329358.8674                   21329354.5474
 11  9 30  3  4  0.0000000  0  9G22G29G09G15G06G14G21G26G18
  14029689.24347  10946220.74144  23257037.0944                   23257030.8054
 -30084277.99547 -23429487.26645  22010573.8594                   22010571.4304
  16783519.94647  13093103.87244  23491085.4144                   23491082.5554
 -22235100.65348 -17312011.09646  21322704.0314                   21322700.5984
  21160040.56747  16503323.03844  23912498.1644                   23912495.0704
  30654183.31346  23903302.46843  24518498.6024                   24518495.6334
 -23664450.99848 -18430771.27146  20871979.6254                   20871974.9184
 -15923309.08747 -12400829.01143  23748587.4614                   23748584.2424
 -15409177.46148 -11991525.99846  21310489.1334                   21310485.0474
 11  9 30  3  4 30.0000000  0  9G22G29G09G15G06G14G21G26G18
  13889956.58147  10837338.18944  23230446.3524                   23230440.4924
 -30078162.96447 -23424722.32545  22011737.9774                   22011735.1254
  16616424.03047  12962899.25844  23459288.4224                   23459285.7114
 -22256927.79248 -17329019.25446  21318549.9454                   21318546.6024
  21010861.10346  16387079.34444  23884109.9384                   23884106.8404
  30462925.55946  23754270.61043  24482103.7424                   24482099.9804
 -23794841.07848 -18532373.91546  20847167.4844                   20847162.7074
 -15896675.53047 -12380075.64043  23753655.5474                   23753652.5664
 -15508190.08548 -12068678.70146  21291647.9144                   21291643.6054
 11  9 30  3  5  0.0000000  0  9G22G29G09G15G06G14G21G26G18
  13750363.87247  10728564.67044  23203882.3914                   23203877.7194
 -30071759.29847 -23419732.46045  22012955.9454                   22012953.3794
  16449501.04447  12832829.44844  23427523.9844                   23427521.2114
 -22278325.83348 -17345693.04746  21314478.8204                   21314474.7814
  20862076.57147  16271143.37944  23855796.8984                   23855793.9414
  30271777.13546  23605323.93243  24445728.5634                   24445726.3444
 -23924980.53648 -18633781.28546  20822402.2734                   20822397.2034
 -15869805.74747 -12359138.18443  23758768.5004                   23758766.0634
 -15607054.37848 -12145715.79846  21272834.4694                   21272830.4734
 11  9 30  3  5 30.0000000  0  9G22G29G09G15G06G14G21G26G18
  13610910.96547  10619900.08644  23177345.5004                   23177340.3134
 -30065069.39647 -23414519.57145  22014229.2274                   22014226.1454
  16282754.68147  12702897.22644  23395792.7424                   23395790.1094
 -22299296.67848 -17362033.97046  21310487.9064                   21310484.2624
  20713689.25047  16155516.91544  23827559.3754                   23827556.7664
  30080740.93546  23456464.60043  24409375.8524                   24409373.2464
 -24054866.29548 -18734990.96546  20797686.2034                   20797681.3364
 -15842702.38846 -12338018.67643  23763926.1334                   23763923.9144
 -15705770.80048 -12222637.67746  21254049.1564                   21254045.2934
 11  9 30  3  6  0.0000000  0  9G22G29G09G15G06G14G21G26G18
  13471597.19347  10511343.93044  23150834.7344                   23150830.1604
 -30058095.99447 -23409085.75445  22015556.2424                   22015553.1214
  16116188.29147  12573105.22244  23364096.0944                   23364093.5904
 -22319842.63748 -17378043.81246  21306578.2274                   21306574.2974
  20565701.02847  16040201.42644  23799398.7894                   23799396.0554
  29889819.21446  23307694.52343  24373044.9844                   24373040.8954
 -24184497.29547 -18836002.12946  20773017.8984                   20773013.3244
 -15815368.89446 -12316719.93343  23769127.3444                   23769125.0314
 -15804339.85347 -12299444.71146  21235292.3054                   21235287.6024
 11  9 30  3  6 30.0000000  0  9G22G29G09G15G06G14G21G26G18
  13332423.78847  10402897.15545  23124351.2894                   23124345.3714
 -30050840.19847 -23403431.90645  22016936.8834                   22016933.6214
  15949806.98547  12443457.47844  23332435.6024                   23332431.5824
 -22339964.81948 -17393723.42946  21302748.6724                   21302745.5784
  20418115.11347  15925199.41344  23771313.4774                   23771311.7424
  29699015.81446  23159016.64443  24336736.3594                   24336732.2114
 -24313869.71748 -18936811.80246  20748399.0784                   20748395.1024
 -15787806.74646 -12295242.83243  23774372.6094                   23774370.2504
 -15902760.69247 -12376136.26846  21216563.3444                   21216559.5594
 11  9 30  3  7  0.0000000  0  9G22G29G09G15G06G14G21G26G18
  13193389.83747  10294559.02745  23097894.2194                   23097888.4184
 -30043305.63547 -23397560.81945  22018370.5944                   22018367.5554
  15783613.37047  12313956.00244  23300809.7734                   23300806.2624
 -22359666.24048 -17409075.19846  21298999.9844                   21298996.7624
  20270932.87547  15810511.99744  23743306.3594                   23743303.4264
  29508332.16946  23010432.15743  24300449.3984                   24300447.4694
 -24442981.67948 -19037418.52346  20723829.9384                   20723825.6844
 -15760020.08946 -12273590.93643  23779659.8134                   23779657.7704
 -16001034.97548 -12452713.62246  21197862.6724                   21197858.0864
 11  9 30  3  7 30.0000000  0  9G22G29G09G15G06G14G21G26G18
  13054493.42547  10186328.06144  23071462.8204                   23071456.9224
 -30035496.64147 -23391475.91845  22019856.4144                   22019854.1954
  15617609.43447  12184602.29744  23269220.1254                   23269217.5944
 -22378950.68348 -17424102.03046  21295330.2274                   21295326.8404
  20124154.51246  15696139.25044  23715374.9774                   23715372.4024
  29317769.48846  22861941.82243  24264186.9144                   24264183.5514
 -24571832.33547 -19137821.62746  20699310.6174                   20699306.0704
 -15732013.23246 -12251767.53243  23784989.4144                   23784988.0164
 -16099164.73947 -12529178.36146  21179189.0394                   21179184.5784
 11  9 30  3  8  0.0000000  0  9G22G29G09G15G06G14G21G26G18
  12915734.27147  10078204.05645  23045058.3914                   23045053.2234
 -30027415.90647 -23385179.26545  22021394.6414                   22021391.6994
  15451798.93847  12055399.36744  23237666.8674                   23237664.0864
 -22397820.42748 -17438805.72646  21291739.4304                   21291736.6214
  19977782.04647  15582082.81444  23687521.1564                   23687518.3984
  29127330.02846  22713547.51743  24227947.6254                   24227943.7544
 -24700419.35348 -19238019.30146  20674841.2274                   20674836.8444
 -15703789.31946 -12229774.90843  23790360.4534                   23790358.5744
 -16197150.19548 -12605530.64146  21160543.1954                   21160538.2584
 11  9 30  3  8 30.0000000  0  9G22G29G09G15G06G14G21G26G18
  12777109.51747   9970184.79445  23018678.5704                   23018673.2734
 -30019068.64847 -23378674.91045  22022982.8364                   22022980.6954
  15286182.57447  11926347.62444  23206151.3754                   23206148.4844
 -22416280.58448 -17453190.26046  21288226.3594                   21288222.7934
  19831814.74446  15468342.08143  23659743.8674                   23659741.5474
  28937013.38346  22565248.91442  24191731.1564                   24191726.2504
 -24828743.41148 -19338012.06846  20650421.9774                   20650417.3364
 -15675353.94746 -12207617.53843  23795771.6884                   23795769.2584
 -16294994.69348 -12681773.09446  21141923.7664                   21141919.2114
 11  9 30  3  9  0.0000000  0  9G22G29G09G15G06G14G21G26G18
  14214046.54747  11089875.99845  23292118.1724                   23292113.1684
 -28435034.61347 -22144362.68645  22324414.5704                   22324412.1644
  16696192.74247  13025056.87544  23474467.9844                   23474464.4734
 -20858909.65048 -16239654.46146  21584584.1094   21584580.7234   21261682.67146
  16582524.88344  23931839.2034   23931837.1214   30322251.43446  23644655.24242
                                  24455333.4774                   24455329.3524
 -23381374.87148 -18210192.42446  20925847.0554                   20925842.2034
 -14071287.97646 -10957696.00543  24101015.1724                   24101012.3404
 -14817272.14548 -11530300.97646  21423125.3054                   21423120.8054
 11  9 30  3  9 30.0000000  0 10G22G29G09G15G06G14G03G21G26G18
  14075692.62547  10982067.79344  23265790.8914                   23265784.9534
 -28426159.16147 -22137446.76945  22326103.4144                   22326100.8364
  16530978.81647  12896318.79744  23443028.2344                   23443025.4614
 -20876554.39848 -16253403.61746  21581226.8834   21581223.0394   21116534.70846
  16469422.60344  23904218.7584   23904215.3714   30132190.90946  23496556.16042
                                  24419165.5634                   24419161.8094
  32859523.78156  25618341.58853  24268907.5944                   24268905.3324
 -23509162.28948 -18309767.03046  20901529.9614                   20901525.3954
 -14042435.87247 -10935213.89243  24106506.2894                   24106503.4184
 -14914832.98348 -11606322.39846  21404559.7344                   21404555.1724
 11  9 30  3 10  0.0000000  0 10G22G29G09G15G06G14G03G21G26G18
  13937469.14447  10874361.20645  23239487.3674                   23239481.9964
 -28417028.21147 -22130331.75745  22327841.1174                   22327838.2934
  16365966.94047  12767738.11844  23411627.4144                   23411624.8874
 -20893799.43648 -16266841.31946  21577945.1414   21577941.3524   20971794.51646
  16356638.08344  23876674.6254   23876672.3554   29942257.42646  23348556.13243
                                  24383022.7424                   24383019.4384
  32706469.00746  25499078.19143  24239782.9694                   24239780.2464
 -23636683.41248 -18409134.13246  20877263.7424                   20877259.4024
 -14013384.42747 -10912576.45143  24112034.2274                   24112032.1214
 -15012257.68448 -11682237.73846  21386020.4614                   21386015.7234
 11  9 30  3 10 30.0000000  0 10G22G29G09G15G06G14G03G21G26G18
  13799376.99047  10766756.94745  23213209.5554                   23213204.5004
 -28407643.31447 -22123018.86945  22329626.9844                   22329624.7704
  16201161.74547  12639318.54144  23380265.9384                   23380263.4654
 -20910646.09848 -16279968.59046  21574739.5164   21574735.7624   20827465.00646
  16244173.55744  23849210.0784   23849207.7734   29752454.45246  23200657.73843
                                  24346904.0004                   24346901.2544
  32553838.14247  25380145.10944  24210738.0004                   24210735.8714
 -23763934.91248 -18508291.15146  20853048.2814                   20853043.9734
 -13984135.90047 -10889785.43243  24117599.9454                   24117598.5314
 -15109545.39548 -11758046.33546  21367506.9924                   21367503.4884
 11  9 30  3 11  0.0000000  0 10G22G29G09G15G06G14G03G21G26G18
  13661421.37547  10659259.09245  23186956.8524                   23186951.9304
 -28398002.02347 -22115506.18445  22331461.6334                   22331459.1844
  16036572.39047  12511067.12344  23348945.6254                   23348942.6844
 -20927091.23248 -16292782.98046  21571609.6334   21571606.7344   20683553.71846
  16132034.91443  23821824.3524   23821821.6524   29562789.74746  23052867.15643
                                  24310811.7974                   24310808.3874
  32401639.23047  25261548.63843  24181775.9614                   24181772.6334
 -23890907.87448 -18607231.11046  20828886.2344                   20828882.1024
 -13954687.54446 -10866838.70343  24123203.9064                   24123202.1094
 -15206691.21748 -11833744.36046  21349021.1724                   21349016.9144
 11  9 30  3 11 30.0000000  0 10G22G29G09G15G06G14G03G21G26G18
  13523604.90047  10551869.65145  23160731.8914                   23160726.1484
 -28388103.86647 -22107793.35245  22333344.6954                   22333342.4804
  15872205.37347  12382988.94544  23317667.7734                   23317664.6374
 -20943134.09548 -16305283.90846  21568557.1094   21568553.5004   20540065.20646
  16020225.72444  23794519.6564   23794516.7664   29373268.77946  22905188.63043
                                  24274747.2894                   24274744.1094
  32249877.22846  25143292.56143  24152896.1804                   24152893.1254
 -24017597.36548 -18705950.19946  20804778.3834                   20804773.6334
 -13925039.43146 -10843736.36543  24128845.6094                   24128844.0634
 -15303692.52948 -11909329.78046  21330562.1024                   21330557.8054
 11  9 30  3 12  0.0000000  0 10G22G29G09G15G06G14G03G21G26G18
  13385928.48947  10444589.33845  23134532.3984                   23134527.2034
 -28377950.20947 -22099881.43745  22335277.5084                   22335275.1484
  15708065.51247  12255087.80244  23286432.8204                   23286430.7114
 -20958776.11848 -16317472.50446  21565580.6174   21565576.8714   20397002.78646
  15908748.53844  23767295.2114   23767293.4184   29183895.16546  22757624.78543
                                  24238710.1884                   24238707.6884
  32098555.45246  25025379.58643  24124101.0394                   24124098.1884
 -24144000.78748 -18804446.37246  20780724.3444                   20780719.0554
 -13895193.59746 -10820479.89343  24134524.8524                   24134522.9574
 -15400548.97348 -11984802.33246  21312131.1954                   21312127.3244
 11  9 30  3 12 30.0000000  0 10G22G29G09G15G06G14G03G21G26G18
  13248393.96647  10337419.61245  23108360.6174                   23108355.2624
 -28367541.96347 -22091771.12745  22337258.1094                   22337255.4344
  15544158.73747  12127368.24444  23255242.4844                   23255239.8134
 -20974017.50448 -16329348.90346  21562680.5944   21562677.0634   20254370.34746
  15797606.41244  23740152.9224   23740151.0634   28994673.35646  22610179.28343
                                  24202702.9384                   24202700.4694
  31947678.39346  24907813.01743  24095389.6724                   24095386.5274
 -24270113.04848 -18902715.65446  20756725.9924                   20756720.8914
 -13865150.53746 -10797069.74943  24140242.7424                   24140240.4884
 -15497258.63448 -12060160.51446  21293727.9694                   21293723.7464
 11  9 30  3 13  0.0000000  0 10G22G29G09G15G06G14G03G21G26G18
  13110999.97847  10230359.37245  23082215.3524                   23082209.8914
 -28356882.52747 -22083465.10245  22339286.4224                   22339284.0354
  15380487.36447  11999832.13344  23224097.2114                   23224093.9614
 -20988861.30548 -16340915.51246  21559855.1024   21559851.9884   20112168.76446
  15686799.99744  23713093.4534   23713090.0554   28805604.83546  22462853.27243
                                  24166724.6334                   24166721.1294
  31797246.85746  24790593.69443  24066763.5004                   24066760.2934
 -24395932.71048 -19000756.95046  20732783.1484                   20732778.5944
 -13834914.25046 -10773509.08043  24145996.1334                   24145993.3404
 -15593822.98748 -12135405.44146  21275352.4224                   21275347.8164
 11  9 30  3 13 30.0000000  0 10G22G29G09G15G06G14G03G21G26G18
  12973743.61247  10123406.41744  23056096.7894                   23056090.5784
 -28345977.48947 -22074967.67945  22341362.2734                   22341359.6684
  15217052.15647  11872480.06044  23192996.5394                   23192993.1174
 -21003313.02748 -16352176.59546  21557105.1254   21557102.0784   19970396.76747
  15576328.35144  23686115.7814   23686112.4454   28616688.82346  22315646.12643
                                  24130774.6804                   24130771.7304
  31647259.96746  24673720.81343  24038221.5474                   24038217.9654
 -24521460.71148 -19098570.96746  20708896.1254                   20708890.9264
 -13804490.81146 -10749802.48743  24151785.2344                   24151782.7464
 -15690245.57547 -12210539.93046  21257003.8134                   21256999.0084
 11  9 30  3 14  0.0000000  0 10G22G29G09G15G06G14G03G21G26G18
  12836625.17447  10016560.90245  23030003.3284                   23029998.0164
 -28334828.80347 -22066280.41945  22343483.5234                   22343480.8954
  15053857.62147  11745315.50444  23161941.2584                   23161938.3204
 -21017373.94148 -16363133.16046  21554429.7194   21554426.5004   19829057.18747
  15466193.64644  23659218.3444   23659217.0234   28427928.90146  22168560.52743
                                  24094854.5394                   24094851.3134
  31497721.01946  24557197.02843  24009765.1644                   24009762.1604
 -24646693.49548 -19196154.95046  20685065.1484                   20685060.2734
 -13773882.06646 -10725951.60943  24157610.4144                   24157607.5704
 -15786525.81648 -12285563.48146  21238682.1414                   21238677.8984
 11  9 30  3 14 30.0000000  0 10G22G29G09G15G06G14G03G21G26G18
  12699643.64147   9909822.06945  23003936.5784                   23003931.2624
 -28323440.05947 -22057406.07345  22345651.0554                   22345648.1844
  14890906.67047  11618340.74244  23130932.5004                   23130929.1954
 -21031047.46148 -16373787.85846  21551827.8754   21551824.5234   19688150.84047
  15356396.51644  23632405.5554   23632402.2114   28239326.46646  22021597.70143
                                  24058964.1804                   24058961.4064
  31348631.31246  24441023.22743  23981394.8594                   23981391.8954
 -24771630.01248 -19293508.07846  20661290.4064                   20661285.7034
 -13743091.96046 -10701959.27843  24163469.4304                   24163466.4494
 -15882665.22848 -12360477.31446  21220387.4844                   21220383.7034
 11  9 30  3 15  0.0000000  0 10G22G29G09G15G06G14G03G21G26G18
  12562798.02947   9803189.17645  22977895.6024                   22977889.9414
 -28311814.58547 -22048347.26645  22347862.6724                   22347860.1604
  14728202.03547  11491557.94544  23099970.4694                   23099968.1914
 -21044336.80048 -16384143.18446  21549298.6254   21549295.4064   19547678.90147
  15246937.86744  23605674.9304   23605671.5124   28050882.82646  21874758.51043
                                  24023105.1174                   24023101.2934
  31199991.69346  24325200.17543  23953109.4694                   23953106.1334
 -24896268.65048 -19390629.09546  20637572.0864                   20637567.4844
 -13712124.28446 -10677828.66143  24169361.9304                   24169359.8094
 -15978664.99348 -12435282.31546  21202119.3054                   21202115.1374
 11  9 30  3 15 30.0000000  0 10G22G29G09G15G06G14G03G21G26G18
  12426087.75547   9696661.70445  22951880.6024                   22951874.9104
 -28299955.20547 -22039106.22145  22350118.8134                   22350116.8404
  14565747.59247  11364970.08544  23069057.2974                   23069054.3874
 -21057244.22348 -16394200.93346  21546842.6644   21546838.8054   19407642.89947
  15137818.94144  23579026.9924   23579023.2974   27862600.76146  21728045.25643
                                  23987276.2974                   23987271.7034
  31051804.40846  24209729.59042  23924909.6174                   23924906.4924
 -25020607.24548 -19487516.30546  20613911.7504                   20613906.9144
 -13680981.59046 -10653561.68143  24175288.6724                   24175286.3094
 -16074525.44448 -12509978.75646  21183877.8914                   21183873.4064
 11  9 30  3 16  0.0000000  0 10G22G29G09G15G06G14G03G21G26G18
  12289509.67047   9590237.26745  22925890.7114                   22925885.4384
 -28287867.81347 -22029687.49445  22352419.2974                   22352417.1294
  14403543.45647  11238577.25944  23038190.2584                   23038187.8244
 -21069775.64548 -16403965.68546  21544458.2344   21544454.5434   19268041.31847
  15029038.50444  23552462.1564   23552458.3014   27674479.06346  21581457.00243
                                  23951477.9694                   23951474.2664
  30904068.08046  24094610.40743  23896798.0004                   23896792.5864
 -25144646.64748 -19584170.38446  20590307.6644                   20590303.1054
 -13649670.51946 -10629163.45743  24181247.1884                   24181243.8164
 -16170250.34348 -12584569.59646  21165661.9694                   21165657.3634
 11  9 30  3 16 30.0000000  0 10G22G29G09G15G06G14G03G21G26G18
  12153061.58347   9483914.10045  22899926.1724                   22899920.4224
 -28275557.10747 -22020094.74345  22354762.4534                   22354760.1604
  14241591.46847  11112380.95844  23007371.5554                   23007369.0514
 -21081935.01048 -16413440.51246  21542144.2814   21542141.0314   19128874.28047
  14920596.67244  23525978.5084   23525975.0904   27486518.63346  21434994.35443
                                  23915710.2504                   23915706.6684
  30756783.43046  23979843.16943  23868770.1644                   23868766.1524
 -25268385.70948 -19680590.42346  20566760.6954                   20566756.4774
 -13618195.44646 -10604637.38742  24187236.5314                   24187233.4224
 -16265841.88748 -12659056.50046  21147471.4534                   21147466.8054
 11  9 30  3 17  0.0000000  0  9G22G29G09G15G06G14G03G21G18
  12016743.36247   9377692.13545  22873985.5704                   22873979.6954
 -28263025.56247 -22010329.92945  22357147.3594                   22357144.6454
  14079895.30447  10986383.95144  22976603.0554                   22976599.1254
 -21093724.55048 -16422627.18746  21539900.6024   21539897.5234   18990143.52147
  14812494.80544  23499579.4924   23499575.5474   27298722.12946  21288659.55143
                                  23879973.3914                   23879970.5984
  30609952.51346  23865429.51943  23840828.2114                   23840824.2624
 -25391822.85948 -19776775.22646  20543271.3674                   20543266.7464
 -16361300.33348 -12733439.71246  21129306.3364                   21129301.8134
 11  9 30  3 17 30.0000000  0  9G22G29G09G15G06G14G03G21G18
  11880555.41747   9271571.68445  22848069.4694                   22848063.7464
 -28250275.17447 -22000394.56745  22359573.5634                   22359571.0664
  13918459.35247  10860589.71244  22945882.1334                   22945878.7974
 -21105145.84848 -16431526.89746  21537727.1724   21537723.9344   18851851.63147
  14704734.88444  23473263.1954   23473259.7304   27111092.02446  21142454.33443
                                  23844268.6414                   23844265.0164
  30463577.87046  23751371.39943  23812974.6954                   23812970.0904
 -25514954.37448 -19872721.84346  20519840.3984                   20519835.5664
 -16456625.65048 -12807719.16646  21111166.6644                   21111162.0474
 11  9 30  3 18  0.0000000  0  9G22G29G09G15G06G14G03G21G18
  11744499.31447   9165553.95445  22822179.0704                   22822173.5984
 -28237306.63447 -21990289.23645  22362041.2504                   22362038.9964
  13757289.05747  10735002.47444  22915212.6804                   22915209.8984
 -21116199.67948 -16440140.28546  21535623.8674   21535620.7034   18714001.83746
  14597319.50844  23447031.5234   23447027.6684   26923632.84546  20996382.26743
                                  23808596.3984                   23808593.0204
  30317663.06146  23637671.57343  23785208.1174                   23785205.3244
 -25637776.45748 -19968427.36646  20496467.9304                   20496463.0514
 -16551816.27848 -12881893.69046  21093052.2114                   21093047.7384
 11  9 30  3 18 30.0000000  0  9G22G29G09G15G06G14G03G21G18
  13183996.94647  10287240.45345  23096105.7664                   23096100.5394
 -26648705.82947 -20752418.49345  22664341.9384                   22664339.6374
  15171810.86747  11837227.27944  23184387.0554                   23184384.0944
 -19551470.34848 -15220870.68646  21833381.5864   21833378.9884   20152018.04246
  15717851.62244  23720676.1414   23720673.2504   28311770.46346  22078048.01543
                                  24072750.5864                   24072746.2734
  31747632.27546  24751933.35843  24057321.5634                   24057318.6914
 -24184865.57348 -18836289.00346  20772947.9844                   20772942.8984
 -15071451.96248 -11728363.03946  21374755.9924                   21374752.0394
 11  9 30  3 19  0.0000000  0  9G22G29G09G15G06G14G03G21G18
  13048194.75647  10181420.57145  23070264.2584                   23070258.5744
 -26635318.31447 -20741986.68745  22666889.5234                   22666887.1054
  15011173.93747  11712055.67844  23153818.5784                   23153816.0664
 -19561805.24648 -15228923.85746  21831415.1334   21831411.8204   20015048.97147
  15611122.50144  23694611.7974   23694609.2894   28124651.13646  21932240.80743
                                  24037142.3674                   24037139.0474
  31602634.45546  24638948.06543  24029729.9304                   24029727.8244
 -24307071.25048 -18931514.19646  20749692.7584                   20749688.1454
 -15166383.30448 -11802335.50746  21356691.1174                   21356686.9844
 11  9 30  3 19 30.0000000  0  9G22G29G09G15G06G14G03G21G18
  12912511.04947  10075693.04645  23044444.3674                   23044438.6094
 -26621733.42447 -20731401.07745  22669474.7274                   22669472.1024
  14850800.83147  11587089.65944  23123300.6644                   23123298.1524
 -19571792.66548 -15236706.27446  21829514.7734   21829511.7774   19878514.56747
  15504732.08244  23668630.3984   23668627.2464   27937697.47746  21786562.65543
                                  24001566.2734                   24001562.7074
  31458090.15046  24526316.18344  24002223.7034                   24002221.1524
 -24428972.56548 -19026502.22246  20726496.0704                   20726491.8554
 -15261193.63048 -11876213.67546  21338649.7274                   21338645.3244
 11  9 30  3 20  0.0000000  0  9G22G29G09G15G06G14G03G21G18
  12776943.23947   9970055.81645  23018646.5234                   23018640.5274
 -26607956.07447 -20720665.51545  22672095.7194                   22672093.4224
  14690693.14547  11462330.42445  23092833.3134                   23092830.1884
 -19581436.23548 -15244220.75846  21827679.3444   21827676.1094   19742414.35347
  15398679.97144  23642731.0554   23642728.1254   27750909.26946  21641013.46343
                                  23966021.8754                   23966018.0784
  31313998.96946  24414037.38543  23974804.6484                   23974802.1994
 -24550570.66048 -19121253.99146  20703356.6954                   20703351.6804
 -15355885.64648 -11949999.65346  21320630.7584                   21320625.6484
